Time,TemperatureF,DewpointF,PressureIn,WindDirection,WindDirectionDegrees,WindSpeedMPH,WindSpeedGustMPH,Humidity,HourlyPrecipIn,Conditions,Clouds,dailyrainin,SolarRadiationWatts/m^2,SoftwareType,DateUTC
2013-12-10 00:00:00,12.5,8.6,31.42,North,350,0.0,5.0,84,0.00,,,0.00,0.00,VWS V14.00,2013-12-10 07:00:00,
2013-12-10 00:01:00,12.5,8.6,31.42,North,350,0.0,0.0,84,0.00,,,0.00,0.00,VWS V14.00,2013-12-10 07:01:00,
2013-12-10 00:02:00,12.5,8.6,31.42,North,350,4.0,4.0,84,0.00,,,0.00,0.00,VWS V14.00,2013-12-10 07:02:00,
2013-12-10 00:03:00,12.5,8.6,31.42,NNW,348,4.0,5.0,84,0.00,,,0.00,0.00,VWS V14.00,2013-12-10 07:03:00,
2013-12-10 00:04:00,12.5,8.9,31.43,NNW,348,1.0,5.0,85,0.00,,,0.00,0.00,VWS V14.00,2013-12-10 07:04:00,
2013-12-10 00:05:00,12.5,8.9,31.43,NNW,348,2.0,5.0,85,0.00,,,0.00,0.00,VWS V14.00,2013-12-10 07:05:00,
2013-12-10 00:06:00,12.5,8.6,31.43,NNW,348,2.0,5.0,84,0.00,,,0.00,0.00,VWS V14.00,2013-12-10 07:06:00,
2013-12-10 00:07:00,12.5,8.6,31.43,NNW,348,0.0,5.0,84,0.00,,,0.00,0.00,VWS V14.00,2013-12-10 07:07:00,
2013-12-10 00:08:00,12.5,8.6,31.43,NNW,348,0.0,5.0,84,0.00,,,0.00,0.00,VWS V14.00,2013-12-10 07:08:00,
2013-12-10 00:09:00,12.5,8.9,31.43,NNW,348,0.0,5.0,85,0.00,,,0.00,0.00,VWS V14.00,2013-12-10 07:09:00,
2013-12-10 00:10:00,12.6,9.0,31.42,NNW,348,0.0,5.0,85,0.00,,,0.00,0.00,VWS V14.00,2013-12-10 07:10:00,
2013-12-10 00:11:00,12.6,9.0,31.42,NNW,348,0.0,5.0,85,0.00,,,0.00,0.00,VWS V14.00,2013-12-10 07:11:00,
2013-12-10 00:12:00,12.6,9.0,31.42,NNW,348,0.0,5.0,85,0.00,,,0.00,0.00,VWS V14.00,2013-12-10 07:12:00,
2013-12-10 00:13:00,12.6,9.0,31.42,NNW,348,0.0,5.0,85,0.00,,,0.00,0.00,VWS V14.00,2013-12-10 07:13:00,
2013-12-10 00:14:00,12.6,9.0,31.42,NNW,348,0.0,5.0,85,0.00,,,0.00,0.00,VWS V14.00,2013-12-10 07:14:00,
2013-12-10 00:15:00,12.6,9.0,31.42,NNW,348,0.0,5.0,85,0.00,,,0.00,0.00,VWS V14.00,2013-12-10 07:15:00,
2013-12-10 00:16:00,12.6,9.0,31.43,NNW,348,0.0,0.0,85,0.00,,,0.00,0.00,VWS V14.00,2013-12-10 07:16:00,
2013-12-10 00:17:00,12.6,9.0,31.42,NNW,348,0.0,0.0,85,0.00,,,0.00,0.00,VWS V14.00,2013-12-10 07:17:00,
2013-12-10 00:18:00,12.6,9.0,31.42,NNW,348,0.0,0.0,85,0.00,,,0.00,0.00,VWS V14.00,2013-12-10 07:18:00,
2013-12-10 00:19:00,12.6,9.0,31.42,NNW,348,0.0,0.0,85,0.00,,,0.00,0.00,VWS V14.00,2013-12-10 07:19:00,
2013-12-10 00:20:00,12.6,9.0,31.42,NNW,348,0.0,0.0,85,0.00,,,0.00,0.00,VWS V14.00,2013-12-10 07:20:00,
2013-12-10 00:21:00,12.6,9.0,31.42,NNW,348,0.0,0.0,85,0.00,,,0.00,0.00,VWS V14.00,2013-12-10 07:21:00,
2013-12-10 00:22:00,12.6,9.0,31.42,NNW,348,0.0,0.0,85,0.00,,,0.00,0.00,VWS V14.00,2013-12-10 07:22:00,
2013-12-10 00:23:00,12.6,9.0,31.42,NNW,348,0.0,0.0,85,0.00,,,0.00,0.00,VWS V14.00,2013-12-10 07:23:00,
2013-12-10 00:24:00,12.6,9.0,31.42,NNW,348,0.0,0.0,85,0.00,,,0.00,0.00,VWS V14.00,2013-12-10 07:24:00,
2013-12-10 00:25:00,12.6,9.0,31.42,NNW,348,0.0,0.0,85,0.00,,,0.00,0.00,VWS V14.00,2013-12-10 07:25:00,
2013-12-10 00:26:00,12.6,9.0,31.42,NNW,348,0.0,0.0,85,0.00,,,0.00,0.00,VWS V14.00,2013-12-10 07:26:00,
2013-12-10 00:27:00,12.6,9.0,31.42,NNW,348,0.0,0.0,85,0.00,,,0.00,0.00,VWS V14.00,2013-12-10 07:27:00,
2013-12-10 00:28:00,12.6,9.0,31.42,NNW,348,0.0,0.0,85,0.00,,,0.00,0.00,VWS V14.00,2013-12-10 07:28:00,
2013-12-10 00:29:00,12.7,9.1,31.42,NNW,348,0.0,0.0,85,0.00,,,0.00,0.00,VWS V14.00,2013-12-10 07:29:00,
2013-12-10 00:30:00,12.7,9.1,31.42,NNW,348,0.0,0.0,85,0.00,,,0.00,0.00,VWS V14.00,2013-12-10 07:30:00,
2013-12-10 00:31:00,12.7,9.1,31.42,NNW,348,0.0,0.0,85,0.00,,,0.00,0.00,VWS V14.00,2013-12-10 07:31:00,
2013-12-10 00:32:00,12.7,9.1,31.42,NNW,348,0.0,0.0,85,0.00,,,0.00,0.00,VWS V14.00,2013-12-10 07:32:00,
2013-12-10 00:33:00,12.8,9.1,31.42,NNW,348,0.0,0.0,85,0.00,,,0.00,0.00,VWS V14.00,2013-12-10 07:33:00,
2013-12-10 00:34:00,12.8,9.1,31.42,NNW,348,0.0,0.0,85,0.00,,,0.00,0.00,VWS V14.00,2013-12-10 07:34:00,
2013-12-10 00:35:00,12.9,9.2,31.42,NNW,348,0.0,0.0,85,0.00,,,0.00,0.00,VWS V14.00,2013-12-10 07:35:00,
2013-12-10 00:36:00,13.0,9.4,31.41,NNW,348,0.0,0.0,85,0.00,,,0.00,0.00,VWS V14.00,2013-12-10 07:36:00,
2013-12-10 00:37:00,13.0,9.4,31.41,NNW,348,0.0,0.0,85,0.00,,,0.00,0.00,VWS V14.00,2013-12-10 07:37:00,
2013-12-10 00:38:00,13.0,9.4,31.41,NNW,348,0.0,0.0,85,0.00,,,0.00,0.00,VWS V14.00,2013-12-10 07:38:00,
2013-12-10 00:39:00,13.1,9.7,31.41,NNW,348,0.0,0.0,86,0.00,,,0.00,0.00,VWS V14.00,2013-12-10 07:39:00,
2013-12-10 00:40:00,13.2,9.8,31.41,NNW,348,0.0,0.0,86,0.00,,,0.00,0.00,VWS V14.00,2013-12-10 07:40:00,
2013-12-10 00:41:00,13.3,9.9,31.41,NNW,348,0.0,0.0,86,0.00,,,0.00,0.00,VWS V14.00,2013-12-10 07:41:00,
2013-12-10 00:42:00,13.3,9.9,31.41,NNW,348,0.0,0.0,86,0.00,,,0.00,0.00,VWS V14.00,2013-12-10 07:42:00,
2013-12-10 00:43:00,13.4,10.0,31.41,NNW,348,0.0,0.0,86,0.00,,,0.00,0.00,VWS V14.00,2013-12-10 07:43:00,
2013-12-10 00:44:00,13.5,10.1,31.41,NNW,348,0.0,0.0,86,0.00,,,0.00,0.00,VWS V14.00,2013-12-10 07:44:00,
2013-12-10 00:45:00,13.6,10.2,31.40,NNW,348,0.0,0.0,86,0.00,,,0.00,0.00,VWS V14.00,2013-12-10 07:45:00,
2013-12-10 00:46:00,13.6,10.2,31.40,NNW,348,0.0,0.0,86,0.00,,,0.00,0.00,VWS V14.00,2013-12-10 07:46:00,
2013-12-10 00:47:00,13.6,10.2,31.40,NNW,348,0.0,0.0,86,0.00,,,0.00,0.00,VWS V14.00,2013-12-10 07:47:00,
2013-12-10 00:48:00,13.7,10.3,31.40,NNW,348,0.0,0.0,86,0.00,,,0.00,0.00,VWS V14.00,2013-12-10 07:48:00,
2013-12-10 00:49:00,13.8,10.4,31.40,NNW,348,0.0,0.0,86,0.00,,,0.00,0.00,VWS V14.00,2013-12-10 07:49:00,
2013-12-10 00:50:00,13.8,10.4,31.39,NNW,348,0.0,0.0,86,0.00,,,0.00,0.00,VWS V14.00,2013-12-10 07:50:00,
2013-12-10 00:51:00,13.9,10.5,31.39,NNW,348,0.0,0.0,86,0.00,,,0.00,0.00,VWS V14.00,2013-12-10 07:51:00,
2013-12-10 00:52:00,13.9,10.8,31.39,NNW,348,0.0,0.0,87,0.00,,,0.00,0.00,VWS V14.00,2013-12-10 07:52:00,
2013-12-10 00:53:00,14.1,10.9,31.39,ESE,113,0.0,0.0,87,0.00,,,0.00,0.00,VWS V14.00,2013-12-10 07:53:00,
2013-12-10 00:54:00,14.4,11.2,31.39,ESE,115,0.0,0.0,87,0.00,,,0.00,0.00,VWS V14.00,2013-12-10 07:54:00,
2013-12-10 00:55:00,14.6,11.4,31.39,SSE,148,3.0,3.0,87,0.00,,,0.00,0.00,VWS V14.00,2013-12-10 07:55:00,
2013-12-10 00:56:00,14.9,12.0,31.39,SSE,148,0.0,3.0,88,0.00,,,0.00,0.00,VWS V14.00,2013-12-10 07:56:00,
2013-12-10 00:57:00,15.2,12.3,31.39,SSE,148,0.0,3.0,88,0.00,,,0.00,0.00,VWS V14.00,2013-12-10 07:57:00,
2013-12-10 00:58:00,15.3,12.4,31.39,West,271,0.0,3.0,88,0.00,,,0.00,0.00,VWS V14.00,2013-12-10 07:58:00,
2013-12-10 00:59:00,15.4,12.5,31.39,West,271,0.0,4.0,88,0.00,,,0.00,0.00,VWS V14.00,2013-12-10 07:59:00,
2013-12-10 01:00:00,15.4,12.5,31.39,West,271,0.0,4.0,88,0.00,,,0.00,0.00,VWS V14.00,2013-12-10 08:00:00,
2013-12-10 01:01:00,15.5,12.6,31.38,West,271,0.0,4.0,88,0.00,,,0.00,0.00,VWS V14.00,2013-12-10 08:01:00,
2013-12-10 01:02:00,15.5,12.6,31.37,West,271,0.0,4.0,88,0.00,,,0.00,0.00,VWS V14.00,2013-12-10 08:02:00,
2013-12-10 01:03:00,15.5,12.3,31.37,West,271,0.0,4.0,87,0.00,,,0.00,0.00,VWS V14.00,2013-12-10 08:03:00,
2013-12-10 01:04:00,15.5,12.3,31.36,West,271,0.0,4.0,87,0.00,,,0.00,0.00,VWS V14.00,2013-12-10 08:04:00,
2013-12-10 01:05:00,15.5,12.3,31.36,West,271,0.0,4.0,87,0.00,,,0.00,0.00,VWS V14.00,2013-12-10 08:05:00,
2013-12-10 01:06:00,15.5,12.3,31.36,West,271,0.0,4.0,87,0.00,,,0.00,0.00,VWS V14.00,2013-12-10 08:06:00,
2013-12-10 01:07:00,15.6,12.4,31.36,West,271,0.0,4.0,87,0.00,,,0.00,0.00,VWS V14.00,2013-12-10 08:07:00,
2013-12-10 01:08:00,15.6,12.4,31.36,West,271,0.0,4.0,87,0.00,,,0.00,0.00,VWS V14.00,2013-12-10 08:08:00,
2013-12-10 01:09:00,15.6,12.2,31.36,West,271,0.0,4.0,86,0.00,,,0.00,0.00,VWS V14.00,2013-12-10 08:09:00,
2013-12-10 01:10:00,15.6,12.2,31.37,West,271,0.0,4.0,86,0.00,,,0.00,0.00,VWS V14.00,2013-12-10 08:10:00,
2013-12-10 01:11:00,15.7,12.3,31.37,West,271,0.0,4.0,86,0.00,,,0.00,0.00,VWS V14.00,2013-12-10 08:11:00,
2013-12-10 01:12:00,15.6,12.2,31.36,West,271,0.0,4.0,86,0.00,,,0.00,0.00,VWS V14.00,2013-12-10 08:12:00,
2013-12-10 01:13:00,15.6,11.9,31.36,West,271,0.0,4.0,85,0.00,,,0.00,0.00,VWS V14.00,2013-12-10 08:13:00,
2013-12-10 01:14:00,15.6,11.9,31.36,West,271,0.0,4.0,85,0.00,,,0.00,0.00,VWS V14.00,2013-12-10 08:14:00,
2013-12-10 01:15:00,15.5,11.8,31.36,West,271,0.0,4.0,85,0.00,,,0.00,0.00,VWS V14.00,2013-12-10 08:15:00,
2013-12-10 01:16:00,15.5,11.8,31.36,West,271,0.0,0.0,85,0.00,,,0.00,0.00,VWS V14.00,2013-12-10 08:16:00,
2013-12-10 01:17:00,15.5,11.5,31.36,West,271,0.0,0.0,84,0.00,,,0.00,0.00,VWS V14.00,2013-12-10 08:17:00,
2013-12-10 01:18:00,15.5,11.5,31.36,West,271,0.0,0.0,84,0.00,,,0.00,0.00,VWS V14.00,2013-12-10 08:18:00,
2013-12-10 01:19:00,15.5,11.5,31.36,West,271,0.0,0.0,84,0.00,,,0.00,0.00,VWS V14.00,2013-12-10 08:19:00,
2013-12-10 01:20:00,15.5,11.8,31.36,West,271,0.0,0.0,85,0.00,,,0.00,0.00,VWS V14.00,2013-12-10 08:20:00,
2013-12-10 01:21:00,15.6,11.9,31.36,West,271,0.0,0.0,85,0.00,,,0.00,0.00,VWS V14.00,2013-12-10 08:21:00,
2013-12-10 01:22:00,15.7,12.0,31.36,West,271,0.0,0.0,85,0.00,,,0.00,0.00,VWS V14.00,2013-12-10 08:22:00,
2013-12-10 01:23:00,15.7,12.0,31.36,West,271,0.0,0.0,85,0.00,,,0.00,0.00,VWS V14.00,2013-12-10 08:23:00,
2013-12-10 01:24:00,15.8,12.1,31.36,West,271,0.0,0.0,85,0.00,,,0.00,0.00,VWS V14.00,2013-12-10 08:24:00,
2013-12-10 01:25:00,15.9,12.2,31.36,West,271,0.0,0.0,85,0.00,,,0.00,0.00,VWS V14.00,2013-12-10 08:25:00,
2013-12-10 01:26:00,15.9,12.2,31.36,West,271,0.0,0.0,85,0.00,,,0.00,0.00,VWS V14.00,2013-12-10 08:26:00,
2013-12-10 01:27:00,15.9,12.2,31.36,West,271,0.0,0.0,85,0.00,,,0.00,0.00,VWS V14.00,2013-12-10 08:27:00,
2013-12-10 01:28:00,15.9,12.2,31.36,West,271,0.0,0.0,85,0.00,,,0.00,0.00,VWS V14.00,2013-12-10 08:28:00,
2013-12-10 01:29:00,15.9,12.2,31.36,West,271,0.0,0.0,85,0.00,,,0.00,0.00,VWS V14.00,2013-12-10 08:29:00,
2013-12-10 01:30:00,16.0,12.3,31.36,West,271,0.0,0.0,85,0.00,,,0.00,0.00,VWS V14.00,2013-12-10 08:30:00,
2013-12-10 01:31:00,16.0,12.3,31.36,West,271,0.0,0.0,85,0.00,,,0.00,0.00,VWS V14.00,2013-12-10 08:31:00,
2013-12-10 01:32:00,15.9,12.2,31.36,West,271,0.0,0.0,85,0.00,,,0.00,0.00,VWS V14.00,2013-12-10 08:32:00,
2013-12-10 01:33:00,16.0,12.3,31.35,West,271,0.0,0.0,85,0.00,,,0.00,0.00,VWS V14.00,2013-12-10 08:33:00,
2013-12-10 01:34:00,16.0,12.0,31.35,West,271,0.0,0.0,84,0.00,,,0.00,0.00,VWS V14.00,2013-12-10 08:34:00,
2013-12-10 01:35:00,16.0,12.0,31.35,West,271,0.0,0.0,84,0.00,,,0.00,0.00,VWS V14.00,2013-12-10 08:35:00,
2013-12-10 01:36:00,16.0,12.0,31.35,West,271,0.0,0.0,84,0.00,,,0.00,0.00,VWS V14.00,2013-12-10 08:36:00,
2013-12-10 01:37:00,16.0,12.3,31.35,West,271,0.0,0.0,85,0.00,,,0.00,0.00,VWS V14.00,2013-12-10 08:37:00,
2013-12-10 01:38:00,16.0,12.3,31.35,West,271,0.0,0.0,85,0.00,,,0.00,0.00,VWS V14.00,2013-12-10 08:38:00,
2013-12-10 01:39:00,16.1,12.4,31.35,West,271,0.0,0.0,85,0.00,,,0.00,0.00,VWS V14.00,2013-12-10 08:39:00,
2013-12-10 01:40:00,16.2,12.5,31.35,West,271,0.0,0.0,85,0.00,,,0.00,0.00,VWS V14.00,2013-12-10 08:40:00,
2013-12-10 01:41:00,16.3,12.9,31.35,West,271,0.0,0.0,86,0.00,,,0.00,0.00,VWS V14.00,2013-12-10 08:41:00,
2013-12-10 01:42:00,16.4,12.9,31.35,West,271,0.0,0.0,86,0.00,,,0.00,0.00,VWS V14.00,2013-12-10 08:42:00,
2013-12-10 01:43:00,16.5,13.1,31.35,West,271,0.0,0.0,86,0.00,,,0.00,0.00,VWS V14.00,2013-12-10 08:43:00,
2013-12-10 01:44:00,16.6,13.1,31.35,West,271,0.0,0.0,86,0.00,,,0.00,0.00,VWS V14.00,2013-12-10 08:44:00,
2013-12-10 01:45:00,16.6,13.1,31.35,North,349,4.0,7.0,86,0.00,,,0.00,0.00,VWS V14.00,2013-12-10 08:45:00,
2013-12-10 01:46:00,16.6,13.1,31.35,North,355,4.0,5.0,86,0.00,,,0.00,0.00,VWS V14.00,2013-12-10 08:46:00,
2013-12-10 01:47:00,16.6,12.9,31.35,North,11,3.0,6.0,85,0.00,,,0.00,0.00,VWS V14.00,2013-12-10 08:47:00,
2013-12-10 01:48:00,16.5,12.5,31.36,NNE,21,0.0,6.0,84,0.00,,,0.00,0.00,VWS V14.00,2013-12-10 08:48:00,
2013-12-10 01:49:00,16.4,12.4,31.35,NNE,21,0.0,6.0,84,0.00,,,0.00,0.00,VWS V14.00,2013-12-10 08:49:00,
2013-12-10 01:50:00,16.3,12.1,31.36,NNE,21,0.0,6.0,83,0.00,,,0.00,0.00,VWS V14.00,2013-12-10 08:50:00,
2013-12-10 01:51:00,16.2,12.0,31.35,NNE,21,0.0,6.0,83,0.00,,,0.00,0.00,VWS V14.00,2013-12-10 08:51:00,
2013-12-10 01:52:00,16.1,11.9,31.35,NNE,21,0.0,6.0,83,0.00,,,0.00,0.00,VWS V14.00,2013-12-10 08:52:00,
2013-12-10 01:53:00,16.1,11.9,31.35,NNE,21,0.0,6.0,83,0.00,,,0.00,0.00,VWS V14.00,2013-12-10 08:53:00,
2013-12-10 01:54:00,16.0,11.8,31.35,NNE,21,0.0,6.0,83,0.00,,,0.00,0.00,VWS V14.00,2013-12-10 08:54:00,
2013-12-10 01:55:00,16.0,11.8,31.35,NNE,21,0.0,6.0,83,0.00,,,0.00,0.00,VWS V14.00,2013-12-10 08:55:00,
2013-12-10 01:56:00,16.0,11.8,31.35,NW,323,5.0,6.0,83,0.00,,,0.00,0.00,VWS V14.00,2013-12-10 08:56:00,
2013-12-10 01:57:00,15.9,11.7,31.35,NNW,327,3.0,6.0,83,0.00,,,0.00,0.00,VWS V14.00,2013-12-10 08:57:00,
2013-12-10 01:58:00,15.8,11.6,31.35,NNW,330,0.0,6.0,83,0.00,,,0.00,0.00,VWS V14.00,2013-12-10 08:58:00,
2013-12-10 01:59:00,15.7,11.2,31.35,NNW,336,0.0,6.0,82,0.00,,,0.00,0.00,VWS V14.00,2013-12-10 08:59:00,
2013-12-10 02:00:00,15.6,11.1,31.35,NNW,342,0.0,6.0,82,0.00,,,0.00,0.00,VWS V14.00,2013-12-10 09:00:00,
2013-12-10 02:01:00,15.5,11.0,31.35,North,360,2.0,4.0,82,0.00,,,0.00,0.00,VWS V14.00,2013-12-10 09:01:00,
2013-12-10 02:02:00,15.4,10.9,31.35,North,360,3.0,6.0,82,0.00,,,0.00,0.00,VWS V14.00,2013-12-10 09:02:00,
2013-12-10 02:03:00,15.3,10.8,31.36,North,360,0.0,6.0,82,0.00,,,0.00,0.00,VWS V14.00,2013-12-10 09:03:00,
2013-12-10 02:04:00,15.2,10.7,31.36,North,360,0.0,6.0,82,0.00,,,0.00,0.00,VWS V14.00,2013-12-10 09:04:00,
2013-12-10 02:05:00,15.1,10.6,31.36,North,360,0.0,6.0,82,0.00,,,0.00,0.00,VWS V14.00,2013-12-10 09:05:00,
2013-12-10 02:06:00,15.0,10.5,31.36,North,360,3.0,6.0,82,0.00,,,0.00,0.00,VWS V14.00,2013-12-10 09:06:00,
2013-12-10 02:07:00,14.9,10.4,31.36,North,360,3.0,6.0,82,0.00,,,0.00,0.00,VWS V14.00,2013-12-10 09:07:00,
2013-12-10 02:08:00,14.8,10.3,31.36,North,360,2.0,6.0,82,0.00,,,0.00,0.00,VWS V14.00,2013-12-10 09:08:00,
2013-12-10 02:09:00,14.7,10.2,31.36,North,360,3.0,6.0,82,0.00,,,0.00,0.00,VWS V14.00,2013-12-10 09:09:00,
2013-12-10 02:10:00,14.5,10.0,31.37,North,360,0.0,6.0,82,0.00,,,0.00,0.00,VWS V14.00,2013-12-10 09:10:00,
2013-12-10 02:11:00,14.4,9.9,31.36,North,360,0.0,6.0,82,0.00,,,0.00,0.00,VWS V14.00,2013-12-10 09:11:00,
2013-12-10 02:12:00,14.4,9.9,31.36,North,360,0.0,6.0,82,0.00,,,0.00,0.00,VWS V14.00,2013-12-10 09:12:00,
2013-12-10 02:13:00,14.3,9.8,31.36,North,360,3.0,6.0,82,0.00,,,0.00,0.00,VWS V14.00,2013-12-10 09:13:00,
2013-12-10 02:14:00,14.2,9.7,31.36,North,360,3.0,6.0,82,0.00,,,0.00,0.00,VWS V14.00,2013-12-10 09:14:00,
2013-12-10 02:15:00,14.1,9.6,31.36,North,360,3.0,6.0,82,0.00,,,0.00,0.00,VWS V14.00,2013-12-10 09:15:00,
2013-12-10 02:16:00,14.1,9.6,31.36,North,360,4.0,4.0,82,0.00,,,0.00,0.00,VWS V14.00,2013-12-10 09:16:00,
2013-12-10 02:17:00,14.0,9.8,31.36,North,360,2.0,5.0,83,0.00,,,0.00,0.00,VWS V14.00,2013-12-10 09:17:00,
2013-12-10 02:18:00,14.0,9.8,31.36,North,360,0.0,5.0,83,0.00,,,0.00,0.00,VWS V14.00,2013-12-10 09:18:00,
2013-12-10 02:19:00,13.9,9.7,31.36,North,360,0.0,5.0,83,0.00,,,0.00,0.00,VWS V14.00,2013-12-10 09:19:00,
2013-12-10 02:20:00,13.9,9.7,31.36,North,360,0.0,5.0,83,0.00,,,0.00,0.00,VWS V14.00,2013-12-10 09:20:00,
2013-12-10 02:21:00,13.9,9.7,31.36,North,360,0.0,5.0,83,0.00,,,0.00,0.00,VWS V14.00,2013-12-10 09:21:00,
2013-12-10 02:22:00,13.8,9.6,31.36,North,360,0.0,5.0,83,0.00,,,0.00,0.00,VWS V14.00,2013-12-10 09:22:00,
2013-12-10 02:23:00,13.9,10.0,31.36,North,360,0.0,5.0,84,0.00,,,0.00,0.00,VWS V14.00,2013-12-10 09:23:00,
2013-12-10 02:24:00,13.9,10.0,31.36,North,360,0.0,5.0,84,0.00,,,0.00,0.00,VWS V14.00,2013-12-10 09:24:00,
2013-12-10 02:25:00,14.0,10.3,31.36,North,360,0.0,5.0,85,0.00,,,0.00,0.00,VWS V14.00,2013-12-10 09:25:00,
2013-12-10 02:26:00,14.1,10.4,31.36,North,360,0.0,5.0,85,0.00,,,0.00,0.00,VWS V14.00,2013-12-10 09:26:00,
2013-12-10 02:27:00,14.3,10.6,31.36,North,360,0.0,5.0,85,0.00,,,0.00,0.00,VWS V14.00,2013-12-10 09:27:00,
2013-12-10 02:28:00,14.4,11.0,31.36,North,360,0.0,5.0,86,0.00,,,0.00,0.00,VWS V14.00,2013-12-10 09:28:00,
2013-12-10 02:29:00,14.5,11.1,31.36,North,360,0.0,5.0,86,0.00,,,0.00,0.00,VWS V14.00,2013-12-10 09:29:00,
2013-12-10 02:30:00,14.6,11.2,31.36,WNW,299,3.0,5.0,86,0.00,,,0.00,0.00,VWS V14.00,2013-12-10 09:30:00,
2013-12-10 02:31:00,14.6,11.2,31.36,WNW,300,2.0,3.0,86,0.00,,,0.00,0.00,VWS V14.00,2013-12-10 09:31:00,
2013-12-10 02:32:00,14.6,11.2,31.36,WNW,299,0.0,3.0,86,0.00,,,0.00,0.00,VWS V14.00,2013-12-10 09:32:00,
2013-12-10 02:33:00,14.7,11.3,31.36,WNW,300,0.0,3.0,86,0.00,,,0.00,0.00,VWS V14.00,2013-12-10 09:33:00,
2013-12-10 02:34:00,14.7,11.3,31.36,WNW,300,0.0,3.0,86,0.00,,,0.00,0.00,VWS V14.00,2013-12-10 09:34:00,
2013-12-10 02:35:00,14.7,11.3,31.35,WNW,299,0.0,3.0,86,0.00,,,0.00,0.00,VWS V14.00,2013-12-10 09:35:00,
2013-12-10 02:36:00,14.7,11.0,31.35,WNW,299,0.0,3.0,85,0.00,,,0.00,0.00,VWS V14.00,2013-12-10 09:36:00,
2013-12-10 02:37:00,14.7,11.3,31.35,WNW,300,0.0,3.0,86,0.00,,,0.00,0.00,VWS V14.00,2013-12-10 09:37:00,
2013-12-10 02:38:00,14.8,11.1,31.35,WNW,300,0.0,3.0,85,0.00,,,0.00,0.00,VWS V14.00,2013-12-10 09:38:00,
2013-12-10 02:39:00,14.8,11.1,31.35,WNW,300,0.0,3.0,85,0.00,,,0.00,0.00,VWS V14.00,2013-12-10 09:39:00,
2013-12-10 02:40:00,14.8,11.4,31.35,WNW,300,0.0,3.0,86,0.00,,,0.00,0.00,VWS V14.00,2013-12-10 09:40:00,
2013-12-10 02:41:00,14.9,11.5,31.35,WNW,300,0.0,3.0,86,0.00,,,0.00,0.00,VWS V14.00,2013-12-10 09:41:00,
2013-12-10 02:42:00,14.9,11.5,31.35,WNW,299,0.0,3.0,86,0.00,,,0.00,0.00,VWS V14.00,2013-12-10 09:42:00,
2013-12-10 02:43:00,14.9,11.5,31.35,WNW,300,3.0,4.0,86,0.00,,,0.00,0.00,VWS V14.00,2013-12-10 09:43:00,
2013-12-10 02:44:00,14.9,11.2,31.36,WNW,300,1.0,4.0,85,0.00,,,0.00,0.00,VWS V14.00,2013-12-10 09:44:00,
2013-12-10 02:45:00,14.9,11.2,31.36,WNW,300,0.0,4.0,85,0.00,,,0.00,0.00,VWS V14.00,2013-12-10 09:45:00,
2013-12-10 02:46:00,14.9,11.2,31.36,WNW,300,0.0,0.0,85,0.00,,,0.00,0.00,VWS V14.00,2013-12-10 09:46:00,
2013-12-10 02:47:00,14.9,11.2,31.35,WNW,300,0.0,0.0,85,0.00,,,0.00,0.00,VWS V14.00,2013-12-10 09:47:00,
2013-12-10 02:48:00,14.8,10.9,31.35,WNW,300,0.0,0.0,84,0.00,,,0.00,0.00,VWS V14.00,2013-12-10 09:48:00,
2013-12-10 02:49:00,14.8,10.9,31.35,WNW,300,0.0,0.0,84,0.00,,,0.00,0.00,VWS V14.00,2013-12-10 09:49:00,
2013-12-10 02:50:00,14.8,10.9,31.35,WNW,300,0.0,0.0,84,0.00,,,0.00,0.00,VWS V14.00,2013-12-10 09:50:00,
2013-12-10 02:51:00,14.7,10.8,31.35,WNW,300,0.0,0.0,84,0.00,,,0.00,0.00,VWS V14.00,2013-12-10 09:51:00,
2013-12-10 02:52:00,14.8,10.9,31.35,WNW,300,3.0,4.0,84,0.00,,,0.00,0.00,VWS V14.00,2013-12-10 09:52:00,
2013-12-10 02:53:00,14.7,10.8,31.36,WNW,300,1.0,4.0,84,0.00,,,0.00,0.00,VWS V14.00,2013-12-10 09:53:00,
2013-12-10 02:54:00,14.7,10.8,31.36,WNW,300,0.0,4.0,84,0.00,,,0.00,0.00,VWS V14.00,2013-12-10 09:54:00,
2013-12-10 02:55:00,14.7,10.8,31.36,WNW,300,0.0,4.0,84,0.00,,,0.00,0.00,VWS V14.00,2013-12-10 09:55:00,
2013-12-10 02:56:00,14.6,10.7,31.36,WNW,300,0.0,4.0,84,0.00,,,0.00,0.00,VWS V14.00,2013-12-10 09:56:00,
2013-12-10 02:57:00,14.6,10.7,31.35,WNW,300,0.0,4.0,84,0.00,,,0.00,0.00,VWS V14.00,2013-12-10 09:57:00,
2013-12-10 02:58:00,14.5,10.6,31.35,WNW,300,0.0,4.0,84,0.00,,,0.00,0.00,VWS V14.00,2013-12-10 09:58:00,
2013-12-10 02:59:00,14.6,10.7,31.35,WNW,300,0.0,4.0,84,0.00,,,0.00,0.00,VWS V14.00,2013-12-10 09:59:00,
2013-12-10 03:00:00,14.6,10.9,31.35,WNW,300,0.0,4.0,85,0.00,,,0.00,0.00,VWS V14.00,2013-12-10 10:00:00,
2013-12-10 03:01:00,14.7,11.0,31.35,WNW,300,0.0,0.0,85,0.00,,,0.00,0.00,VWS V14.00,2013-12-10 10:01:00,
2013-12-10 03:02:00,14.7,11.0,31.35,WNW,300,5.0,5.0,85,0.00,,,0.00,0.00,VWS V14.00,2013-12-10 10:02:00,
2013-12-10 03:03:00,14.8,11.1,31.35,NW,304,5.0,5.0,85,0.00,,,0.00,0.00,VWS V14.00,2013-12-10 10:03:00,
2013-12-10 03:04:00,14.7,11.0,31.35,WNW,299,4.0,6.0,85,0.00,,,0.00,0.00,VWS V14.00,2013-12-10 10:04:00,
2013-12-10 03:05:00,14.6,10.9,31.35,WNW,300,3.0,7.0,85,0.00,,,0.00,0.00,VWS V14.00,2013-12-10 10:05:00,
2013-12-10 03:06:00,14.6,10.9,31.35,WNW,300,0.0,7.0,85,0.00,,,0.00,0.00,VWS V14.00,2013-12-10 10:06:00,
2013-12-10 03:07:00,14.5,10.6,31.35,WNW,300,0.0,7.0,84,0.00,,,0.00,0.00,VWS V14.00,2013-12-10 10:07:00,
2013-12-10 03:08:00,14.5,10.6,31.35,WNW,300,0.0,7.0,84,0.00,,,0.00,0.00,VWS V14.00,2013-12-10 10:08:00,
2013-12-10 03:09:00,14.4,10.5,31.35,WNW,300,0.0,7.0,84,0.00,,,0.00,0.00,VWS V14.00,2013-12-10 10:09:00,
2013-12-10 03:10:00,14.4,10.5,31.36,WNW,300,0.0,7.0,84,0.00,,,0.00,0.00,VWS V14.00,2013-12-10 10:10:00,
2013-12-10 03:11:00,14.3,10.4,31.36,WNW,300,0.0,7.0,84,0.00,,,0.00,0.00,VWS V14.00,2013-12-10 10:11:00,
2013-12-10 03:12:00,14.3,10.4,31.36,WNW,300,0.0,7.0,84,0.00,,,0.00,0.00,VWS V14.00,2013-12-10 10:12:00,
2013-12-10 03:13:00,14.3,10.4,31.36,WNW,299,0.0,7.0,84,0.00,,,0.00,0.00,VWS V14.00,2013-12-10 10:13:00,
2013-12-10 03:14:00,14.2,10.3,31.36,WNW,300,0.0,7.0,84,0.00,,,0.00,0.00,VWS V14.00,2013-12-10 10:14:00,
2013-12-10 03:15:00,14.1,10.2,31.36,WNW,300,3.0,7.0,84,0.00,,,0.00,0.00,VWS V14.00,2013-12-10 10:15:00,
2013-12-10 03:16:00,14.1,10.2,31.36,WNW,300,3.0,4.0,84,0.00,,,0.00,0.00,VWS V14.00,2013-12-10 10:16:00,
2013-12-10 03:17:00,14.0,10.1,31.36,WNW,300,2.0,4.0,84,0.00,,,0.00,0.00,VWS V14.00,2013-12-10 10:17:00,
2013-12-10 03:18:00,14.0,10.1,31.36,WNW,303,3.0,4.0,84,0.00,,,0.00,0.00,VWS V14.00,2013-12-10 10:18:00,
2013-12-10 03:19:00,13.9,10.0,31.36,NW,306,1.0,4.0,84,0.00,,,0.00,0.00,VWS V14.00,2013-12-10 10:19:00,
2013-12-10 03:20:00,13.9,10.0,31.36,NW,306,0.0,4.0,84,0.00,,,0.00,0.00,VWS V14.00,2013-12-10 10:20:00,
2013-12-10 03:21:00,13.9,10.0,31.36,NW,306,0.0,4.0,84,0.00,,,0.00,0.00,VWS V14.00,2013-12-10 10:21:00,
2013-12-10 03:22:00,13.9,10.0,31.36,NW,309,3.0,4.0,84,0.00,,,0.00,0.00,VWS V14.00,2013-12-10 10:22:00,
2013-12-10 03:23:00,13.8,9.9,31.36,NW,309,2.0,4.0,84,0.00,,,0.00,0.00,VWS V14.00,2013-12-10 10:23:00,
2013-12-10 03:24:00,13.8,9.9,31.36,NW,311,2.0,4.0,84,0.00,,,0.00,0.00,VWS V14.00,2013-12-10 10:24:00,
2013-12-10 03:25:00,13.8,9.9,31.36,North,355,0.0,4.0,84,0.00,,,0.00,0.00,VWS V14.00,2013-12-10 10:25:00,
2013-12-10 03:26:00,13.7,10.0,31.36,North,355,0.0,4.0,85,0.00,,,0.00,0.00,VWS V14.00,2013-12-10 10:26:00,
2013-12-10 03:27:00,13.8,10.1,31.36,North,355,0.0,4.0,85,0.00,,,0.00,0.00,VWS V14.00,2013-12-10 10:27:00,
2013-12-10 03:28:00,13.8,10.1,31.36,North,355,0.0,4.0,85,0.00,,,0.00,0.00,VWS V14.00,2013-12-10 10:28:00,
2013-12-10 03:29:00,13.8,10.1,31.36,North,355,0.0,4.0,85,0.00,,,0.00,0.00,VWS V14.00,2013-12-10 10:29:00,
2013-12-10 03:30:00,13.8,10.1,31.36,North,355,4.0,4.0,85,0.00,,,0.00,0.00,VWS V14.00,2013-12-10 10:30:00,
2013-12-10 03:31:00,13.8,10.1,31.36,North,360,3.0,6.0,85,0.00,,,0.00,0.00,VWS V14.00,2013-12-10 10:31:00,
2013-12-10 03:32:00,13.8,10.1,31.36,North,360,4.0,6.0,85,0.00,,,0.00,0.00,VWS V14.00,2013-12-10 10:32:00,
2013-12-10 03:33:00,13.8,10.1,31.36,North,360,3.0,6.0,85,0.00,,,0.00,0.00,VWS V14.00,2013-12-10 10:33:00,
2013-12-10 03:34:00,13.8,10.1,31.36,North,360,3.0,6.0,85,0.00,,,0.00,0.00,VWS V14.00,2013-12-10 10:34:00,
2013-12-10 03:35:00,13.8,10.1,31.36,NNW,348,3.0,6.0,85,0.00,,,0.00,0.00,VWS V14.00,2013-12-10 10:35:00,
2013-12-10 03:36:00,13.8,10.1,31.36,NNW,345,3.0,6.0,85,0.00,,,0.00,0.00,VWS V14.00,2013-12-10 10:36:00,
2013-12-10 03:37:00,13.8,10.1,31.36,NNW,346,3.0,6.0,85,0.00,,,0.00,0.00,VWS V14.00,2013-12-10 10:37:00,
2013-12-10 03:38:00,13.8,10.1,31.36,NNW,346,1.0,6.0,85,0.00,,,0.00,0.00,VWS V14.00,2013-12-10 10:38:00,
2013-12-10 03:39:00,13.8,10.1,31.36,NNW,346,0.0,6.0,85,0.00,,,0.00,0.00,VWS V14.00,2013-12-10 10:39:00,
2013-12-10 03:40:00,13.8,10.1,31.35,NNW,345,0.0,6.0,85,0.00,,,0.00,0.00,VWS V14.00,2013-12-10 10:40:00,
2013-12-10 03:41:00,13.8,10.1,31.35,NNW,346,0.0,6.0,85,0.00,,,0.00,0.00,VWS V14.00,2013-12-10 10:41:00,
2013-12-10 03:42:00,13.8,10.1,31.35,NNW,345,0.0,6.0,85,0.00,,,0.00,0.00,VWS V14.00,2013-12-10 10:42:00,
2013-12-10 03:43:00,13.8,10.1,31.35,NNW,346,0.0,6.0,85,0.00,,,0.00,0.00,VWS V14.00,2013-12-10 10:43:00,
2013-12-10 03:44:00,13.8,10.1,31.35,NNW,345,0.0,6.0,85,0.00,,,0.00,0.00,VWS V14.00,2013-12-10 10:44:00,
2013-12-10 03:45:00,13.8,10.1,31.35,NNW,346,0.0,6.0,85,0.00,,,0.00,0.00,VWS V14.00,2013-12-10 10:45:00,
2013-12-10 03:46:00,13.8,10.1,31.35,NNW,346,0.0,0.0,85,0.00,,,0.00,0.00,VWS V14.00,2013-12-10 10:46:00,
2013-12-10 03:47:00,13.9,10.2,31.35,NNW,346,0.0,0.0,85,0.00,,,0.00,0.00,VWS V14.00,2013-12-10 10:47:00,
2013-12-10 03:48:00,13.9,10.5,31.35,NNW,345,0.0,0.0,86,0.00,,,0.00,0.00,VWS V14.00,2013-12-10 10:48:00,
2013-12-10 03:49:00,14.0,10.6,31.35,NNW,346,0.0,0.0,86,0.00,,,0.00,0.00,VWS V14.00,2013-12-10 10:49:00,
2013-12-10 03:50:00,14.1,10.7,31.35,NNW,345,1.0,1.0,86,0.00,,,0.00,0.00,VWS V14.00,2013-12-10 10:50:00,
2013-12-10 03:51:00,14.2,10.8,31.35,North,351,5.0,5.0,86,0.00,,,0.00,0.00,VWS V14.00,2013-12-10 10:51:00,
2013-12-10 03:52:00,14.2,10.8,31.35,North,351,1.0,5.0,86,0.00,,,0.00,0.00,VWS V14.00,2013-12-10 10:52:00,
2013-12-10 03:53:00,14.3,10.9,31.35,North,351,3.0,5.0,86,0.00,,,0.00,0.00,VWS V14.00,2013-12-10 10:53:00,
2013-12-10 03:54:00,14.3,10.9,31.35,North,350,3.0,5.0,86,0.00,,,0.00,0.00,VWS V14.00,2013-12-10 10:54:00,
2013-12-10 03:55:00,14.3,10.9,31.35,North,351,3.0,5.0,86,0.00,,,0.00,0.00,VWS V14.00,2013-12-10 10:55:00,
2013-12-10 03:56:00,14.3,10.9,31.35,North,350,3.0,5.0,86,0.00,,,0.00,0.00,VWS V14.00,2013-12-10 10:56:00,
2013-12-10 03:57:00,14.3,10.9,31.35,North,351,0.0,5.0,86,0.00,,,0.00,0.00,VWS V14.00,2013-12-10 10:57:00,
2013-12-10 03:58:00,14.3,10.9,31.35,North,351,0.0,5.0,86,0.00,,,0.00,0.00,VWS V14.00,2013-12-10 10:58:00,
2013-12-10 03:59:00,14.3,10.9,31.35,NW,322,6.0,6.0,86,0.00,,,0.00,0.00,VWS V14.00,2013-12-10 10:59:00,
2013-12-10 04:00:00,14.3,10.9,31.36,NW,325,6.0,7.0,86,0.00,,,0.00,0.00,VWS V14.00,2013-12-10 11:00:00,
2013-12-10 04:01:00,14.3,10.6,31.36,NNW,331,3.0,6.0,85,0.00,,,0.00,0.00,VWS V14.00,2013-12-10 11:01:00,
2013-12-10 04:02:00,14.3,10.6,31.36,NNE,19,2.0,6.0,85,0.00,,,0.00,0.00,VWS V14.00,2013-12-10 11:02:00,
2013-12-10 04:03:00,14.3,10.6,31.35,NNE,19,0.0,6.0,85,0.00,,,0.00,0.00,VWS V14.00,2013-12-10 11:03:00,
2013-12-10 04:04:00,14.3,10.6,31.35,NNE,19,0.0,6.0,85,0.00,,,0.00,0.00,VWS V14.00,2013-12-10 11:04:00,
2013-12-10 04:05:00,14.3,10.6,31.35,NNE,19,0.0,6.0,85,0.00,,,0.00,0.00,VWS V14.00,2013-12-10 11:05:00,
2013-12-10 04:06:00,14.3,10.6,31.36,NNE,19,0.0,6.0,85,0.00,,,0.00,0.00,VWS V14.00,2013-12-10 11:06:00,
2013-12-10 04:07:00,14.3,10.6,31.36,NNE,17,0.0,6.0,85,0.00,,,0.00,0.00,VWS V14.00,2013-12-10 11:07:00,
2013-12-10 04:08:00,14.3,10.6,31.36,NNE,17,0.0,6.0,85,0.00,,,0.00,0.00,VWS V14.00,2013-12-10 11:08:00,
2013-12-10 04:09:00,14.3,10.6,31.36,NNE,17,0.0,6.0,85,0.00,,,0.00,0.00,VWS V14.00,2013-12-10 11:09:00,
2013-12-10 04:10:00,14.4,10.7,31.36,NNE,17,0.0,6.0,85,0.00,,,0.00,0.00,VWS V14.00,2013-12-10 11:10:00,
2013-12-10 04:11:00,14.5,11.1,31.36,NNE,17,0.0,6.0,86,0.00,,,0.00,0.00,VWS V14.00,2013-12-10 11:11:00,
2013-12-10 04:12:00,14.5,11.1,31.35,NNE,17,0.0,6.0,86,0.00,,,0.00,0.00,VWS V14.00,2013-12-10 11:12:00,
2013-12-10 04:13:00,14.6,11.2,31.35,NNE,17,0.0,6.0,86,0.00,,,0.00,0.00,VWS V14.00,2013-12-10 11:13:00,
2013-12-10 04:14:00,14.8,11.4,31.35,North,360,0.0,6.0,86,0.00,,,0.00,0.00,VWS V14.00,2013-12-10 11:14:00,
2013-12-10 04:15:00,14.9,11.5,31.35,NW,318,11.0,11.0,86,0.00,,,0.00,0.00,VWS V14.00,2013-12-10 11:15:00,
2013-12-10 04:16:00,14.9,11.5,31.35,NNW,334,6.0,12.0,86,0.00,,,0.00,0.00,VWS V14.00,2013-12-10 11:16:00,
2013-12-10 04:17:00,14.9,11.5,31.35,NNE,22,3.0,12.0,86,0.00,,,0.00,0.00,VWS V14.00,2013-12-10 11:17:00,
2013-12-10 04:18:00,14.9,11.2,31.35,NNE,28,0.0,12.0,85,0.00,,,0.00,0.00,VWS V14.00,2013-12-10 11:18:00,
2013-12-10 04:19:00,14.8,11.1,31.35,NNE,28,0.0,12.0,85,0.00,,,0.00,0.00,VWS V14.00,2013-12-10 11:19:00,
2013-12-10 04:20:00,14.8,11.1,31.35,NNE,28,0.0,12.0,85,0.00,,,0.00,0.00,VWS V14.00,2013-12-10 11:20:00,
2013-12-10 04:21:00,14.8,11.1,31.35,NNE,28,0.0,12.0,85,0.00,,,0.00,0.00,VWS V14.00,2013-12-10 11:21:00,
2013-12-10 04:22:00,14.8,11.1,31.34,NNE,28,2.0,12.0,85,0.00,,,0.00,0.00,VWS V14.00,2013-12-10 11:22:00,
2013-12-10 04:23:00,14.8,11.1,31.34,NW,317,6.0,12.0,85,0.00,,,0.00,0.00,VWS V14.00,2013-12-10 11:23:00,
2013-12-10 04:24:00,14.8,11.1,31.35,WNW,302,5.0,12.0,85,0.00,,,0.00,0.00,VWS V14.00,2013-12-10 11:24:00,
2013-12-10 04:25:00,14.9,11.2,31.35,NW,325,6.0,12.0,85,0.00,,,0.00,0.00,VWS V14.00,2013-12-10 11:25:00,
2013-12-10 04:26:00,14.8,11.1,31.35,NNW,336,4.0,12.0,85,0.00,,,0.00,0.00,VWS V14.00,2013-12-10 11:26:00,
2013-12-10 04:27:00,14.9,11.2,31.35,NW,307,5.0,12.0,85,0.00,,,0.00,0.00,VWS V14.00,2013-12-10 11:27:00,
2013-12-10 04:28:00,14.9,11.2,31.35,NW,326,7.0,12.0,85,0.00,,,0.00,0.00,VWS V14.00,2013-12-10 11:28:00,
2013-12-10 04:29:00,14.9,11.2,31.35,NNW,340,6.0,12.0,85,0.00,,,0.00,0.00,VWS V14.00,2013-12-10 11:29:00,
2013-12-10 04:30:00,14.8,11.1,31.35,NNW,342,4.0,12.0,85,0.00,,,0.00,0.00,VWS V14.00,2013-12-10 11:30:00,
2013-12-10 04:31:00,14.8,11.1,31.35,North,360,0.0,6.0,85,0.00,,,0.00,0.00,VWS V14.00,2013-12-10 11:31:00,
2013-12-10 04:32:00,14.7,11.0,31.35,North,360,0.0,6.0,85,0.00,,,0.00,0.00,VWS V14.00,2013-12-10 11:32:00,
2013-12-10 04:33:00,14.7,11.0,31.35,North,360,0.0,6.0,85,0.00,,,0.00,0.00,VWS V14.00,2013-12-10 11:33:00,
2013-12-10 04:34:00,14.7,11.0,31.34,North,360,1.0,6.0,85,0.00,,,0.00,0.00,VWS V14.00,2013-12-10 11:34:00,
2013-12-10 04:35:00,14.7,11.0,31.35,North,360,1.0,6.0,85,0.00,,,0.00,0.00,VWS V14.00,2013-12-10 11:35:00,
2013-12-10 04:36:00,14.7,11.0,31.35,North,9,0.0,6.0,85,0.00,,,0.00,0.00,VWS V14.00,2013-12-10 11:36:00,
2013-12-10 04:37:00,14.7,11.0,31.35,NW,306,6.0,6.0,85,0.00,,,0.00,0.00,VWS V14.00,2013-12-10 11:37:00,
2013-12-10 04:38:00,14.7,11.0,31.35,NNW,335,3.0,11.0,85,0.00,,,0.00,0.00,VWS V14.00,2013-12-10 11:38:00,
2013-12-10 04:39:00,14.8,11.1,31.35,ENE,57,2.0,11.0,85,0.00,,,0.00,0.00,VWS V14.00,2013-12-10 11:39:00,
2013-12-10 04:40:00,14.9,11.5,31.34,ENE,64,1.0,11.0,86,0.00,,,0.00,0.00,VWS V14.00,2013-12-10 11:40:00,
2013-12-10 04:41:00,15.0,11.6,31.34,ENE,64,0.0,11.0,86,0.00,,,0.00,0.00,VWS V14.00,2013-12-10 11:41:00,
2013-12-10 04:42:00,15.2,11.8,31.35,ENE,64,0.0,11.0,86,0.00,,,0.00,0.00,VWS V14.00,2013-12-10 11:42:00,
2013-12-10 04:43:00,15.2,11.8,31.35,ENE,64,0.0,11.0,86,0.00,,,0.00,0.00,VWS V14.00,2013-12-10 11:43:00,
2013-12-10 04:44:00,15.3,11.9,31.35,ENE,64,0.0,11.0,86,0.00,,,0.00,0.00,VWS V14.00,2013-12-10 11:44:00,
2013-12-10 04:45:00,15.3,11.9,31.35,ENE,64,0.0,11.0,86,0.00,,,0.00,0.00,VWS V14.00,2013-12-10 11:45:00,
2013-12-10 04:46:00,15.4,12.0,31.35,ENE,64,0.0,0.0,86,0.00,,,0.00,0.00,VWS V14.00,2013-12-10 11:46:00,
2013-12-10 04:47:00,15.4,12.0,31.35,ENE,64,0.0,0.0,86,0.00,,,0.00,0.00,VWS V14.00,2013-12-10 11:47:00,
2013-12-10 04:48:00,15.4,12.2,31.35,West,277,5.0,5.0,87,0.00,,,0.00,0.00,VWS V14.00,2013-12-10 11:48:00,
2013-12-10 04:49:00,15.5,12.1,31.35,West,277,0.0,5.0,86,0.00,,,0.00,0.00,VWS V14.00,2013-12-10 11:49:00,
2013-12-10 04:50:00,15.5,12.1,31.35,West,278,0.0,5.0,86,0.00,,,0.00,0.00,VWS V14.00,2013-12-10 11:50:00,
2013-12-10 04:51:00,15.5,12.1,31.35,West,277,0.0,5.0,86,0.00,,,0.00,0.00,VWS V14.00,2013-12-10 11:51:00,
2013-12-10 04:52:00,15.6,12.2,31.35,West,278,0.0,5.0,86,0.00,,,0.00,0.00,VWS V14.00,2013-12-10 11:52:00,
2013-12-10 04:53:00,15.7,12.3,31.34,West,279,0.0,5.0,86,0.00,,,0.00,0.00,VWS V14.00,2013-12-10 11:53:00,
2013-12-10 04:54:00,15.7,12.3,31.35,West,279,0.0,5.0,86,0.00,,,0.00,0.00,VWS V14.00,2013-12-10 11:54:00,
2013-12-10 04:55:00,15.8,12.4,31.35,West,279,0.0,5.0,86,0.00,,,0.00,0.00,VWS V14.00,2013-12-10 11:55:00,
2013-12-10 04:56:00,15.8,12.4,31.35,West,279,1.0,5.0,86,0.00,,,0.00,0.00,VWS V14.00,2013-12-10 11:56:00,
2013-12-10 04:57:00,15.8,12.4,31.35,West,279,0.0,5.0,86,0.00,,,0.00,0.00,VWS V14.00,2013-12-10 11:57:00,
2013-12-10 04:58:00,15.8,12.4,31.35,West,279,0.0,5.0,86,0.00,,,0.00,0.00,VWS V14.00,2013-12-10 11:58:00,
2013-12-10 04:59:00,15.7,12.0,31.35,West,279,0.0,5.0,85,0.00,,,0.00,0.00,VWS V14.00,2013-12-10 11:59:00,
2013-12-10 05:00:00,15.7,12.0,31.35,West,279,0.0,5.0,85,0.00,,,0.00,0.00,VWS V14.00,2013-12-10 12:00:00,
2013-12-10 05:01:00,15.7,12.0,31.35,West,279,0.0,0.0,85,0.00,,,0.00,0.00,VWS V14.00,2013-12-10 12:01:00,
2013-12-10 05:02:00,15.7,12.0,31.35,West,279,0.0,0.0,85,0.00,,,0.00,0.00,VWS V14.00,2013-12-10 12:02:00,
2013-12-10 05:03:00,15.7,12.0,31.35,West,279,0.0,0.0,85,0.00,,,0.00,0.00,VWS V14.00,2013-12-10 12:03:00,
2013-12-10 05:04:00,15.7,12.0,31.35,West,279,0.0,0.0,85,0.00,,,0.00,0.00,VWS V14.00,2013-12-10 12:04:00,
2013-12-10 05:05:00,15.7,12.0,31.35,West,279,0.0,0.0,85,0.00,,,0.00,0.00,VWS V14.00,2013-12-10 12:05:00,
2013-12-10 05:06:00,15.9,12.5,31.35,SE,136,1.0,3.0,86,0.00,,,0.00,0.00,VWS V14.00,2013-12-10 12:06:00,
2013-12-10 05:07:00,16.2,12.8,31.35,SE,135,0.0,3.0,86,0.00,,,0.00,0.00,VWS V14.00,2013-12-10 12:07:00,
2013-12-10 05:08:00,16.3,13.1,31.34,WNW,300,3.0,4.0,87,0.00,,,0.00,0.00,VWS V14.00,2013-12-10 12:08:00,
2013-12-10 05:09:00,16.4,13.2,31.35,NW,306,2.0,4.0,87,0.00,,,0.00,0.00,VWS V14.00,2013-12-10 12:09:00,
2013-12-10 05:10:00,16.4,12.9,31.35,NW,306,2.0,4.0,86,0.00,,,0.00,0.00,VWS V14.00,2013-12-10 12:10:00,
2013-12-10 05:11:00,16.4,12.9,31.35,NW,324,6.0,6.0,86,0.00,,,0.00,0.00,VWS V14.00,2013-12-10 12:11:00,
2013-12-10 05:12:00,16.5,13.1,31.35,NW,321,2.0,8.0,86,0.00,,,0.00,0.00,VWS V14.00,2013-12-10 12:12:00,
2013-12-10 05:13:00,16.4,12.9,31.35,NW,321,0.0,8.0,86,0.00,,,0.00,0.00,VWS V14.00,2013-12-10 12:13:00,
2013-12-10 05:14:00,16.5,13.1,31.35,East,86,1.0,8.0,86,0.00,,,0.00,0.00,VWS V14.00,2013-12-10 12:14:00,
2013-12-10 05:15:00,16.5,12.8,31.34,ESE,120,1.0,8.0,85,0.00,,,0.00,0.00,VWS V14.00,2013-12-10 12:15:00,
2013-12-10 05:16:00,16.6,12.9,31.34,SE,138,0.0,3.0,85,0.00,,,0.00,0.00,VWS V14.00,2013-12-10 12:16:00,
2013-12-10 05:17:00,16.6,12.9,31.34,North,349,5.0,6.0,85,0.00,,,0.00,0.00,VWS V14.00,2013-12-10 12:17:00,
2013-12-10 05:18:00,16.6,12.9,31.35,North,350,1.0,6.0,85,0.00,,,0.00,0.00,VWS V14.00,2013-12-10 12:18:00,
2013-12-10 05:19:00,16.6,12.9,31.35,North,350,2.0,6.0,85,0.00,,,0.00,0.00,VWS V14.00,2013-12-10 12:19:00,
2013-12-10 05:20:00,16.6,12.9,31.35,NNW,347,5.0,6.0,85,0.00,,,0.00,0.00,VWS V14.00,2013-12-10 12:20:00,
2013-12-10 05:21:00,16.5,12.8,31.35,NNW,348,1.0,6.0,85,0.00,,,0.00,0.00,VWS V14.00,2013-12-10 12:21:00,
2013-12-10 05:22:00,16.5,12.8,31.35,North,350,2.0,6.0,85,0.00,,,0.00,0.00,VWS V14.00,2013-12-10 12:22:00,
2013-12-10 05:23:00,16.4,12.7,31.35,North,355,2.0,6.0,85,0.00,,,0.00,0.00,VWS V14.00,2013-12-10 12:23:00,
2013-12-10 05:24:00,16.4,12.7,31.36,North,360,1.0,6.0,85,0.00,,,0.00,0.00,VWS V14.00,2013-12-10 12:24:00,
2013-12-10 05:25:00,16.5,12.8,31.36,North,360,0.0,6.0,85,0.00,,,0.00,0.00,VWS V14.00,2013-12-10 12:25:00,
2013-12-10 05:26:00,16.5,12.8,31.35,North,360,0.0,6.0,85,0.00,,,0.00,0.00,VWS V14.00,2013-12-10 12:26:00,
2013-12-10 05:27:00,16.6,12.9,31.35,North,360,0.0,6.0,85,0.00,,,0.00,0.00,VWS V14.00,2013-12-10 12:27:00,
2013-12-10 05:28:00,16.6,12.9,31.35,North,360,0.0,6.0,85,0.00,,,0.00,0.00,VWS V14.00,2013-12-10 12:28:00,
2013-12-10 05:29:00,16.7,13.0,31.35,North,360,0.0,6.0,85,0.00,,,0.00,0.00,VWS V14.00,2013-12-10 12:29:00,
2013-12-10 05:30:00,16.8,13.1,31.35,North,355,1.0,6.0,85,0.00,,,0.00,0.00,VWS V14.00,2013-12-10 12:30:00,
2013-12-10 05:31:00,16.8,13.4,31.35,NNW,346,3.0,6.0,86,0.00,,,0.00,0.00,VWS V14.00,2013-12-10 12:31:00,
2013-12-10 05:32:00,17.0,13.5,31.36,North,349,2.0,6.0,86,0.00,,,0.00,0.00,VWS V14.00,2013-12-10 12:32:00,
2013-12-10 05:33:00,17.0,13.5,31.36,North,349,0.0,6.0,86,0.00,,,0.00,0.00,VWS V14.00,2013-12-10 12:33:00,
2013-12-10 05:34:00,17.1,13.4,31.36,North,349,1.0,6.0,85,0.00,,,0.00,0.00,VWS V14.00,2013-12-10 12:34:00,
2013-12-10 05:35:00,17.1,13.4,31.36,NW,306,7.0,7.0,85,0.00,,,0.00,0.00,VWS V14.00,2013-12-10 12:35:00,
2013-12-10 05:36:00,17.1,13.4,31.36,NW,306,6.0,9.0,85,0.00,,,0.00,0.00,VWS V14.00,2013-12-10 12:36:00,
2013-12-10 05:37:00,17.1,13.4,31.36,NW,315,6.0,9.0,85,0.00,,,0.00,0.00,VWS V14.00,2013-12-10 12:37:00,
2013-12-10 05:38:00,17.0,13.0,31.36,NW,314,2.0,9.0,84,0.00,,,0.00,0.00,VWS V14.00,2013-12-10 12:38:00,
2013-12-10 05:39:00,16.9,12.6,31.36,NW,314,2.0,9.0,83,0.00,,,0.00,0.00,VWS V14.00,2013-12-10 12:39:00,
2013-12-10 05:40:00,16.8,12.5,31.36,NW,315,5.0,9.0,83,0.00,,,0.00,0.00,VWS V14.00,2013-12-10 12:40:00,
2013-12-10 05:41:00,16.8,12.5,31.36,NNE,17,3.0,9.0,83,0.00,,,0.00,0.00,VWS V14.00,2013-12-10 12:41:00,
2013-12-10 05:42:00,16.7,12.4,31.36,NNE,23,1.0,9.0,83,0.00,,,0.00,0.00,VWS V14.00,2013-12-10 12:42:00,
2013-12-10 05:43:00,16.6,12.4,31.36,NNE,22,0.0,9.0,83,0.00,,,0.00,0.00,VWS V14.00,2013-12-10 12:43:00,
2013-12-10 05:44:00,16.6,12.4,31.35,NNE,22,0.0,9.0,83,0.00,,,0.00,0.00,VWS V14.00,2013-12-10 12:44:00,
2013-12-10 05:45:00,16.7,12.7,31.36,NNE,22,0.0,9.0,84,0.00,,,0.00,0.00,VWS V14.00,2013-12-10 12:45:00,
2013-12-10 05:46:00,16.8,12.8,31.35,NNE,23,0.0,1.0,84,0.00,,,0.00,0.00,VWS V14.00,2013-12-10 12:46:00,
2013-12-10 05:47:00,16.9,12.9,31.35,NNE,23,0.0,1.0,84,0.00,,,0.00,0.00,VWS V14.00,2013-12-10 12:47:00,
2013-12-10 05:48:00,17.0,13.3,31.36,NNE,23,0.0,1.0,85,0.00,,,0.00,0.00,VWS V14.00,2013-12-10 12:48:00,
2013-12-10 05:49:00,17.2,13.5,31.36,NNE,23,0.0,1.0,85,0.00,,,0.00,0.00,VWS V14.00,2013-12-10 12:49:00,
2013-12-10 05:50:00,17.4,13.7,31.36,NW,322,4.0,4.0,85,0.00,,,0.00,0.00,VWS V14.00,2013-12-10 12:50:00,
2013-12-10 05:51:00,17.6,13.9,31.36,NNW,343,4.0,5.0,85,0.00,,,0.00,0.00,VWS V14.00,2013-12-10 12:51:00,
2013-12-10 05:52:00,17.7,14.0,31.36,NNW,343,2.0,5.0,85,0.00,,,0.00,0.00,VWS V14.00,2013-12-10 12:52:00,
2013-12-10 05:53:00,17.9,14.2,31.36,NNW,343,2.0,5.0,85,0.00,,,0.00,0.00,VWS V14.00,2013-12-10 12:53:00,
2013-12-10 05:54:00,18.0,14.0,31.35,NNW,343,2.0,5.0,84,0.00,,,0.00,0.00,VWS V14.00,2013-12-10 12:54:00,
2013-12-10 05:55:00,18.1,14.1,31.36,NNW,343,1.0,5.0,84,0.00,,,0.00,0.00,VWS V14.00,2013-12-10 12:55:00,
2013-12-10 05:56:00,18.1,13.8,31.36,NNW,342,0.0,5.0,83,0.00,,,0.00,0.00,VWS V14.00,2013-12-10 12:56:00,
2013-12-10 05:57:00,18.1,13.8,31.36,NNW,342,3.0,5.0,83,0.00,,,0.00,0.00,VWS V14.00,2013-12-10 12:57:00,
2013-12-10 05:58:00,18.0,13.4,31.36,WNW,302,5.0,5.0,82,0.00,,,0.00,0.00,VWS V14.00,2013-12-10 12:58:00,
2013-12-10 05:59:00,18.0,13.4,31.36,WNW,300,0.0,5.0,82,0.00,,,0.00,0.00,VWS V14.00,2013-12-10 12:59:00,
2013-12-10 06:00:00,17.9,13.4,31.36,WNW,300,0.0,5.0,82,0.00,,,0.00,0.00,VWS V14.00,2013-12-10 13:00:00,
2013-12-10 06:01:00,17.8,13.0,31.36,WNW,300,0.0,0.0,81,0.00,,,0.00,0.00,VWS V14.00,2013-12-10 13:01:00,
2013-12-10 06:02:00,17.7,12.9,31.36,WNW,300,0.0,1.0,81,0.00,,,0.00,0.00,VWS V14.00,2013-12-10 13:02:00,
2013-12-10 06:03:00,17.5,12.7,31.36,WNW,300,0.0,2.0,81,0.00,,,0.00,0.00,VWS V14.00,2013-12-10 13:03:00,
2013-12-10 06:04:00,17.4,12.3,31.36,WNW,300,2.0,2.0,80,0.00,,,0.00,0.00,VWS V14.00,2013-12-10 13:04:00,
2013-12-10 06:05:00,17.2,12.1,31.36,NNW,333,1.0,7.0,80,0.00,,,0.00,0.00,VWS V14.00,2013-12-10 13:05:00,
2013-12-10 06:06:00,17.1,12.3,31.36,NW,325,0.0,7.0,81,0.00,,,0.00,0.00,VWS V14.00,2013-12-10 13:06:00,
2013-12-10 06:07:00,17.0,12.2,31.36,NW,324,0.0,7.0,81,0.00,,,0.00,0.00,VWS V14.00,2013-12-10 13:07:00,
2013-12-10 06:08:00,17.0,12.2,31.36,NW,323,0.0,7.0,81,0.00,,,0.00,0.00,VWS V14.00,2013-12-10 13:08:00,
2013-12-10 06:09:00,16.9,12.1,31.36,NW,324,0.0,7.0,81,0.00,,,0.00,0.00,VWS V14.00,2013-12-10 13:09:00,
2013-12-10 06:10:00,16.8,12.0,31.36,NW,323,0.0,7.0,81,0.00,,,0.00,0.00,VWS V14.00,2013-12-10 13:10:00,
2013-12-10 06:11:00,16.7,11.9,31.36,NW,324,2.0,7.0,81,0.00,,,0.00,0.00,VWS V14.00,2013-12-10 13:11:00,
2013-12-10 06:12:00,16.5,11.7,31.36,NW,323,0.0,7.0,81,0.00,,,0.00,0.00,VWS V14.00,2013-12-10 13:12:00,
2013-12-10 06:13:00,16.4,11.9,31.36,NW,323,0.0,7.0,82,0.00,,,0.00,0.00,VWS V14.00,2013-12-10 13:13:00,
2013-12-10 06:14:00,16.4,11.9,31.37,NW,323,0.0,7.0,82,0.00,,,0.00,0.00,VWS V14.00,2013-12-10 13:14:00,
2013-12-10 06:15:00,16.4,11.9,31.37,West,275,4.0,7.0,82,0.00,,,0.00,0.00,VWS V14.00,2013-12-10 13:15:00,
2013-12-10 06:16:00,16.3,11.8,31.38,West,271,2.0,4.0,82,0.00,,,0.00,0.00,VWS V14.00,2013-12-10 13:16:00,
2013-12-10 06:17:00,16.3,11.8,31.38,West,271,1.0,4.0,82,0.00,,,0.00,0.00,VWS V14.00,2013-12-10 13:17:00,
2013-12-10 06:18:00,16.3,12.1,31.37,NNW,332,1.0,4.0,83,0.00,,,0.00,0.00,VWS V14.00,2013-12-10 13:18:00,
2013-12-10 06:19:00,16.2,12.0,31.37,NE,38,1.0,4.0,83,0.00,,,0.00,0.00,VWS V14.00,2013-12-10 13:19:00,
2013-12-10 06:20:00,16.2,12.0,31.37,NE,38,0.0,4.0,83,0.00,,,0.00,0.00,VWS V14.00,2013-12-10 13:20:00,
2013-12-10 06:21:00,16.1,11.9,31.38,NE,38,0.0,4.0,83,0.00,,,0.00,0.00,VWS V14.00,2013-12-10 13:21:00,
2013-12-10 06:22:00,16.1,11.9,31.38,NE,38,0.0,4.0,83,0.00,,,0.00,0.00,VWS V14.00,2013-12-10 13:22:00,
2013-12-10 06:23:00,16.1,11.9,31.38,NE,38,0.0,4.0,83,0.00,,,0.00,0.00,VWS V14.00,2013-12-10 13:23:00,
2013-12-10 06:24:00,16.1,11.9,31.38,NE,38,0.0,4.0,83,0.00,,,0.00,0.00,VWS V14.00,2013-12-10 13:24:00,
2013-12-10 06:25:00,16.2,12.2,31.38,West,267,4.0,5.0,84,0.00,,,0.00,0.00,VWS V14.00,2013-12-10 13:25:00,
2013-12-10 06:26:00,16.2,12.2,31.38,West,265,0.0,5.0,84,0.00,,,0.00,0.00,VWS V14.00,2013-12-10 13:26:00,
2013-12-10 06:27:00,16.2,12.2,31.38,WNW,293,3.0,5.0,84,0.00,,,0.00,0.00,VWS V14.00,2013-12-10 13:27:00,
2013-12-10 06:28:00,16.2,12.2,31.38,WNW,293,0.0,5.0,84,0.00,,,0.00,0.00,VWS V14.00,2013-12-10 13:28:00,
2013-12-10 06:29:00,16.2,12.2,31.38,WNW,293,0.0,5.0,84,0.00,,,0.00,0.00,VWS V14.00,2013-12-10 13:29:00,
2013-12-10 06:30:00,16.2,12.2,31.38,WNW,293,0.0,5.0,84,0.00,,,0.00,0.00,VWS V14.00,2013-12-10 13:30:00,
2013-12-10 06:31:00,16.2,12.2,31.38,WNW,293,0.0,1.0,84,0.00,,,0.00,0.00,VWS V14.00,2013-12-10 13:31:00,
2013-12-10 06:32:00,16.2,12.2,31.38,WNW,293,0.0,1.0,84,0.00,,,0.00,0.00,VWS V14.00,2013-12-10 13:32:00,
2013-12-10 06:33:00,16.2,12.2,31.38,WNW,292,0.0,1.0,84,0.00,,,0.00,0.00,VWS V14.00,2013-12-10 13:33:00,
2013-12-10 06:34:00,16.2,12.2,31.38,WNW,292,0.0,1.0,84,0.00,,,0.00,0.00,VWS V14.00,2013-12-10 13:34:00,
2013-12-10 06:35:00,16.2,12.2,31.38,WNW,293,0.0,1.0,84,0.00,,,0.00,0.00,VWS V14.00,2013-12-10 13:35:00,
2013-12-10 06:36:00,16.2,12.2,31.38,WNW,293,0.0,1.0,84,0.00,,,0.00,0.00,VWS V14.00,2013-12-10 13:36:00,
2013-12-10 06:37:00,16.3,12.3,31.38,SSW,196,4.0,5.0,84,0.00,,,0.00,0.00,VWS V14.00,2013-12-10 13:37:00,
2013-12-10 06:38:00,16.3,12.3,31.39,SSW,194,1.0,5.0,84,0.00,,,0.00,0.00,VWS V14.00,2013-12-10 13:38:00,
2013-12-10 06:39:00,16.3,12.3,31.39,South,169,4.0,5.0,84,0.00,,,0.00,0.00,VWS V14.00,2013-12-10 13:39:00,
2013-12-10 06:40:00,16.3,12.3,31.39,SSE,157,2.0,5.0,84,0.00,,,0.00,0.00,VWS V14.00,2013-12-10 13:40:00,
2013-12-10 06:41:00,16.3,12.3,31.38,SSE,157,2.0,5.0,84,0.00,,,0.00,0.00,VWS V14.00,2013-12-10 13:41:00,
2013-12-10 06:42:00,16.4,12.4,31.39,SSE,153,2.0,5.0,84,0.00,,,0.00,0.00,VWS V14.00,2013-12-10 13:42:00,
2013-12-10 06:43:00,16.4,12.4,31.38,East,100,2.0,5.0,84,0.00,,,0.00,0.00,VWS V14.00,2013-12-10 13:43:00,
2013-12-10 06:44:00,16.5,12.8,31.38,East,101,3.0,5.0,85,0.00,,,0.00,0.00,VWS V14.00,2013-12-10 13:44:00,
2013-12-10 06:45:00,16.6,12.9,31.37,East,82,0.0,5.0,85,0.00,,,0.00,0.00,VWS V14.00,2013-12-10 13:45:00,
2013-12-10 06:46:00,16.7,13.0,31.37,NNW,336,2.0,6.0,85,0.00,,,0.00,0.00,VWS V14.00,2013-12-10 13:46:00,
2013-12-10 06:47:00,16.8,13.1,31.37,NNW,336,0.0,6.0,85,0.00,,,0.00,0.00,VWS V14.00,2013-12-10 13:47:00,
2013-12-10 06:48:00,16.8,13.1,31.38,NNW,336,0.0,6.0,85,0.00,,,0.00,0.00,VWS V14.00,2013-12-10 13:48:00,
2013-12-10 06:49:00,16.8,13.1,31.37,NNW,336,0.0,6.0,85,0.00,,,0.00,0.00,VWS V14.00,2013-12-10 13:49:00,
2013-12-10 06:50:00,16.9,13.2,31.37,NNW,336,0.0,6.0,85,0.00,,,0.00,0.00,VWS V14.00,2013-12-10 13:50:00,
2013-12-10 06:51:00,17.1,13.4,31.37,NNW,336,0.0,6.0,85,0.00,,,0.00,0.00,VWS V14.00,2013-12-10 13:51:00,
2013-12-10 06:52:00,17.2,13.5,31.37,SSW,204,0.0,6.0,85,0.00,,,0.00,0.00,VWS V14.00,2013-12-10 13:52:00,
2013-12-10 06:53:00,17.3,13.3,31.38,SSE,167,2.0,6.0,84,0.00,,,0.00,0.00,VWS V14.00,2013-12-10 13:53:00,
2013-12-10 06:54:00,17.4,13.4,31.38,SE,144,2.0,6.0,84,0.00,,,0.00,0.00,VWS V14.00,2013-12-10 13:54:00,
2013-12-10 06:55:00,17.6,13.6,31.37,SE,137,3.0,6.0,84,0.00,,,0.00,0.00,VWS V14.00,2013-12-10 13:55:00,
2013-12-10 06:56:00,17.7,13.7,31.37,SE,139,3.0,6.0,84,0.00,,,0.00,0.00,VWS V14.00,2013-12-10 13:56:00,
2013-12-10 06:57:00,17.9,13.9,31.38,SE,134,3.0,6.0,84,0.00,,,0.00,0.00,VWS V14.00,2013-12-10 13:57:00,
2013-12-10 06:58:00,18.0,13.7,31.38,SE,132,4.0,6.0,83,0.00,,,0.00,0.00,VWS V14.00,2013-12-10 13:58:00,
2013-12-10 06:59:00,18.2,13.9,31.38,SE,130,1.0,6.0,83,0.00,,,0.00,0.00,VWS V14.00,2013-12-10 13:59:00,
2013-12-10 07:00:00,18.3,14.0,31.38,SE,130,1.0,6.0,83,0.00,,,0.00,0.00,VWS V14.00,2013-12-10 14:00:00,
2013-12-10 07:01:00,18.5,14.2,31.38,SE,130,0.0,1.0,83,0.00,,,0.00,0.00,VWS V14.00,2013-12-10 14:01:00,
2013-12-10 07:02:00,18.6,14.3,31.36,SE,130,1.0,2.0,83,0.00,,,0.00,0.00,VWS V14.00,2013-12-10 14:02:00,
2013-12-10 07:03:00,18.7,14.4,31.37,SE,130,2.0,3.0,83,0.00,,,0.00,0.00,VWS V14.00,2013-12-10 14:03:00,
2013-12-10 07:04:00,18.8,14.5,31.37,SE,130,2.0,3.0,83,0.00,,,0.00,0.00,VWS V14.00,2013-12-10 14:04:00,
2013-12-10 07:05:00,18.9,14.6,31.37,SE,130,1.0,3.0,83,0.00,,,0.00,0.00,VWS V14.00,2013-12-10 14:05:00,
2013-12-10 07:06:00,18.9,14.6,31.37,SE,130,2.0,3.0,83,0.00,,,0.00,0.00,VWS V14.00,2013-12-10 14:06:00,
2013-12-10 07:07:00,19.0,14.7,31.37,SE,130,2.0,3.0,83,0.00,,,0.00,0.00,VWS V14.00,2013-12-10 14:07:00,
2013-12-10 07:08:00,19.1,14.8,31.37,SE,130,1.0,3.0,83,0.00,,,0.00,0.00,VWS V14.00,2013-12-10 14:08:00,
2013-12-10 07:09:00,19.1,14.5,31.37,SE,130,1.0,3.0,82,0.00,,,0.00,0.00,VWS V14.00,2013-12-10 14:09:00,
2013-12-10 07:10:00,19.2,14.6,31.37,SE,130,0.0,3.0,82,0.00,,,0.00,0.00,VWS V14.00,2013-12-10 14:10:00,
2013-12-10 07:11:00,19.3,14.7,31.37,SE,130,0.0,3.0,82,0.00,,,0.00,0.00,VWS V14.00,2013-12-10 14:11:00,
2013-12-10 07:12:00,19.3,14.7,31.38,SE,130,0.0,3.0,82,0.00,,,0.00,0.00,VWS V14.00,2013-12-10 14:12:00,
2013-12-10 07:13:00,19.4,14.8,31.38,SE,130,0.0,3.0,82,0.00,,,0.00,0.00,VWS V14.00,2013-12-10 14:13:00,
2013-12-10 07:14:00,19.4,14.8,31.38,SE,130,0.0,3.0,82,0.00,,,0.00,0.00,VWS V14.00,2013-12-10 14:14:00,
2013-12-10 07:15:00,19.5,14.9,31.38,SE,130,0.0,3.0,82,0.00,,,0.00,0.00,VWS V14.00,2013-12-10 14:15:00,
2013-12-10 07:16:00,19.6,15.0,31.38,SE,130,0.0,0.0,82,0.00,,,0.00,0.00,VWS V14.00,2013-12-10 14:16:00,
2013-12-10 07:17:00,19.7,15.1,31.38,SE,130,3.0,3.0,82,0.00,,,0.00,0.00,VWS V14.00,2013-12-10 14:17:00,
2013-12-10 07:18:00,19.7,15.1,31.38,SE,130,2.0,4.0,82,0.00,,,0.00,0.00,VWS V14.00,2013-12-10 14:18:00,
2013-12-10 07:19:00,19.7,14.8,31.38,SE,130,1.0,4.0,81,0.00,,,0.00,0.00,VWS V14.00,2013-12-10 14:19:00,
2013-12-10 07:20:00,19.7,14.8,31.38,SSW,207,2.0,4.0,81,0.00,,,0.00,0.00,VWS V14.00,2013-12-10 14:20:00,
2013-12-10 07:21:00,19.7,14.8,31.38,SW,221,0.0,4.0,81,0.00,,,0.00,0.00,VWS V14.00,2013-12-10 14:21:00,
2013-12-10 07:22:00,19.6,14.4,31.38,SW,234,0.0,4.0,80,0.00,,,0.00,0.00,VWS V14.00,2013-12-10 14:22:00,
2013-12-10 07:23:00,19.6,14.4,31.38,WSW,237,0.0,4.0,80,0.00,,,0.00,0.00,VWS V14.00,2013-12-10 14:23:00,
2013-12-10 07:24:00,19.6,14.4,31.38,WNW,285,2.0,4.0,80,0.00,,,0.00,0.00,VWS V14.00,2013-12-10 14:24:00,
2013-12-10 07:25:00,19.6,14.4,31.38,NW,313,2.0,4.0,80,0.00,,,0.00,0.00,VWS V14.00,2013-12-10 14:25:00,
2013-12-10 07:26:00,19.7,14.5,31.39,NW,313,0.0,4.0,80,0.00,,,0.00,0.00,VWS V14.00,2013-12-10 14:26:00,
2013-12-10 07:27:00,19.7,14.5,31.39,NW,313,0.0,4.0,80,0.00,,,0.00,0.00,VWS V14.00,2013-12-10 14:27:00,
2013-12-10 07:28:00,19.7,14.5,31.38,NW,319,2.0,4.0,80,0.00,,,0.00,0.00,VWS V14.00,2013-12-10 14:28:00,
2013-12-10 07:29:00,19.7,14.3,31.38,NW,318,0.0,4.0,79,0.00,,,0.00,0.00,VWS V14.00,2013-12-10 14:29:00,
2013-12-10 07:30:00,19.7,14.3,31.38,NW,318,0.0,4.0,79,0.00,,,0.00,0.00,VWS V14.00,2013-12-10 14:30:00,
2013-12-10 07:31:00,19.6,14.2,31.38,NW,319,0.0,0.0,79,0.00,,,0.00,0.00,VWS V14.00,2013-12-10 14:31:00,
2013-12-10 07:32:00,19.7,14.3,31.38,NW,318,0.0,0.0,79,0.00,,,0.00,0.00,VWS V14.00,2013-12-10 14:32:00,
2013-12-10 07:33:00,19.7,14.3,31.38,NW,319,0.0,0.0,79,0.00,,,0.00,0.00,VWS V14.00,2013-12-10 14:33:00,
2013-12-10 07:34:00,19.7,14.3,31.38,NW,319,0.0,0.0,79,0.00,,,0.00,0.00,VWS V14.00,2013-12-10 14:34:00,
2013-12-10 07:35:00,19.7,14.3,31.38,NW,319,0.0,0.0,79,0.00,,,0.00,0.00,VWS V14.00,2013-12-10 14:35:00,
2013-12-10 07:36:00,19.7,14.3,31.37,NW,319,0.0,0.0,79,0.00,,,0.00,0.00,VWS V14.00,2013-12-10 14:36:00,
2013-12-10 07:37:00,19.7,14.3,31.37,NW,319,0.0,0.0,79,0.00,,,0.00,0.00,VWS V14.00,2013-12-10 14:37:00,
2013-12-10 07:38:00,19.7,14.3,31.38,NW,319,0.0,0.0,79,0.00,,,0.00,0.00,VWS V14.00,2013-12-10 14:38:00,
2013-12-10 07:39:00,19.7,14.3,31.38,NW,319,0.0,0.0,79,0.00,,,0.00,0.00,VWS V14.00,2013-12-10 14:39:00,
2013-12-10 07:40:00,19.7,14.3,31.38,NW,319,0.0,0.0,79,0.00,,,0.00,0.00,VWS V14.00,2013-12-10 14:40:00,
2013-12-10 07:41:00,19.7,14.5,31.38,NW,319,0.0,0.0,80,0.00,,,0.00,0.00,VWS V14.00,2013-12-10 14:41:00,
2013-12-10 07:42:00,19.7,14.5,31.38,NW,319,0.0,0.0,80,0.00,,,0.00,0.00,VWS V14.00,2013-12-10 14:42:00,
2013-12-10 07:43:00,19.7,14.5,31.38,NW,319,0.0,0.0,80,0.00,,,0.00,0.00,VWS V14.00,2013-12-10 14:43:00,
2013-12-10 07:44:00,19.7,14.5,31.38,NW,319,0.0,0.0,80,0.00,,,0.00,0.00,VWS V14.00,2013-12-10 14:44:00,
2013-12-10 07:45:00,19.8,14.6,31.38,NW,319,0.0,0.0,80,0.00,,,0.00,0.00,VWS V14.00,2013-12-10 14:45:00,
2013-12-10 07:46:00,19.8,14.6,31.38,NW,319,0.0,0.0,80,0.00,,,0.00,0.00,VWS V14.00,2013-12-10 14:46:00,
2013-12-10 07:47:00,19.9,14.7,31.38,NW,319,0.0,0.0,80,0.00,,,0.00,0.00,VWS V14.00,2013-12-10 14:47:00,
2013-12-10 07:48:00,19.9,14.7,31.38,NW,319,0.0,0.0,80,0.00,,,0.00,0.00,VWS V14.00,2013-12-10 14:48:00,
2013-12-10 07:49:00,20.0,14.6,31.38,NW,319,0.0,0.0,79,0.00,,,0.00,0.00,VWS V14.00,2013-12-10 14:49:00,
2013-12-10 07:50:00,20.0,14.6,31.38,NW,319,2.0,2.0,79,0.00,,,0.00,0.00,VWS V14.00,2013-12-10 14:50:00,
2013-12-10 07:51:00,20.2,14.7,31.38,NW,319,3.0,3.0,79,0.00,,,0.00,0.00,VWS V14.00,2013-12-10 14:51:00,
2013-12-10 07:52:00,20.3,14.8,31.38,NW,323,2.0,3.0,79,0.00,,,0.00,0.00,VWS V14.00,2013-12-10 14:52:00,
2013-12-10 07:53:00,20.4,14.6,31.38,ESE,113,3.0,4.0,78,0.00,,,0.00,0.00,VWS V14.00,2013-12-10 14:53:00,
2013-12-10 07:54:00,20.6,14.8,31.38,ESE,114,3.0,4.0,78,0.00,,,0.00,0.00,VWS V14.00,2013-12-10 14:54:00,
2013-12-10 07:55:00,20.8,14.7,31.37,SE,144,4.0,4.0,77,0.00,,,0.00,0.00,VWS V14.00,2013-12-10 14:55:00,
2013-12-10 07:56:00,20.9,14.8,31.37,SE,144,2.0,4.0,77,0.00,,,0.00,0.00,VWS V14.00,2013-12-10 14:56:00,
2013-12-10 07:57:00,21.0,14.9,31.37,SE,144,1.0,4.0,77,0.00,,,0.00,0.00,VWS V14.00,2013-12-10 14:57:00,
2013-12-10 07:58:00,21.1,14.7,31.36,SE,144,1.0,4.0,76,0.00,,,0.00,0.00,VWS V14.00,2013-12-10 14:58:00,
2013-12-10 07:59:00,21.3,14.9,31.36,SE,144,2.0,4.0,76,0.00,,,0.00,0.00,VWS V14.00,2013-12-10 14:59:00,
2013-12-10 08:00:00,21.4,14.7,31.36,SE,144,3.0,4.0,75,0.00,,,0.00,0.00,VWS V14.00,2013-12-10 15:00:00,
2013-12-10 08:01:00,21.5,14.8,31.36,SE,144,2.0,4.0,75,0.00,,,0.00,0.00,VWS V14.00,2013-12-10 15:01:00,
2013-12-10 08:02:00,21.7,15.0,31.35,SE,144,2.0,4.0,75,0.00,,,0.00,5.00,VWS V14.00,2013-12-10 15:02:00,
2013-12-10 08:03:00,21.8,15.1,31.35,SE,144,1.0,4.0,75,0.00,,,0.00,5.00,VWS V14.00,2013-12-10 15:03:00,
2013-12-10 08:04:00,21.8,14.8,31.35,SE,144,1.0,4.0,74,0.00,,,0.00,7.00,VWS V14.00,2013-12-10 15:04:00,
2013-12-10 08:05:00,21.9,14.9,31.35,SE,144,2.0,4.0,74,0.00,,,0.00,7.00,VWS V14.00,2013-12-10 15:05:00,
2013-12-10 08:06:00,22.0,15.0,31.35,SE,144,2.0,4.0,74,0.00,,,0.00,9.00,VWS V14.00,2013-12-10 15:06:00,
2013-12-10 08:07:00,22.0,15.0,31.35,SE,144,1.0,4.0,74,0.00,,,0.00,9.00,VWS V14.00,2013-12-10 15:07:00,
2013-12-10 08:08:00,22.1,15.1,31.35,SE,144,2.0,4.0,74,0.00,,,0.00,9.00,VWS V14.00,2013-12-10 15:08:00,
2013-12-10 08:09:00,22.2,15.2,31.35,SE,144,3.0,4.0,74,0.00,,,0.00,9.00,VWS V14.00,2013-12-10 15:09:00,
2013-12-10 08:10:00,22.3,15.3,31.35,SE,144,2.0,4.0,74,0.00,,,0.00,9.00,VWS V14.00,2013-12-10 15:10:00,
2013-12-10 08:11:00,22.4,15.1,31.35,SE,144,2.0,4.0,73,0.00,,,0.00,9.00,VWS V14.00,2013-12-10 15:11:00,
2013-12-10 08:12:00,22.5,15.2,31.35,SE,144,2.0,4.0,73,0.00,,,0.00,11.00,VWS V14.00,2013-12-10 15:12:00,
2013-12-10 08:13:00,22.6,15.3,31.35,SE,144,4.0,4.0,73,0.00,,,0.00,11.00,VWS V14.00,2013-12-10 15:13:00,
2013-12-10 08:14:00,22.7,15.4,31.35,SSE,165,2.0,5.0,73,0.00,,,0.00,11.00,VWS V14.00,2013-12-10 15:14:00,
2013-12-10 08:15:00,22.8,15.5,31.35,SSE,155,3.0,5.0,73,0.00,,,0.00,12.00,VWS V14.00,2013-12-10 15:15:00,
2013-12-10 08:16:00,22.8,15.1,31.35,SSE,153,3.0,4.0,72,0.00,,,0.00,12.00,VWS V14.00,2013-12-10 15:16:00,
2013-12-10 08:17:00,22.9,15.2,31.35,SSE,153,3.0,5.0,72,0.00,,,0.00,14.00,VWS V14.00,2013-12-10 15:17:00,
2013-12-10 08:18:00,23.0,15.3,31.35,SSE,155,4.0,5.0,72,0.00,,,0.00,18.00,VWS V14.00,2013-12-10 15:18:00,
2013-12-10 08:19:00,23.0,15.3,31.36,SSE,153,2.0,5.0,72,0.00,,,0.00,19.00,VWS V14.00,2013-12-10 15:19:00,
2013-12-10 08:20:00,23.1,15.4,31.36,SSE,152,3.0,5.0,72,0.00,,,0.00,19.00,VWS V14.00,2013-12-10 15:20:00,
2013-12-10 08:21:00,23.2,15.2,31.35,SSE,151,2.0,5.0,71,0.00,,,0.00,19.00,VWS V14.00,2013-12-10 15:21:00,
2013-12-10 08:22:00,23.3,15.3,31.35,SSE,150,3.0,5.0,71,0.00,,,0.00,19.00,VWS V14.00,2013-12-10 15:22:00,
2013-12-10 08:23:00,23.3,15.3,31.35,SSE,149,3.0,5.0,71,0.00,,,0.00,19.00,VWS V14.00,2013-12-10 15:23:00,
2013-12-10 08:24:00,23.4,15.4,31.35,SSE,150,2.0,5.0,71,0.00,,,0.00,23.00,VWS V14.00,2013-12-10 15:24:00,
2013-12-10 08:25:00,23.4,15.4,31.36,SSE,150,4.0,5.0,71,0.00,,,0.00,25.00,VWS V14.00,2013-12-10 15:25:00,
2013-12-10 08:26:00,23.5,15.2,31.34,SSE,150,3.0,5.0,70,0.00,,,0.00,25.00,VWS V14.00,2013-12-10 15:26:00,
2013-12-10 08:27:00,23.6,15.3,31.34,SSE,150,2.0,5.0,70,0.00,,,0.00,25.00,VWS V14.00,2013-12-10 15:27:00,
2013-12-10 08:28:00,23.7,15.4,31.34,SSE,150,1.0,5.0,70,0.00,,,0.00,26.00,VWS V14.00,2013-12-10 15:28:00,
2013-12-10 08:29:00,23.8,15.5,31.34,SSE,150,3.0,5.0,70,0.00,,,0.00,28.00,VWS V14.00,2013-12-10 15:29:00,
2013-12-10 08:30:00,23.8,15.5,31.34,SSE,150,2.0,5.0,70,0.00,,,0.00,39.00,VWS V14.00,2013-12-10 15:30:00,
2013-12-10 08:31:00,23.9,15.6,31.34,SSE,150,2.0,3.0,70,0.00,,,0.00,44.00,VWS V14.00,2013-12-10 15:31:00,
2013-12-10 08:32:00,23.9,15.6,31.34,SSE,150,0.0,3.0,70,0.00,,,0.00,49.00,VWS V14.00,2013-12-10 15:32:00,
2013-12-10 08:33:00,24.0,15.6,31.35,SSE,150,1.0,3.0,70,0.00,,,0.00,54.00,VWS V14.00,2013-12-10 15:33:00,
2013-12-10 08:34:00,24.0,15.3,31.35,SE,145,2.0,4.0,69,0.00,,,0.00,56.00,VWS V14.00,2013-12-10 15:34:00,
2013-12-10 08:35:00,24.1,15.1,31.35,SSE,147,2.0,4.0,68,0.00,,,0.00,56.00,VWS V14.00,2013-12-10 15:35:00,
2013-12-10 08:36:00,24.2,15.2,31.35,SSE,147,3.0,4.0,68,0.00,,,0.00,46.00,VWS V14.00,2013-12-10 15:36:00,
2013-12-10 08:37:00,24.3,14.9,31.35,SSE,147,1.0,4.0,67,0.00,,,0.00,44.00,VWS V14.00,2013-12-10 15:37:00,
2013-12-10 08:38:00,24.5,15.1,31.35,SE,146,0.0,4.0,67,0.00,,,0.00,42.00,VWS V14.00,2013-12-10 15:38:00,
2013-12-10 08:39:00,24.5,15.1,31.36,SE,145,0.0,4.0,67,0.00,,,0.00,42.00,VWS V14.00,2013-12-10 15:39:00,
2013-12-10 08:40:00,24.6,15.2,31.36,SE,145,0.0,4.0,67,0.00,,,0.00,42.00,VWS V14.00,2013-12-10 15:40:00,
2013-12-10 08:41:00,24.7,15.7,31.36,SE,145,0.0,4.0,68,0.00,,,0.00,40.00,VWS V14.00,2013-12-10 15:41:00,
2013-12-10 08:42:00,24.8,15.4,31.36,SE,145,0.0,4.0,67,0.00,,,0.00,39.00,VWS V14.00,2013-12-10 15:42:00,
2013-12-10 08:43:00,24.8,15.4,31.36,SE,145,0.0,4.0,67,0.00,,,0.00,37.00,VWS V14.00,2013-12-10 15:43:00,
2013-12-10 08:44:00,24.8,15.4,31.36,SE,145,0.0,4.0,67,0.00,,,0.00,35.00,VWS V14.00,2013-12-10 15:44:00,
2013-12-10 08:45:00,24.9,15.9,31.36,SE,145,0.0,4.0,68,0.00,,,0.00,33.00,VWS V14.00,2013-12-10 15:45:00,
2013-12-10 08:46:00,24.9,15.9,31.36,SE,145,0.0,0.0,68,0.00,,,0.00,32.00,VWS V14.00,2013-12-10 15:46:00,
2013-12-10 08:47:00,24.9,15.9,31.36,SE,145,0.0,0.0,68,0.00,,,0.00,32.00,VWS V14.00,2013-12-10 15:47:00,
2013-12-10 08:48:00,25.0,15.6,31.36,SE,145,0.0,0.0,67,0.00,,,0.00,30.00,VWS V14.00,2013-12-10 15:48:00,
2013-12-10 08:49:00,25.0,15.6,31.36,SE,145,0.0,0.0,67,0.00,,,0.00,32.00,VWS V14.00,2013-12-10 15:49:00,
2013-12-10 08:50:00,25.1,15.7,31.36,SE,145,3.0,3.0,67,0.00,,,0.00,32.00,VWS V14.00,2013-12-10 15:50:00,
2013-12-10 08:51:00,25.1,15.7,31.36,SE,145,1.0,4.0,67,0.00,,,0.00,33.00,VWS V14.00,2013-12-10 15:51:00,
2013-12-10 08:52:00,25.2,15.8,31.36,SE,145,2.0,4.0,67,0.00,,,0.00,33.00,VWS V14.00,2013-12-10 15:52:00,
2013-12-10 08:53:00,25.2,15.8,31.36,SE,145,1.0,4.0,67,0.00,,,0.00,33.00,VWS V14.00,2013-12-10 15:53:00,
2013-12-10 08:54:00,25.2,15.8,31.36,SE,145,2.0,4.0,67,0.00,,,0.00,33.00,VWS V14.00,2013-12-10 15:54:00,
2013-12-10 08:55:00,25.2,15.8,31.36,SE,145,2.0,4.0,67,0.00,,,0.00,33.00,VWS V14.00,2013-12-10 15:55:00,
2013-12-10 08:56:00,25.3,15.6,31.36,SE,145,0.0,4.0,66,0.00,,,0.00,33.00,VWS V14.00,2013-12-10 15:56:00,
2013-12-10 08:57:00,25.3,15.6,31.36,SE,145,0.0,4.0,66,0.00,,,0.00,33.00,VWS V14.00,2013-12-10 15:57:00,
2013-12-10 08:58:00,25.3,15.6,31.36,SE,145,0.0,4.0,66,0.00,,,0.00,33.00,VWS V14.00,2013-12-10 15:58:00,
2013-12-10 08:59:00,25.3,15.6,31.36,SE,145,0.0,4.0,66,0.00,,,0.00,35.00,VWS V14.00,2013-12-10 15:59:00,
2013-12-10 09:00:00,25.3,15.6,31.36,SE,145,0.0,4.0,66,0.00,,,0.00,37.00,VWS V14.00,2013-12-10 16:00:00,
2013-12-10 09:01:00,25.3,15.6,31.35,SE,145,0.0,0.0,66,0.00,,,0.00,39.00,VWS V14.00,2013-12-10 16:01:00,
2013-12-10 09:02:00,25.4,15.6,31.35,SE,145,0.0,0.0,66,0.00,,,0.00,39.00,VWS V14.00,2013-12-10 16:02:00,
2013-12-10 09:03:00,25.4,15.6,31.35,SE,145,0.0,0.0,66,0.00,,,0.00,39.00,VWS V14.00,2013-12-10 16:03:00,
2013-12-10 09:04:00,25.4,15.6,31.35,SE,145,0.0,0.0,66,0.00,,,0.00,39.00,VWS V14.00,2013-12-10 16:04:00,
2013-12-10 09:05:00,25.4,15.6,31.35,SE,145,0.0,0.0,66,0.00,,,0.00,40.00,VWS V14.00,2013-12-10 16:05:00,
2013-12-10 09:06:00,25.4,15.6,31.35,SE,145,0.0,0.0,66,0.00,,,0.00,40.00,VWS V14.00,2013-12-10 16:06:00,
2013-12-10 09:07:00,25.4,15.6,31.35,SE,145,0.0,0.0,66,0.00,,,0.00,40.00,VWS V14.00,2013-12-10 16:07:00,
2013-12-10 09:08:00,25.5,15.7,31.35,SE,145,0.0,0.0,66,0.00,,,0.00,40.00,VWS V14.00,2013-12-10 16:08:00,
2013-12-10 09:09:00,25.5,15.7,31.35,SE,145,0.0,0.0,66,0.00,,,0.00,42.00,VWS V14.00,2013-12-10 16:09:00,
2013-12-10 09:10:00,25.5,15.7,31.35,SE,145,0.0,0.0,66,0.00,,,0.00,44.00,VWS V14.00,2013-12-10 16:10:00,
2013-12-10 09:11:00,25.5,15.7,31.35,SE,145,0.0,0.0,66,0.00,,,0.00,44.00,VWS V14.00,2013-12-10 16:11:00,
2013-12-10 09:12:00,25.5,15.7,31.35,SE,145,0.0,0.0,66,0.00,,,0.00,46.00,VWS V14.00,2013-12-10 16:12:00,
2013-12-10 09:13:00,25.6,15.8,31.35,SE,145,0.0,0.0,66,0.00,,,0.00,47.00,VWS V14.00,2013-12-10 16:13:00,
2013-12-10 09:14:00,25.6,15.8,31.35,SE,145,0.0,0.0,66,0.00,,,0.00,49.00,VWS V14.00,2013-12-10 16:14:00,
2013-12-10 09:15:00,25.6,15.5,31.35,SE,145,0.0,0.0,65,0.00,,,0.00,51.00,VWS V14.00,2013-12-10 16:15:00,
2013-12-10 09:16:00,25.6,15.5,31.35,SE,145,0.0,0.0,65,0.00,,,0.00,53.00,VWS V14.00,2013-12-10 16:16:00,
2013-12-10 09:17:00,25.6,15.8,31.35,SE,145,0.0,0.0,66,0.00,,,0.00,54.00,VWS V14.00,2013-12-10 16:17:00,
2013-12-10 09:18:00,25.7,15.9,31.35,SE,145,0.0,0.0,66,0.00,,,0.00,54.00,VWS V14.00,2013-12-10 16:18:00,
2013-12-10 09:19:00,25.7,15.9,31.35,SE,145,0.0,0.0,66,0.00,,,0.00,54.00,VWS V14.00,2013-12-10 16:19:00,
2013-12-10 09:20:00,25.7,15.9,31.35,SE,145,0.0,0.0,66,0.00,,,0.00,54.00,VWS V14.00,2013-12-10 16:20:00,
2013-12-10 09:21:00,25.8,16.0,31.35,SE,145,0.0,0.0,66,0.00,,,0.00,54.00,VWS V14.00,2013-12-10 16:21:00,
2013-12-10 09:22:00,25.8,16.0,31.36,SE,145,0.0,0.0,66,0.00,,,0.00,54.00,VWS V14.00,2013-12-10 16:22:00,
2013-12-10 09:23:00,25.8,16.4,31.36,SE,145,0.0,0.0,67,0.00,,,0.00,54.00,VWS V14.00,2013-12-10 16:23:00,
2013-12-10 09:24:00,25.8,16.4,31.36,SE,145,0.0,0.0,67,0.00,,,0.00,54.00,VWS V14.00,2013-12-10 16:24:00,
2013-12-10 09:25:00,25.8,16.4,31.36,SE,145,0.0,0.0,67,0.00,,,0.00,54.00,VWS V14.00,2013-12-10 16:25:00,
2013-12-10 09:26:00,25.8,16.4,31.36,SE,145,0.0,0.0,67,0.00,,,0.00,54.00,VWS V14.00,2013-12-10 16:26:00,
2013-12-10 09:27:00,25.8,16.0,31.36,SE,145,0.0,0.0,66,0.00,,,0.00,54.00,VWS V14.00,2013-12-10 16:27:00,
2013-12-10 09:28:00,25.9,16.1,31.36,SE,145,0.0,0.0,66,0.00,,,0.00,54.00,VWS V14.00,2013-12-10 16:28:00,
2013-12-10 09:29:00,25.9,15.8,31.36,SE,145,0.0,0.0,65,0.00,,,0.00,54.00,VWS V14.00,2013-12-10 16:29:00,
2013-12-10 09:30:00,25.9,15.8,31.36,SE,145,0.0,0.0,65,0.00,,,0.00,54.00,VWS V14.00,2013-12-10 16:30:00,
2013-12-10 09:31:00,25.9,15.8,31.36,SE,145,0.0,0.0,65,0.00,,,0.00,54.00,VWS V14.00,2013-12-10 16:31:00,
2013-12-10 09:32:00,25.9,15.8,31.36,SE,145,0.0,0.0,65,0.00,,,0.00,56.00,VWS V14.00,2013-12-10 16:32:00,
2013-12-10 09:33:00,26.0,15.5,31.37,SE,145,0.0,2.0,64,0.00,,,0.00,56.00,VWS V14.00,2013-12-10 16:33:00,
2013-12-10 09:34:00,26.0,15.1,31.37,SE,145,0.0,2.0,63,0.00,,,0.00,54.00,VWS V14.00,2013-12-10 16:34:00,
2013-12-10 09:35:00,26.0,15.1,31.37,SE,145,0.0,3.0,63,0.00,,,0.00,56.00,VWS V14.00,2013-12-10 16:35:00,
2013-12-10 09:36:00,26.0,15.5,31.37,SE,146,0.0,3.0,64,0.00,,,0.00,56.00,VWS V14.00,2013-12-10 16:36:00,
2013-12-10 09:37:00,26.1,15.6,31.37,SE,145,0.0,3.0,64,0.00,,,0.00,56.00,VWS V14.00,2013-12-10 16:37:00,
2013-12-10 09:38:00,26.1,16.0,31.37,SE,145,2.0,3.0,65,0.00,,,0.00,56.00,VWS V14.00,2013-12-10 16:38:00,
2013-12-10 09:39:00,26.2,15.3,31.37,SE,145,0.0,3.0,63,0.00,,,0.00,56.00,VWS V14.00,2013-12-10 16:39:00,
2013-12-10 09:40:00,26.2,15.3,31.37,SE,146,2.0,3.0,63,0.00,,,0.00,58.00,VWS V14.00,2013-12-10 16:40:00,
2013-12-10 09:41:00,26.2,15.3,31.37,SE,145,2.0,3.0,63,0.00,,,0.00,60.00,VWS V14.00,2013-12-10 16:41:00,
2013-12-10 09:42:00,26.2,15.3,31.37,SE,145,0.0,3.0,63,0.00,,,0.00,62.00,VWS V14.00,2013-12-10 16:42:00,
2013-12-10 09:43:00,26.2,15.3,31.38,SE,146,0.0,3.0,63,0.00,,,0.00,63.00,VWS V14.00,2013-12-10 16:43:00,
2013-12-10 09:44:00,26.3,15.4,31.37,SE,145,0.0,3.0,63,0.00,,,0.00,63.00,VWS V14.00,2013-12-10 16:44:00,
2013-12-10 09:45:00,26.3,15.8,31.38,SE,146,0.0,3.0,64,0.00,,,0.00,65.00,VWS V14.00,2013-12-10 16:45:00,
2013-12-10 09:46:00,26.4,15.9,31.37,SE,145,0.0,0.0,64,0.00,,,0.00,69.00,VWS V14.00,2013-12-10 16:46:00,
2013-12-10 09:47:00,26.4,15.5,31.37,SE,146,0.0,0.0,63,0.00,,,0.00,69.00,VWS V14.00,2013-12-10 16:47:00,
2013-12-10 09:48:00,26.4,15.5,31.38,SE,146,0.0,0.0,63,0.00,,,0.00,70.00,VWS V14.00,2013-12-10 16:48:00,
2013-12-10 09:49:00,26.5,16.0,31.36,SE,146,0.0,0.0,64,0.00,,,0.00,70.00,VWS V14.00,2013-12-10 16:49:00,
2013-12-10 09:50:00,26.5,16.0,31.36,SE,146,0.0,0.0,64,0.00,,,0.00,72.00,VWS V14.00,2013-12-10 16:50:00,
2013-12-10 09:51:00,26.5,16.0,31.36,SE,145,0.0,0.0,64,0.00,,,0.00,72.00,VWS V14.00,2013-12-10 16:51:00,
2013-12-10 09:52:00,26.6,15.4,31.36,SE,146,3.0,4.0,62,0.00,,,0.00,74.00,VWS V14.00,2013-12-10 16:52:00,
2013-12-10 09:53:00,26.6,15.0,31.36,SE,145,0.0,4.0,61,0.00,,,0.00,77.00,VWS V14.00,2013-12-10 16:53:00,
2013-12-10 09:54:00,26.7,14.7,31.36,SE,146,0.0,4.0,60,0.00,,,0.00,77.00,VWS V14.00,2013-12-10 16:54:00,
2013-12-10 09:55:00,26.8,14.8,31.36,SE,146,0.0,4.0,60,0.00,,,0.00,77.00,VWS V14.00,2013-12-10 16:55:00,
2013-12-10 09:56:00,26.9,14.9,31.36,SE,146,0.0,4.0,60,0.00,,,0.00,79.00,VWS V14.00,2013-12-10 16:56:00,
2013-12-10 09:57:00,26.9,14.9,31.36,SE,145,0.0,4.0,60,0.00,,,0.00,79.00,VWS V14.00,2013-12-10 16:57:00,
2013-12-10 09:58:00,27.0,15.0,31.36,SE,145,0.0,4.0,60,0.00,,,0.00,79.00,VWS V14.00,2013-12-10 16:58:00,
2013-12-10 09:59:00,27.0,14.6,31.36,SE,145,0.0,4.0,59,0.00,,,0.00,79.00,VWS V14.00,2013-12-10 16:59:00,
2013-12-10 10:00:00,27.1,15.1,31.36,SE,146,0.0,4.0,60,0.00,,,0.00,81.00,VWS V14.00,2013-12-10 17:00:00,
2013-12-10 10:01:00,27.1,15.1,31.35,SE,145,0.0,0.0,60,0.00,,,0.00,83.00,VWS V14.00,2013-12-10 17:01:00,
2013-12-10 10:02:00,27.2,15.6,31.35,SE,145,0.0,0.0,61,0.00,,,0.00,84.00,VWS V14.00,2013-12-10 17:02:00,
2013-12-10 10:03:00,27.2,15.6,31.35,SE,146,0.0,0.0,61,0.00,,,0.00,84.00,VWS V14.00,2013-12-10 17:03:00,
2013-12-10 10:04:00,27.2,15.6,31.35,SE,146,0.0,0.0,61,0.00,,,0.00,86.00,VWS V14.00,2013-12-10 17:04:00,
2013-12-10 10:05:00,27.3,16.0,31.35,SE,146,0.0,0.0,62,0.00,,,0.00,88.00,VWS V14.00,2013-12-10 17:05:00,
2013-12-10 10:06:00,27.3,16.4,31.35,SE,146,0.0,0.0,63,0.00,,,0.00,88.00,VWS V14.00,2013-12-10 17:06:00,
2013-12-10 10:07:00,27.4,16.8,31.35,SE,145,0.0,0.0,64,0.00,,,0.00,90.00,VWS V14.00,2013-12-10 17:07:00,
2013-12-10 10:08:00,27.4,16.8,31.35,SE,145,0.0,0.0,64,0.00,,,0.00,91.00,VWS V14.00,2013-12-10 17:08:00,
2013-12-10 10:09:00,27.4,16.5,31.35,SE,146,1.0,2.0,63,0.00,,,0.00,91.00,VWS V14.00,2013-12-10 17:09:00,
2013-12-10 10:10:00,27.4,16.5,31.35,SE,146,0.0,2.0,63,0.00,,,0.00,91.00,VWS V14.00,2013-12-10 17:10:00,
2013-12-10 10:11:00,27.5,16.6,31.35,SE,146,0.0,2.0,63,0.00,,,0.00,91.00,VWS V14.00,2013-12-10 17:11:00,
2013-12-10 10:12:00,27.5,16.6,31.35,SE,146,2.0,3.0,63,0.00,,,0.00,91.00,VWS V14.00,2013-12-10 17:12:00,
2013-12-10 10:13:00,27.5,15.8,31.35,SE,145,2.0,3.0,61,0.00,,,0.00,91.00,VWS V14.00,2013-12-10 17:13:00,
2013-12-10 10:14:00,27.5,15.8,31.35,SE,145,0.0,3.0,61,0.00,,,0.00,91.00,VWS V14.00,2013-12-10 17:14:00,
2013-12-10 10:15:00,27.6,15.9,31.35,SE,146,1.0,3.0,61,0.00,,,0.00,93.00,VWS V14.00,2013-12-10 17:15:00,
2013-12-10 10:16:00,27.6,15.9,31.35,SE,146,0.0,1.0,61,0.00,,,0.00,95.00,VWS V14.00,2013-12-10 17:16:00,
2013-12-10 10:17:00,27.6,16.7,31.35,SE,145,0.0,1.0,63,0.00,,,0.00,97.00,VWS V14.00,2013-12-10 17:17:00,
2013-12-10 10:18:00,27.6,16.7,31.35,SE,146,0.0,1.0,63,0.00,,,0.00,97.00,VWS V14.00,2013-12-10 17:18:00,
2013-12-10 10:19:00,27.6,16.7,31.35,SE,145,0.0,1.0,63,0.00,,,0.00,98.00,VWS V14.00,2013-12-10 17:19:00,
2013-12-10 10:20:00,27.6,16.7,31.35,SE,145,0.0,1.0,63,0.00,,,0.00,100.00,VWS V14.00,2013-12-10 17:20:00,
2013-12-10 10:21:00,27.7,16.0,31.35,SE,146,2.0,3.0,61,0.00,,,0.00,102.00,VWS V14.00,2013-12-10 17:21:00,
2013-12-10 10:22:00,27.7,15.6,31.35,SE,146,5.0,5.0,60,0.00,,,0.00,104.00,VWS V14.00,2013-12-10 17:22:00,
2013-12-10 10:23:00,27.7,15.6,31.36,SE,146,4.0,5.0,60,0.00,,,0.00,105.00,VWS V14.00,2013-12-10 17:23:00,
2013-12-10 10:24:00,27.8,15.7,31.36,SE,146,4.0,5.0,60,0.00,,,0.00,107.00,VWS V14.00,2013-12-10 17:24:00,
2013-12-10 10:25:00,27.8,16.1,31.36,SE,146,3.0,5.0,61,0.00,,,0.00,109.00,VWS V14.00,2013-12-10 17:25:00,
2013-12-10 10:26:00,27.8,15.7,31.35,SE,145,4.0,5.0,60,0.00,,,0.00,109.00,VWS V14.00,2013-12-10 17:26:00,
2013-12-10 10:27:00,27.9,15.8,31.36,SE,145,6.0,6.0,60,0.00,,,0.00,109.00,VWS V14.00,2013-12-10 17:27:00,
2013-12-10 10:28:00,27.9,15.8,31.36,SE,146,2.0,6.0,60,0.00,,,0.00,109.00,VWS V14.00,2013-12-10 17:28:00,
2013-12-10 10:29:00,27.9,16.2,31.36,SE,146,2.0,6.0,61,0.00,,,0.00,107.00,VWS V14.00,2013-12-10 17:29:00,
2013-12-10 10:30:00,27.9,15.8,31.36,SE,146,4.0,6.0,60,0.00,,,0.00,107.00,VWS V14.00,2013-12-10 17:30:00,
2013-12-10 10:31:00,28.0,15.9,31.36,SE,145,2.0,4.0,60,0.00,,,0.00,107.00,VWS V14.00,2013-12-10 17:31:00,
2013-12-10 10:32:00,28.0,15.9,31.36,SE,145,1.0,4.0,60,0.00,,,0.00,109.00,VWS V14.00,2013-12-10 17:32:00,
2013-12-10 10:33:00,28.0,15.1,31.36,SE,146,1.0,4.0,58,0.00,,,0.00,111.00,VWS V14.00,2013-12-10 17:33:00,
2013-12-10 10:34:00,28.0,15.1,31.36,SE,145,0.0,4.0,58,0.00,,,0.00,111.00,VWS V14.00,2013-12-10 17:34:00,
2013-12-10 10:35:00,28.1,15.2,31.36,SE,146,0.0,4.0,58,0.00,,,0.00,111.00,VWS V14.00,2013-12-10 17:35:00,
2013-12-10 10:36:00,28.1,15.6,31.36,SE,145,2.0,4.0,59,0.00,,,0.00,111.00,VWS V14.00,2013-12-10 17:36:00,
2013-12-10 10:37:00,28.1,15.2,31.36,SE,146,1.0,4.0,58,0.00,,,0.00,111.00,VWS V14.00,2013-12-10 17:37:00,
2013-12-10 10:38:00,28.1,15.2,31.36,SE,145,0.0,4.0,58,0.00,,,0.00,109.00,VWS V14.00,2013-12-10 17:38:00,
2013-12-10 10:39:00,28.2,15.7,31.36,SE,146,0.0,4.0,59,0.00,,,0.00,109.00,VWS V14.00,2013-12-10 17:39:00,
2013-12-10 10:40:00,28.2,15.7,31.36,SE,145,0.0,4.0,59,0.00,,,0.00,111.00,VWS V14.00,2013-12-10 17:40:00,
2013-12-10 10:41:00,28.2,15.7,31.36,SE,146,0.0,4.0,59,0.00,,,0.00,113.00,VWS V14.00,2013-12-10 17:41:00,
2013-12-10 10:42:00,28.3,15.0,31.36,SE,145,0.0,4.0,57,0.00,,,0.00,113.00,VWS V14.00,2013-12-10 17:42:00,
2013-12-10 10:43:00,28.3,15.0,31.36,SE,146,0.0,4.0,57,0.00,,,0.00,116.00,VWS V14.00,2013-12-10 17:43:00,
2013-12-10 10:44:00,28.3,15.4,31.36,SE,146,0.0,4.0,58,0.00,,,0.00,118.00,VWS V14.00,2013-12-10 17:44:00,
2013-12-10 10:45:00,28.3,15.4,31.36,SE,146,0.0,4.0,58,0.00,,,0.00,123.00,VWS V14.00,2013-12-10 17:45:00,
2013-12-10 10:46:00,28.4,15.5,31.36,SE,146,0.0,0.0,58,0.00,,,0.00,125.00,VWS V14.00,2013-12-10 17:46:00,
2013-12-10 10:47:00,28.4,15.9,31.36,SE,146,0.0,0.0,59,0.00,,,0.00,127.00,VWS V14.00,2013-12-10 17:47:00,
2013-12-10 10:48:00,28.4,15.9,31.36,SE,145,0.0,0.0,59,0.00,,,0.00,130.00,VWS V14.00,2013-12-10 17:48:00,
2013-12-10 10:49:00,28.5,16.0,31.36,SE,146,0.0,0.0,59,0.00,,,0.00,130.00,VWS V14.00,2013-12-10 17:49:00,
2013-12-10 10:50:00,28.5,16.0,31.35,SE,145,0.0,0.0,59,0.00,,,0.00,132.00,VWS V14.00,2013-12-10 17:50:00,
2013-12-10 10:51:00,28.6,16.1,31.35,SE,146,2.0,3.0,59,0.00,,,0.00,135.00,VWS V14.00,2013-12-10 17:51:00,
2013-12-10 10:52:00,28.6,15.7,31.35,SE,145,0.0,4.0,58,0.00,,,0.00,139.00,VWS V14.00,2013-12-10 17:52:00,
2013-12-10 10:53:00,28.6,15.7,31.35,SE,146,0.0,4.0,58,0.00,,,0.00,142.00,VWS V14.00,2013-12-10 17:53:00,
2013-12-10 10:54:00,28.7,16.2,31.35,SE,145,0.0,4.0,59,0.00,,,0.00,148.00,VWS V14.00,2013-12-10 17:54:00,
2013-12-10 10:55:00,28.7,16.2,31.35,SE,145,0.0,4.0,59,0.00,,,0.00,149.00,VWS V14.00,2013-12-10 17:55:00,
2013-12-10 10:56:00,28.8,16.3,31.35,SSE,147,2.0,4.0,59,0.00,,,0.00,151.00,VWS V14.00,2013-12-10 17:56:00,
2013-12-10 10:57:00,28.8,15.9,31.35,SSE,161,4.0,7.0,58,0.00,,,0.00,153.00,VWS V14.00,2013-12-10 17:57:00,
2013-12-10 10:58:00,28.8,15.9,31.35,SSE,164,4.0,7.0,58,0.00,,,0.00,153.00,VWS V14.00,2013-12-10 17:58:00,
2013-12-10 10:59:00,28.9,15.6,31.35,SSE,153,3.0,7.0,57,0.00,,,0.00,155.00,VWS V14.00,2013-12-10 17:59:00,
2013-12-10 11:00:00,28.9,16.0,31.35,SSE,148,3.0,7.0,58,0.00,,,0.00,156.00,VWS V14.00,2013-12-10 18:00:00,
2013-12-10 11:01:00,28.9,16.0,31.36,SSE,148,5.0,6.0,58,0.00,,,0.00,156.00,VWS V14.00,2013-12-10 18:01:00,
2013-12-10 11:02:00,29.0,16.1,31.36,SSE,149,3.0,6.0,58,0.00,,,0.00,158.00,VWS V14.00,2013-12-10 18:02:00,
2013-12-10 11:03:00,29.0,15.7,31.36,SSE,150,2.0,6.0,57,0.00,,,0.00,160.00,VWS V14.00,2013-12-10 18:03:00,
2013-12-10 11:04:00,29.0,15.7,31.36,SSE,150,4.0,6.0,57,0.00,,,0.00,162.00,VWS V14.00,2013-12-10 18:04:00,
2013-12-10 11:05:00,29.0,16.1,31.36,SSE,150,0.0,6.0,58,0.00,,,0.00,162.00,VWS V14.00,2013-12-10 18:05:00,
2013-12-10 11:06:00,29.1,16.2,31.36,SSE,150,0.0,6.0,58,0.00,,,0.00,163.00,VWS V14.00,2013-12-10 18:06:00,
2013-12-10 11:07:00,29.1,15.8,31.36,SSE,151,4.0,6.0,57,0.00,,,0.00,165.00,VWS V14.00,2013-12-10 18:07:00,
2013-12-10 11:08:00,29.1,15.8,31.36,SSE,150,3.0,6.0,57,0.00,,,0.00,171.00,VWS V14.00,2013-12-10 18:08:00,
2013-12-10 11:09:00,29.2,15.9,31.36,SSE,152,2.0,6.0,57,0.00,,,0.00,174.00,VWS V14.00,2013-12-10 18:09:00,
2013-12-10 11:10:00,29.2,15.9,31.36,SSE,152,4.0,6.0,57,0.00,,,0.00,176.00,VWS V14.00,2013-12-10 18:10:00,
2013-12-10 11:11:00,29.3,16.0,31.36,SSE,152,3.0,6.0,57,0.00,,,0.00,181.00,VWS V14.00,2013-12-10 18:11:00,
2013-12-10 11:12:00,29.3,16.0,31.36,SSE,152,3.0,6.0,57,0.00,,,0.00,178.00,VWS V14.00,2013-12-10 18:12:00,
2013-12-10 11:13:00,29.3,16.0,31.36,SSE,152,3.0,6.0,57,0.00,,,0.00,179.00,VWS V14.00,2013-12-10 18:13:00,
2013-12-10 11:14:00,29.4,16.5,31.36,SSE,153,4.0,6.0,58,0.00,,,0.00,179.00,VWS V14.00,2013-12-10 18:14:00,
2013-12-10 11:15:00,29.4,16.5,31.36,South,179,3.0,6.0,58,0.00,,,0.00,179.00,VWS V14.00,2013-12-10 18:15:00,
2013-12-10 11:16:00,29.5,16.2,31.36,South,179,0.0,3.0,57,0.00,,,0.00,179.00,VWS V14.00,2013-12-10 18:16:00,
2013-12-10 11:17:00,29.5,15.8,31.36,South,179,0.0,3.0,56,0.00,,,0.00,181.00,VWS V14.00,2013-12-10 18:17:00,
2013-12-10 11:18:00,29.6,15.8,31.36,South,179,1.0,4.0,56,0.00,,,0.00,183.00,VWS V14.00,2013-12-10 18:18:00,
2013-12-10 11:19:00,29.6,15.8,31.36,South,174,4.0,4.0,56,0.00,,,0.00,185.00,VWS V14.00,2013-12-10 18:19:00,
2013-12-10 11:20:00,29.6,15.4,31.36,SSE,162,4.0,6.0,55,0.00,,,0.00,190.00,VWS V14.00,2013-12-10 18:20:00,
2013-12-10 11:21:00,29.7,15.5,31.36,SSE,155,4.0,6.0,55,0.00,,,0.00,193.00,VWS V14.00,2013-12-10 18:21:00,
2013-12-10 11:22:00,29.7,15.9,31.36,SSE,155,2.0,6.0,56,0.00,,,0.00,192.00,VWS V14.00,2013-12-10 18:22:00,
2013-12-10 11:23:00,29.7,15.9,31.35,SSE,155,4.0,6.0,56,0.00,,,0.00,190.00,VWS V14.00,2013-12-10 18:23:00,
2013-12-10 11:24:00,29.7,15.9,31.36,SSE,149,7.0,7.0,56,0.00,,,0.00,192.00,VWS V14.00,2013-12-10 18:24:00,
2013-12-10 11:25:00,29.7,15.9,31.36,SSE,154,4.0,7.0,56,0.00,,,0.00,192.00,VWS V14.00,2013-12-10 18:25:00,
2013-12-10 11:26:00,29.7,18.3,31.36,SSE,161,5.0,10.0,62,0.00,,,0.00,188.00,VWS V14.00,2013-12-10 18:26:00,
2013-12-10 11:27:00,29.7,16.4,31.35,SSE,158,6.0,10.0,57,0.00,,,0.00,188.00,VWS V14.00,2013-12-10 18:27:00,
2013-12-10 11:28:00,29.7,15.9,31.35,SSE,157,4.0,10.0,56,0.00,,,0.00,190.00,VWS V14.00,2013-12-10 18:28:00,
2013-12-10 11:29:00,29.7,16.8,31.35,SSE,157,2.0,10.0,58,0.00,,,0.00,193.00,VWS V14.00,2013-12-10 18:29:00,
2013-12-10 11:30:00,29.7,16.8,31.35,SSE,157,4.0,10.0,58,0.00,,,0.00,195.00,VWS V14.00,2013-12-10 18:30:00,
2013-12-10 11:31:00,29.7,16.8,31.35,SSE,161,6.0,6.0,58,0.00,,,0.00,197.00,VWS V14.00,2013-12-10 18:31:00,
2013-12-10 11:32:00,29.7,16.4,31.35,SSE,163,2.0,6.0,57,0.00,,,0.00,209.00,VWS V14.00,2013-12-10 18:32:00,
2013-12-10 11:33:00,29.8,16.8,31.35,SSE,158,3.0,6.0,58,0.00,,,0.00,216.00,VWS V14.00,2013-12-10 18:33:00,
2013-12-10 11:34:00,29.8,16.8,31.35,SSE,165,4.0,7.0,58,0.00,,,0.00,221.00,VWS V14.00,2013-12-10 18:34:00,
2013-12-10 11:35:00,29.8,16.8,31.35,SSE,160,2.0,7.0,58,0.00,,,0.00,234.00,VWS V14.00,2013-12-10 18:35:00,
2013-12-10 11:36:00,29.8,16.8,31.34,SSE,163,2.0,7.0,58,0.00,,,0.00,248.00,VWS V14.00,2013-12-10 18:36:00,
2013-12-10 11:37:00,29.9,16.9,31.34,SSE,163,5.0,7.0,58,0.00,,,0.00,246.00,VWS V14.00,2013-12-10 18:37:00,
2013-12-10 11:38:00,29.9,16.9,31.34,SSE,164,7.0,7.0,58,0.00,,,0.00,244.00,VWS V14.00,2013-12-10 18:38:00,
2013-12-10 11:39:00,29.9,16.9,31.34,SSE,160,5.0,7.0,58,0.00,,,0.00,241.00,VWS V14.00,2013-12-10 18:39:00,
2013-12-10 11:40:00,30.0,16.6,31.34,SSE,168,4.0,7.0,57,0.00,,,0.00,232.00,VWS V14.00,2013-12-10 18:40:00,
2013-12-10 11:41:00,30.0,17.0,31.34,SSE,160,4.0,7.0,58,0.00,,,0.00,225.00,VWS V14.00,2013-12-10 18:41:00,
2013-12-10 11:42:00,30.0,16.6,31.34,SSE,160,4.0,7.0,57,0.00,,,0.00,220.00,VWS V14.00,2013-12-10 18:42:00,
2013-12-10 11:43:00,30.1,17.1,31.34,SSE,158,5.0,7.0,58,0.00,,,0.00,214.00,VWS V14.00,2013-12-10 18:43:00,
2013-12-10 11:44:00,30.1,16.7,31.34,South,169,6.0,7.0,57,0.00,,,0.00,214.00,VWS V14.00,2013-12-10 18:44:00,
2013-12-10 11:45:00,30.1,16.7,31.34,SSE,155,4.0,7.0,57,0.00,,,0.00,214.00,VWS V14.00,2013-12-10 18:45:00,
2013-12-10 11:46:00,30.1,16.7,31.34,SSE,157,6.0,7.0,57,0.00,,,0.00,216.00,VWS V14.00,2013-12-10 18:46:00,
2013-12-10 11:47:00,30.2,17.2,31.34,SSE,161,3.0,7.0,58,0.00,,,0.00,216.00,VWS V14.00,2013-12-10 18:47:00,
2013-12-10 11:48:00,30.2,16.8,31.34,SSW,194,3.0,7.0,57,0.00,,,0.00,216.00,VWS V14.00,2013-12-10 18:48:00,
2013-12-10 11:49:00,30.2,16.8,31.34,SSW,194,1.0,7.0,57,0.00,,,0.00,239.00,VWS V14.00,2013-12-10 18:49:00,
2013-12-10 11:50:00,30.3,16.9,31.34,South,190,0.0,7.0,57,0.00,,,0.00,209.00,VWS V14.00,2013-12-10 18:50:00,
2013-12-10 11:51:00,30.3,16.9,31.34,South,190,3.0,7.0,57,0.00,,,0.00,207.00,VWS V14.00,2013-12-10 18:51:00,
2013-12-10 11:52:00,30.3,16.9,31.34,South,190,0.0,7.0,57,0.00,,,0.00,206.00,VWS V14.00,2013-12-10 18:52:00,
2013-12-10 11:53:00,30.4,16.6,31.34,South,191,3.0,7.0,56,0.00,,,0.00,204.00,VWS V14.00,2013-12-10 18:53:00,
2013-12-10 11:54:00,30.4,16.2,31.34,South,191,2.0,7.0,55,0.00,,,0.00,202.00,VWS V14.00,2013-12-10 18:54:00,
2013-12-10 11:55:00,30.5,16.3,31.34,SSW,192,4.0,7.0,55,0.00,,,0.00,197.00,VWS V14.00,2013-12-10 18:55:00,
2013-12-10 11:56:00,30.5,16.3,31.33,South,190,3.0,9.0,55,0.00,,,0.00,195.00,VWS V14.00,2013-12-10 18:56:00,
2013-12-10 11:57:00,30.5,15.9,31.33,South,190,0.0,9.0,54,0.00,,,0.00,192.00,VWS V14.00,2013-12-10 18:57:00,
2013-12-10 11:58:00,30.6,15.9,31.33,South,190,2.0,9.0,54,0.00,,,0.00,186.00,VWS V14.00,2013-12-10 18:58:00,
2013-12-10 11:59:00,30.6,15.9,31.33,SSE,164,2.0,9.0,54,0.00,,,0.00,181.00,VWS V14.00,2013-12-10 18:59:00,
2013-12-10 12:00:00,30.6,15.9,31.33,SSE,162,4.0,9.0,54,0.00,,,0.00,181.00,VWS V14.00,2013-12-10 19:00:00,
2013-12-10 12:01:00,30.6,15.9,31.32,SSE,155,4.0,7.0,54,0.00,,,0.00,179.00,VWS V14.00,2013-12-10 19:01:00,
2013-12-10 12:02:00,30.6,16.4,31.32,SSE,164,4.0,7.0,55,0.00,,,0.00,183.00,VWS V14.00,2013-12-10 19:02:00,
2013-12-10 12:03:00,30.6,16.4,31.32,SSE,165,0.0,7.0,55,0.00,,,0.00,185.00,VWS V14.00,2013-12-10 19:03:00,
2013-12-10 12:04:00,30.6,15.9,31.32,SSE,159,2.0,7.0,54,0.00,,,0.00,185.00,VWS V14.00,2013-12-10 19:04:00,
2013-12-10 12:05:00,30.6,15.5,31.32,SSE,159,2.0,7.0,53,0.00,,,0.00,183.00,VWS V14.00,2013-12-10 19:05:00,
2013-12-10 12:06:00,30.6,15.5,31.32,South,183,7.0,7.0,53,0.00,,,0.00,183.00,VWS V14.00,2013-12-10 19:06:00,
2013-12-10 12:07:00,30.6,15.9,31.32,South,191,9.0,9.0,54,0.00,,,0.00,181.00,VWS V14.00,2013-12-10 19:07:00,
2013-12-10 12:08:00,30.6,15.9,31.32,SSW,195,4.0,9.0,54,0.00,,,0.00,179.00,VWS V14.00,2013-12-10 19:08:00,
2013-12-10 12:09:00,30.6,16.4,31.33,South,188,5.0,9.0,55,0.00,,,0.00,178.00,VWS V14.00,2013-12-10 19:09:00,
2013-12-10 12:10:00,30.6,15.9,31.33,South,188,0.0,9.0,54,0.00,,,0.00,176.00,VWS V14.00,2013-12-10 19:10:00,
2013-12-10 12:11:00,30.6,15.9,31.33,South,189,0.0,9.0,54,0.00,,,0.00,174.00,VWS V14.00,2013-12-10 19:11:00,
2013-12-10 12:12:00,30.7,16.0,31.33,South,190,4.0,9.0,54,0.00,,,0.00,176.00,VWS V14.00,2013-12-10 19:12:00,
2013-12-10 12:13:00,30.7,16.0,31.33,South,190,3.0,9.0,54,0.00,,,0.00,174.00,VWS V14.00,2013-12-10 19:13:00,
2013-12-10 12:14:00,30.7,16.0,31.33,South,190,0.0,9.0,54,0.00,,,0.00,171.00,VWS V14.00,2013-12-10 19:14:00,
2013-12-10 12:15:00,30.7,16.0,31.33,South,190,0.0,9.0,54,0.00,,,0.00,167.00,VWS V14.00,2013-12-10 19:15:00,
2013-12-10 12:16:00,30.7,16.5,31.33,South,190,0.0,0.0,55,0.00,,,0.00,165.00,VWS V14.00,2013-12-10 19:16:00,
2013-12-10 12:17:00,30.8,16.5,31.33,South,190,0.0,0.0,55,0.00,,,0.00,163.00,VWS V14.00,2013-12-10 19:17:00,
2013-12-10 12:18:00,30.8,16.5,31.33,South,190,0.0,0.0,55,0.00,,,0.00,163.00,VWS V14.00,2013-12-10 19:18:00,
2013-12-10 12:19:00,30.8,16.5,31.33,South,190,0.0,0.0,55,0.00,,,0.00,160.00,VWS V14.00,2013-12-10 19:19:00,
2013-12-10 12:20:00,30.8,16.5,31.33,South,190,1.0,1.0,55,0.00,,,0.00,156.00,VWS V14.00,2013-12-10 19:20:00,
2013-12-10 12:21:00,30.9,16.6,31.33,South,190,2.0,3.0,55,0.00,,,0.00,155.00,VWS V14.00,2013-12-10 19:21:00,
2013-12-10 12:22:00,30.9,16.6,31.33,South,190,0.0,3.0,55,0.00,,,0.00,155.00,VWS V14.00,2013-12-10 19:22:00,
2013-12-10 12:23:00,30.9,16.6,31.33,South,190,0.0,3.0,55,0.00,,,0.00,155.00,VWS V14.00,2013-12-10 19:23:00,
2013-12-10 12:24:00,30.9,16.6,31.33,South,190,0.0,3.0,55,0.00,,,0.00,155.00,VWS V14.00,2013-12-10 19:24:00,
2013-12-10 12:25:00,30.9,16.6,31.33,South,190,2.0,5.0,55,0.00,,,0.00,151.00,VWS V14.00,2013-12-10 19:25:00,
2013-12-10 12:26:00,31.0,16.7,31.33,South,190,1.0,5.0,55,0.00,,,0.00,151.00,VWS V14.00,2013-12-10 19:26:00,
2013-12-10 12:27:00,31.0,16.7,31.33,South,190,4.0,5.0,55,0.00,,,0.00,149.00,VWS V14.00,2013-12-10 19:27:00,
2013-12-10 12:28:00,31.0,17.2,31.33,South,190,5.0,5.0,56,0.00,,,0.00,148.00,VWS V14.00,2013-12-10 19:28:00,
2013-12-10 12:29:00,31.0,16.3,31.33,South,186,1.0,6.0,54,0.00,,,0.00,148.00,VWS V14.00,2013-12-10 19:29:00,
2013-12-10 12:30:00,31.0,16.3,31.33,South,186,0.0,6.0,54,0.00,,,0.00,146.00,VWS V14.00,2013-12-10 19:30:00,
2013-12-10 12:31:00,31.0,16.3,31.33,South,186,0.0,0.0,54,0.00,,,0.00,137.00,VWS V14.00,2013-12-10 19:31:00,
2013-12-10 12:32:00,31.0,16.3,31.33,South,186,0.0,0.0,54,0.00,,,0.00,135.00,VWS V14.00,2013-12-10 19:32:00,
2013-12-10 12:33:00,31.0,16.3,31.33,West,280,0.0,4.0,54,0.00,,,0.00,134.00,VWS V14.00,2013-12-10 19:33:00,
2013-12-10 12:34:00,31.0,15.9,31.33,West,279,3.0,4.0,53,0.00,,,0.00,130.00,VWS V14.00,2013-12-10 19:34:00,
2013-12-10 12:35:00,31.0,15.4,31.33,West,276,3.0,5.0,52,0.00,,,0.00,128.00,VWS V14.00,2013-12-10 19:35:00,
2013-12-10 12:36:00,31.0,15.9,31.34,West,276,2.0,5.0,53,0.00,,,0.00,125.00,VWS V14.00,2013-12-10 19:36:00,
2013-12-10 12:37:00,31.0,16.3,31.34,West,276,0.0,5.0,54,0.00,,,0.00,125.00,VWS V14.00,2013-12-10 19:37:00,
2013-12-10 12:38:00,31.0,15.9,31.34,West,276,0.0,5.0,53,0.00,,,0.00,125.00,VWS V14.00,2013-12-10 19:38:00,
2013-12-10 12:39:00,31.0,15.9,31.34,West,276,0.0,5.0,53,0.00,,,0.00,123.00,VWS V14.00,2013-12-10 19:39:00,
2013-12-10 12:40:00,31.0,15.9,31.34,West,276,0.0,5.0,53,0.00,,,0.00,123.00,VWS V14.00,2013-12-10 19:40:00,
2013-12-10 12:41:00,31.0,16.3,31.34,West,276,0.0,5.0,54,0.00,,,0.00,123.00,VWS V14.00,2013-12-10 19:41:00,
2013-12-10 12:42:00,30.9,16.2,31.34,West,276,0.0,5.0,54,0.00,,,0.00,120.00,VWS V14.00,2013-12-10 19:42:00,
2013-12-10 12:43:00,30.9,15.8,31.34,West,276,0.0,5.0,53,0.00,,,0.00,118.00,VWS V14.00,2013-12-10 19:43:00,
2013-12-10 12:44:00,30.9,15.8,31.34,West,276,0.0,5.0,53,0.00,,,0.00,116.00,VWS V14.00,2013-12-10 19:44:00,
2013-12-10 12:45:00,30.9,16.2,31.34,West,276,0.0,5.0,54,0.00,,,0.00,118.00,VWS V14.00,2013-12-10 19:45:00,
2013-12-10 12:46:00,30.8,16.1,31.34,West,276,0.0,0.0,54,0.00,,,0.00,118.00,VWS V14.00,2013-12-10 19:46:00,
2013-12-10 12:47:00,30.8,16.1,31.34,West,276,0.0,0.0,54,0.00,,,0.00,120.00,VWS V14.00,2013-12-10 19:47:00,
2013-12-10 12:48:00,30.8,16.1,31.34,West,276,0.0,0.0,54,0.00,,,0.00,120.00,VWS V14.00,2013-12-10 19:48:00,
2013-12-10 12:49:00,30.8,15.7,31.34,West,276,0.0,0.0,53,0.00,,,0.00,120.00,VWS V14.00,2013-12-10 19:49:00,
2013-12-10 12:50:00,30.8,15.3,31.34,West,276,0.0,0.0,52,0.00,,,0.00,121.00,VWS V14.00,2013-12-10 19:50:00,
2013-12-10 12:51:00,30.8,16.1,31.34,West,276,0.0,0.0,54,0.00,,,0.00,123.00,VWS V14.00,2013-12-10 19:51:00,
2013-12-10 12:52:00,30.8,16.1,31.34,West,276,0.0,0.0,54,0.00,,,0.00,125.00,VWS V14.00,2013-12-10 19:52:00,
2013-12-10 12:53:00,30.8,15.7,31.34,West,276,0.0,0.0,53,0.00,,,0.00,123.00,VWS V14.00,2013-12-10 19:53:00,
2013-12-10 12:54:00,30.8,15.7,31.34,West,276,0.0,0.0,53,0.00,,,0.00,127.00,VWS V14.00,2013-12-10 19:54:00,
2013-12-10 12:55:00,30.8,15.7,31.34,West,276,0.0,0.0,53,0.00,,,0.00,130.00,VWS V14.00,2013-12-10 19:55:00,
2013-12-10 12:56:00,30.8,15.7,31.34,West,276,0.0,0.0,53,0.00,,,0.00,134.00,VWS V14.00,2013-12-10 19:56:00,
2013-12-10 12:57:00,30.8,15.7,31.34,West,276,0.0,0.0,53,0.00,,,0.00,137.00,VWS V14.00,2013-12-10 19:57:00,
2013-12-10 12:58:00,30.8,15.7,31.34,West,276,0.0,0.0,53,0.00,,,0.00,141.00,VWS V14.00,2013-12-10 19:58:00,
2013-12-10 12:59:00,30.8,15.7,31.34,West,276,0.0,0.0,53,0.00,,,0.00,144.00,VWS V14.00,2013-12-10 19:59:00,
2013-12-10 13:00:00,30.8,15.7,31.34,West,276,0.0,0.0,53,0.00,,,0.00,146.00,VWS V14.00,2013-12-10 20:00:00,
2013-12-10 13:01:00,30.9,15.8,31.34,West,276,0.0,0.0,53,0.00,,,0.00,148.00,VWS V14.00,2013-12-10 20:01:00,
2013-12-10 13:02:00,30.9,15.8,31.34,West,276,0.0,0.0,53,0.00,,,0.00,149.00,VWS V14.00,2013-12-10 20:02:00,
2013-12-10 13:03:00,30.9,15.8,31.34,West,276,0.0,0.0,53,0.00,,,0.00,151.00,VWS V14.00,2013-12-10 20:03:00,
2013-12-10 13:04:00,30.9,15.8,31.34,West,276,0.0,0.0,53,0.00,,,0.00,153.00,VWS V14.00,2013-12-10 20:04:00,
2013-12-10 13:05:00,30.9,15.8,31.34,West,276,0.0,0.0,53,0.00,,,0.00,158.00,VWS V14.00,2013-12-10 20:05:00,
2013-12-10 13:06:00,31.0,15.9,31.34,West,276,0.0,0.0,53,0.00,,,0.00,158.00,VWS V14.00,2013-12-10 20:06:00,
2013-12-10 13:07:00,30.9,15.8,31.34,West,276,0.0,0.0,53,0.00,,,0.00,155.00,VWS V14.00,2013-12-10 20:07:00,
2013-12-10 13:08:00,31.0,16.3,31.34,West,276,0.0,0.0,54,0.00,,,0.00,156.00,VWS V14.00,2013-12-10 20:08:00,
2013-12-10 13:09:00,31.0,16.3,31.34,West,276,0.0,0.0,54,0.00,,,0.00,158.00,VWS V14.00,2013-12-10 20:09:00,
2013-12-10 13:10:00,31.0,15.9,31.34,West,276,0.0,0.0,53,0.00,,,0.00,156.00,VWS V14.00,2013-12-10 20:10:00,
2013-12-10 13:11:00,31.0,15.4,31.34,West,276,0.0,0.0,52,0.00,,,0.00,156.00,VWS V14.00,2013-12-10 20:11:00,
2013-12-10 13:12:00,31.0,15.9,31.34,West,276,0.0,0.0,53,0.00,,,0.00,158.00,VWS V14.00,2013-12-10 20:12:00,
2013-12-10 13:13:00,31.0,15.4,31.34,West,276,0.0,0.0,52,0.00,,,0.00,158.00,VWS V14.00,2013-12-10 20:13:00,
2013-12-10 13:14:00,31.0,15.9,31.35,West,276,0.0,0.0,53,0.00,,,0.00,158.00,VWS V14.00,2013-12-10 20:14:00,
2013-12-10 13:15:00,31.1,15.5,31.34,West,276,0.0,0.0,52,0.00,,,0.00,156.00,VWS V14.00,2013-12-10 20:15:00,
2013-12-10 13:16:00,31.1,15.5,31.34,West,276,1.0,3.0,52,0.00,,,0.00,158.00,VWS V14.00,2013-12-10 20:16:00,
2013-12-10 13:17:00,31.0,15.9,31.34,West,276,0.0,3.0,53,0.00,,,0.00,163.00,VWS V14.00,2013-12-10 20:17:00,
2013-12-10 13:18:00,31.1,16.0,31.34,West,276,0.0,3.0,53,0.00,,,0.00,162.00,VWS V14.00,2013-12-10 20:18:00,
2013-12-10 13:19:00,31.1,16.0,31.34,West,276,0.0,3.0,53,0.00,,,0.00,160.00,VWS V14.00,2013-12-10 20:19:00,
2013-12-10 13:20:00,31.1,16.0,31.34,West,276,0.0,3.0,53,0.00,,,0.00,160.00,VWS V14.00,2013-12-10 20:20:00,
2013-12-10 13:21:00,31.2,16.1,31.34,West,276,0.0,3.0,53,0.00,,,0.00,163.00,VWS V14.00,2013-12-10 20:21:00,
2013-12-10 13:22:00,31.2,16.1,31.34,West,276,0.0,3.0,53,0.00,,,0.00,172.00,VWS V14.00,2013-12-10 20:22:00,
2013-12-10 13:23:00,31.2,16.1,31.34,West,276,0.0,3.0,53,0.00,,,0.00,172.00,VWS V14.00,2013-12-10 20:23:00,
2013-12-10 13:24:00,31.2,16.1,31.34,West,276,0.0,3.0,53,0.00,,,0.00,172.00,VWS V14.00,2013-12-10 20:24:00,
2013-12-10 13:25:00,31.3,16.2,31.34,West,276,0.0,3.0,53,0.00,,,0.00,171.00,VWS V14.00,2013-12-10 20:25:00,
2013-12-10 13:26:00,31.3,15.7,31.34,West,276,0.0,3.0,52,0.00,,,0.00,169.00,VWS V14.00,2013-12-10 20:26:00,
2013-12-10 13:27:00,31.3,16.2,31.34,West,276,0.0,3.0,53,0.00,,,0.00,178.00,VWS V14.00,2013-12-10 20:27:00,
2013-12-10 13:28:00,31.3,16.2,31.34,West,276,1.0,3.0,53,0.00,,,0.00,183.00,VWS V14.00,2013-12-10 20:28:00,
2013-12-10 13:29:00,31.4,15.8,31.34,West,276,0.0,3.0,52,0.00,,,0.00,181.00,VWS V14.00,2013-12-10 20:29:00,
2013-12-10 13:30:00,31.4,15.8,31.34,West,276,0.0,3.0,52,0.00,,,0.00,179.00,VWS V14.00,2013-12-10 20:30:00,
2013-12-10 13:31:00,31.4,15.8,31.34,West,276,0.0,0.0,52,0.00,,,0.00,178.00,VWS V14.00,2013-12-10 20:31:00,
2013-12-10 13:32:00,31.5,17.2,31.34,West,276,0.0,0.0,55,0.00,,,0.00,174.00,VWS V14.00,2013-12-10 20:32:00,
2013-12-10 13:33:00,31.5,16.8,31.33,West,276,0.0,0.0,54,0.00,,,0.00,171.00,VWS V14.00,2013-12-10 20:33:00,
2013-12-10 13:34:00,31.5,16.8,31.33,West,276,0.0,0.0,54,0.00,,,0.00,169.00,VWS V14.00,2013-12-10 20:34:00,
2013-12-10 13:35:00,31.5,16.4,31.33,West,276,0.0,0.0,53,0.00,,,0.00,167.00,VWS V14.00,2013-12-10 20:35:00,
2013-12-10 13:36:00,31.5,15.9,31.33,West,276,0.0,0.0,52,0.00,,,0.00,167.00,VWS V14.00,2013-12-10 20:36:00,
2013-12-10 13:37:00,31.5,15.9,31.33,West,276,0.0,0.0,52,0.00,,,0.00,169.00,VWS V14.00,2013-12-10 20:37:00,
2013-12-10 13:38:00,31.5,15.5,31.33,West,276,0.0,0.0,51,0.00,,,0.00,169.00,VWS V14.00,2013-12-10 20:38:00,
2013-12-10 13:39:00,31.5,15.5,31.33,West,276,0.0,0.0,51,0.00,,,0.00,167.00,VWS V14.00,2013-12-10 20:39:00,
2013-12-10 13:40:00,31.6,16.0,31.33,West,276,0.0,0.0,52,0.00,,,0.00,162.00,VWS V14.00,2013-12-10 20:40:00,
2013-12-10 13:41:00,31.6,16.0,31.33,West,276,0.0,0.0,52,0.00,,,0.00,158.00,VWS V14.00,2013-12-10 20:41:00,
2013-12-10 13:42:00,31.6,16.5,31.33,West,276,0.0,0.0,53,0.00,,,0.00,155.00,VWS V14.00,2013-12-10 20:42:00,
2013-12-10 13:43:00,31.6,16.0,31.33,West,276,0.0,0.0,52,0.00,,,0.00,155.00,VWS V14.00,2013-12-10 20:43:00,
2013-12-10 13:44:00,31.6,16.5,31.33,West,276,0.0,0.0,53,0.00,,,0.00,155.00,VWS V14.00,2013-12-10 20:44:00,
2013-12-10 13:45:00,31.6,16.5,31.32,West,276,0.0,0.0,53,0.00,,,0.00,153.00,VWS V14.00,2013-12-10 20:45:00,
2013-12-10 13:46:00,31.6,16.5,31.33,West,276,0.0,0.0,53,0.00,,,0.00,153.00,VWS V14.00,2013-12-10 20:46:00,
2013-12-10 13:47:00,31.6,16.0,31.33,West,276,0.0,0.0,52,0.00,,,0.00,151.00,VWS V14.00,2013-12-10 20:47:00,
2013-12-10 13:48:00,31.6,15.6,31.32,West,276,0.0,0.0,51,0.00,,,0.00,153.00,VWS V14.00,2013-12-10 20:48:00,
2013-12-10 13:49:00,31.6,15.6,31.33,West,276,0.0,0.0,51,0.00,,,0.00,155.00,VWS V14.00,2013-12-10 20:49:00,
2013-12-10 13:50:00,31.6,15.6,31.33,West,276,0.0,0.0,51,0.00,,,0.00,156.00,VWS V14.00,2013-12-10 20:50:00,
2013-12-10 13:51:00,31.6,15.6,31.33,West,276,0.0,0.0,51,0.00,,,0.00,156.00,VWS V14.00,2013-12-10 20:51:00,
2013-12-10 13:52:00,31.6,16.0,31.32,West,276,0.0,0.0,52,0.00,,,0.00,156.00,VWS V14.00,2013-12-10 20:52:00,
2013-12-10 13:53:00,31.6,16.0,31.32,West,276,0.0,0.0,52,0.00,,,0.00,156.00,VWS V14.00,2013-12-10 20:53:00,
2013-12-10 13:54:00,31.7,16.1,31.32,West,276,0.0,0.0,52,0.00,,,0.00,153.00,VWS V14.00,2013-12-10 20:54:00,
2013-12-10 13:55:00,31.7,15.7,31.32,West,276,0.0,0.0,51,0.00,,,0.00,149.00,VWS V14.00,2013-12-10 20:55:00,
2013-12-10 13:56:00,31.7,15.7,31.32,West,276,0.0,0.0,51,0.00,,,0.00,148.00,VWS V14.00,2013-12-10 20:56:00,
2013-12-10 13:57:00,31.7,15.2,31.32,West,276,0.0,0.0,50,0.00,,,0.00,148.00,VWS V14.00,2013-12-10 20:57:00,
2013-12-10 13:58:00,31.7,15.2,31.33,West,276,0.0,0.0,50,0.01,,,0.01,148.00,VWS V14.00,2013-12-10 20:58:00,
2013-12-10 13:59:00,31.7,15.2,31.32,West,276,0.0,0.0,50,0.01,,,0.01,148.00,VWS V14.00,2013-12-10 20:59:00,
2013-12-10 14:00:00,31.8,15.3,31.33,West,276,0.0,0.0,50,0.01,,,0.01,146.00,VWS V14.00,2013-12-10 21:00:00,
2013-12-10 14:01:00,31.8,15.3,31.33,West,276,0.0,0.0,50,0.01,,,0.01,142.00,VWS V14.00,2013-12-10 21:01:00,
2013-12-10 14:02:00,31.9,15.8,31.34,West,276,0.0,0.0,51,0.01,,,0.01,142.00,VWS V14.00,2013-12-10 21:02:00,
2013-12-10 14:03:00,31.9,15.8,31.34,West,276,0.0,0.0,51,0.01,,,0.01,142.00,VWS V14.00,2013-12-10 21:03:00,
2013-12-10 14:04:00,31.9,15.8,31.34,West,276,0.0,0.0,51,0.01,,,0.01,144.00,VWS V14.00,2013-12-10 21:04:00,
2013-12-10 14:05:00,32.0,15.9,31.34,West,276,0.0,0.0,51,0.01,,,0.01,144.00,VWS V14.00,2013-12-10 21:05:00,
2013-12-10 14:06:00,32.0,15.9,31.33,West,276,0.0,0.0,51,0.01,,,0.01,149.00,VWS V14.00,2013-12-10 21:06:00,
2013-12-10 14:07:00,32.0,15.5,31.33,West,276,0.0,0.0,50,0.01,,,0.01,155.00,VWS V14.00,2013-12-10 21:07:00,
2013-12-10 14:08:00,32.0,15.9,31.34,West,276,0.0,0.0,51,0.01,,,0.01,221.00,VWS V14.00,2013-12-10 21:08:00,
2013-12-10 14:09:00,32.1,16.0,31.33,West,276,0.0,0.0,51,0.01,,,0.01,165.00,VWS V14.00,2013-12-10 21:09:00,
2013-12-10 14:10:00,32.1,16.5,31.33,West,276,0.0,0.0,52,0.01,,,0.01,167.00,VWS V14.00,2013-12-10 21:10:00,
2013-12-10 14:11:00,32.1,16.0,31.33,West,276,0.0,0.0,51,0.01,,,0.01,160.00,VWS V14.00,2013-12-10 21:11:00,
2013-12-10 14:12:00,32.2,16.1,31.33,West,276,0.0,0.0,51,0.01,,,0.01,160.00,VWS V14.00,2013-12-10 21:12:00,
2013-12-10 14:13:00,32.2,16.1,31.33,West,276,0.0,0.0,51,0.01,,,0.01,160.00,VWS V14.00,2013-12-10 21:13:00,
2013-12-10 14:14:00,32.2,16.1,31.33,West,276,0.0,0.0,51,0.01,,,0.01,176.00,VWS V14.00,2013-12-10 21:14:00,
2013-12-10 14:15:00,32.3,16.2,31.33,West,276,0.0,0.0,51,0.01,,,0.01,195.00,VWS V14.00,2013-12-10 21:15:00,
2013-12-10 14:16:00,32.3,15.8,31.33,West,276,0.0,0.0,50,0.01,,,0.01,338.00,VWS V14.00,2013-12-10 21:16:00,
2013-12-10 14:17:00,32.3,15.8,31.33,West,276,0.0,0.0,50,0.01,,,0.01,315.00,VWS V14.00,2013-12-10 21:17:00,
2013-12-10 14:18:00,32.4,16.3,31.33,West,276,0.0,0.0,51,0.01,,,0.01,364.00,VWS V14.00,2013-12-10 21:18:00,
2013-12-10 14:19:00,32.5,15.9,31.33,West,276,0.0,0.0,50,0.01,,,0.01,352.00,VWS V14.00,2013-12-10 21:19:00,
2013-12-10 14:20:00,32.6,16.0,31.32,West,276,0.0,0.0,50,0.01,,,0.01,366.00,VWS V14.00,2013-12-10 21:20:00,
2013-12-10 14:21:00,32.7,15.7,31.32,West,276,0.0,0.0,49,0.01,,,0.01,327.00,VWS V14.00,2013-12-10 21:21:00,
2013-12-10 14:22:00,32.9,15.9,31.33,West,276,0.0,0.0,49,0.01,,,0.01,332.00,VWS V14.00,2013-12-10 21:22:00,
2013-12-10 14:23:00,33.0,15.9,31.32,West,276,0.0,0.0,49,0.01,,,0.01,343.00,VWS V14.00,2013-12-10 21:23:00,
2013-12-10 14:24:00,33.1,16.0,31.32,West,276,0.0,0.0,49,0.01,,,0.01,311.00,VWS V14.00,2013-12-10 21:24:00,
2013-12-10 14:25:00,33.2,16.1,31.32,West,276,0.0,0.0,49,0.01,,,0.01,260.00,VWS V14.00,2013-12-10 21:25:00,
2013-12-10 14:26:00,33.2,16.1,31.32,West,276,0.0,0.0,49,0.01,,,0.01,348.00,VWS V14.00,2013-12-10 21:26:00,
2013-12-10 14:27:00,33.3,16.2,31.32,West,276,0.0,0.0,49,0.01,,,0.01,244.00,VWS V14.00,2013-12-10 21:27:00,
2013-12-10 14:28:00,33.4,15.8,31.32,West,276,0.0,0.0,48,0.01,,,0.01,304.00,VWS V14.00,2013-12-10 21:28:00,
2013-12-10 14:29:00,33.5,16.9,31.32,West,276,0.0,0.0,50,0.01,,,0.01,304.00,VWS V14.00,2013-12-10 21:29:00,
2013-12-10 14:30:00,33.5,16.4,31.32,West,276,0.0,0.0,49,0.01,,,0.01,148.00,VWS V14.00,2013-12-10 21:30:00,
2013-12-10 14:31:00,33.6,17.0,31.32,West,276,0.0,0.0,50,0.01,,,0.01,148.00,VWS V14.00,2013-12-10 21:31:00,
2013-12-10 14:32:00,33.6,16.5,31.32,West,276,0.0,0.0,49,0.01,,,0.01,148.00,VWS V14.00,2013-12-10 21:32:00,
2013-12-10 14:33:00,33.7,16.6,31.32,West,276,0.0,0.0,49,0.01,,,0.01,206.00,VWS V14.00,2013-12-10 21:33:00,
2013-12-10 14:34:00,33.7,16.6,31.32,West,276,0.0,0.0,49,0.01,,,0.01,193.00,VWS V14.00,2013-12-10 21:34:00,
2013-12-10 14:35:00,33.7,16.1,31.32,West,276,0.0,0.0,48,0.01,,,0.01,135.00,VWS V14.00,2013-12-10 21:35:00,
2013-12-10 14:36:00,33.8,15.7,31.32,West,276,0.0,0.0,47,0.01,,,0.01,135.00,VWS V14.00,2013-12-10 21:36:00,
2013-12-10 14:37:00,33.8,16.7,31.32,West,276,0.0,0.0,49,0.01,,,0.01,274.00,VWS V14.00,2013-12-10 21:37:00,
2013-12-10 14:38:00,33.9,16.8,31.32,West,276,0.0,0.0,49,0.01,,,0.01,274.00,VWS V14.00,2013-12-10 21:38:00,
2013-12-10 14:39:00,33.9,16.3,31.32,West,276,0.0,0.0,48,0.01,,,0.01,121.00,VWS V14.00,2013-12-10 21:39:00,
2013-12-10 14:40:00,33.9,15.8,31.32,West,276,0.0,0.0,47,0.01,,,0.01,234.00,VWS V14.00,2013-12-10 21:40:00,
2013-12-10 14:41:00,33.9,15.8,31.32,West,276,0.0,0.0,47,0.02,,,0.02,276.00,VWS V14.00,2013-12-10 21:41:00,
2013-12-10 14:42:00,33.9,15.8,31.32,West,276,0.0,0.0,47,0.02,,,0.02,276.00,VWS V14.00,2013-12-10 21:42:00,
2013-12-10 14:43:00,33.9,16.3,31.32,West,276,0.0,0.0,48,0.02,,,0.02,181.00,VWS V14.00,2013-12-10 21:43:00,
2013-12-10 14:44:00,33.9,16.3,31.32,West,276,0.0,0.0,48,0.02,,,0.02,225.00,VWS V14.00,2013-12-10 21:44:00,
2013-12-10 14:45:00,33.9,16.3,31.32,West,276,0.0,0.0,48,0.02,,,0.02,107.00,VWS V14.00,2013-12-10 21:45:00,
2013-12-10 14:46:00,33.9,16.8,31.32,West,276,0.0,0.0,49,0.02,,,0.02,107.00,VWS V14.00,2013-12-10 21:46:00,
2013-12-10 14:47:00,33.9,16.8,31.32,West,276,0.0,0.0,49,0.02,,,0.02,107.00,VWS V14.00,2013-12-10 21:47:00,
2013-12-10 14:48:00,33.9,16.8,31.32,West,276,0.0,0.0,49,0.02,,,0.02,113.00,VWS V14.00,2013-12-10 21:48:00,
2013-12-10 14:49:00,33.9,16.8,31.32,West,276,0.0,0.0,49,0.02,,,0.02,113.00,VWS V14.00,2013-12-10 21:49:00,
2013-12-10 14:50:00,33.9,16.8,31.32,West,276,0.0,0.0,49,0.02,,,0.02,114.00,VWS V14.00,2013-12-10 21:50:00,
2013-12-10 14:51:00,33.9,16.3,31.32,West,276,3.0,3.0,48,0.02,,,0.02,120.00,VWS V14.00,2013-12-10 21:51:00,
2013-12-10 14:52:00,33.8,16.2,31.32,West,275,3.0,4.0,48,0.02,,,0.02,123.00,VWS V14.00,2013-12-10 21:52:00,
2013-12-10 14:53:00,33.7,16.1,31.32,South,169,3.0,5.0,48,0.02,,,0.02,123.00,VWS V14.00,2013-12-10 21:53:00,
2013-12-10 14:54:00,33.6,16.0,31.32,SSE,165,1.0,5.0,48,0.02,,,0.02,118.00,VWS V14.00,2013-12-10 21:54:00,
2013-12-10 14:55:00,33.5,15.9,31.32,SSE,167,2.0,5.0,48,0.02,,,0.02,111.00,VWS V14.00,2013-12-10 21:55:00,
2013-12-10 14:56:00,33.4,16.3,31.32,SSE,167,1.0,5.0,49,0.02,,,0.02,104.00,VWS V14.00,2013-12-10 21:56:00,
2013-12-10 14:57:00,33.4,16.8,31.32,SSE,167,0.0,5.0,50,0.02,,,0.02,90.00,VWS V14.00,2013-12-10 21:57:00,
2013-12-10 14:58:00,33.4,16.3,31.32,SSE,167,0.0,5.0,49,0.02,,,0.02,83.00,VWS V14.00,2013-12-10 21:58:00,
2013-12-10 14:59:00,33.3,16.2,31.32,SSE,167,0.0,5.0,49,0.02,,,0.02,76.00,VWS V14.00,2013-12-10 21:59:00,
2013-12-10 15:00:00,33.3,16.7,31.33,SSE,167,0.0,5.0,50,0.02,,,0.02,69.00,VWS V14.00,2013-12-10 22:00:00,
2013-12-10 15:01:00,33.3,16.7,31.34,SSE,167,0.0,0.0,50,0.01,,,0.02,63.00,VWS V14.00,2013-12-10 22:01:00,
2013-12-10 15:02:00,33.3,16.7,31.34,SSE,167,0.0,0.0,50,0.01,,,0.02,58.00,VWS V14.00,2013-12-10 22:02:00,
2013-12-10 15:03:00,33.2,16.6,31.34,SSE,167,0.0,0.0,50,0.01,,,0.02,54.00,VWS V14.00,2013-12-10 22:03:00,
2013-12-10 15:04:00,33.2,16.6,31.34,SSE,167,0.0,0.0,50,0.01,,,0.02,53.00,VWS V14.00,2013-12-10 22:04:00,
2013-12-10 15:05:00,33.1,16.5,31.34,SSE,167,2.0,2.0,50,0.01,,,0.02,51.00,VWS V14.00,2013-12-10 22:05:00,
2013-12-10 15:06:00,33.0,15.9,31.34,WSW,249,4.0,4.0,49,0.01,,,0.02,53.00,VWS V14.00,2013-12-10 22:06:00,
2013-12-10 15:07:00,32.9,15.9,31.34,WSW,249,2.0,4.0,49,0.01,,,0.02,58.00,VWS V14.00,2013-12-10 22:07:00,
2013-12-10 15:08:00,32.8,15.8,31.34,WSW,249,0.0,4.0,49,0.01,,,0.02,62.00,VWS V14.00,2013-12-10 22:08:00,
2013-12-10 15:09:00,32.7,15.2,31.34,WSW,249,0.0,4.0,48,0.01,,,0.02,67.00,VWS V14.00,2013-12-10 22:09:00,
2013-12-10 15:10:00,32.6,15.1,31.34,WSW,249,0.0,4.0,48,0.01,,,0.02,69.00,VWS V14.00,2013-12-10 22:10:00,
2013-12-10 15:11:00,32.5,15.5,31.34,WSW,249,2.0,4.0,49,0.01,,,0.02,70.00,VWS V14.00,2013-12-10 22:11:00,
2013-12-10 15:12:00,32.5,15.5,31.34,WSW,249,1.0,4.0,49,0.01,,,0.02,70.00,VWS V14.00,2013-12-10 22:12:00,
2013-12-10 15:13:00,32.4,15.9,31.34,WSW,249,2.0,4.0,50,0.01,,,0.02,72.00,VWS V14.00,2013-12-10 22:13:00,
2013-12-10 15:14:00,32.3,16.2,31.34,WSW,249,2.0,4.0,51,0.01,,,0.02,72.00,VWS V14.00,2013-12-10 22:14:00,
2013-12-10 15:15:00,32.2,16.1,31.34,WSW,249,3.0,4.0,51,0.01,,,0.02,72.00,VWS V14.00,2013-12-10 22:15:00,
2013-12-10 15:16:00,32.1,16.0,31.35,WSW,249,0.0,3.0,51,0.01,,,0.02,72.00,VWS V14.00,2013-12-10 22:16:00,
2013-12-10 15:17:00,32.0,16.4,31.35,WSW,249,0.0,3.0,52,0.01,,,0.02,72.00,VWS V14.00,2013-12-10 22:17:00,
2013-12-10 15:18:00,31.9,16.3,31.34,WSW,249,0.0,3.0,52,0.01,,,0.02,70.00,VWS V14.00,2013-12-10 22:18:00,
2013-12-10 15:19:00,31.8,15.8,31.34,WSW,249,0.0,3.0,51,0.01,,,0.02,69.00,VWS V14.00,2013-12-10 22:19:00,
2013-12-10 15:20:00,31.7,16.1,31.35,WSW,249,0.0,3.0,52,0.01,,,0.02,70.00,VWS V14.00,2013-12-10 22:20:00,
2013-12-10 15:21:00,31.6,16.0,31.35,WSW,249,0.0,3.0,52,0.01,,,0.02,70.00,VWS V14.00,2013-12-10 22:21:00,
2013-12-10 15:22:00,31.6,16.0,31.34,WSW,249,0.0,3.0,52,0.01,,,0.02,69.00,VWS V14.00,2013-12-10 22:22:00,
2013-12-10 15:23:00,31.6,16.0,31.34,WSW,249,0.0,3.0,52,0.01,,,0.02,69.00,VWS V14.00,2013-12-10 22:23:00,
2013-12-10 15:24:00,31.6,16.0,31.35,WSW,249,0.0,3.0,52,0.01,,,0.02,69.00,VWS V14.00,2013-12-10 22:24:00,
2013-12-10 15:25:00,31.5,15.9,31.35,WSW,249,0.0,3.0,52,0.01,,,0.02,67.00,VWS V14.00,2013-12-10 22:25:00,
2013-12-10 15:26:00,31.5,15.9,31.35,WSW,249,0.0,3.0,52,0.01,,,0.02,62.00,VWS V14.00,2013-12-10 22:26:00,
2013-12-10 15:27:00,31.4,15.8,31.35,WSW,249,0.0,3.0,52,0.01,,,0.02,58.00,VWS V14.00,2013-12-10 22:27:00,
2013-12-10 15:28:00,31.4,15.8,31.36,WSW,249,0.0,3.0,52,0.01,,,0.02,58.00,VWS V14.00,2013-12-10 22:28:00,
2013-12-10 15:29:00,31.4,15.8,31.36,WSW,249,0.0,3.0,52,0.01,,,0.02,56.00,VWS V14.00,2013-12-10 22:29:00,
2013-12-10 15:30:00,31.3,15.7,31.36,WSW,249,0.0,3.0,52,0.01,,,0.02,56.00,VWS V14.00,2013-12-10 22:30:00,
2013-12-10 15:31:00,31.3,15.7,31.36,WSW,249,0.0,0.0,52,0.01,,,0.02,56.00,VWS V14.00,2013-12-10 22:31:00,
2013-12-10 15:32:00,31.3,15.7,31.36,WSW,249,0.0,0.0,52,0.01,,,0.02,56.00,VWS V14.00,2013-12-10 22:32:00,
2013-12-10 15:33:00,31.2,15.6,31.36,WSW,249,0.0,0.0,52,0.01,,,0.02,56.00,VWS V14.00,2013-12-10 22:33:00,
2013-12-10 15:34:00,31.2,16.1,31.37,WSW,249,0.0,1.0,53,0.01,,,0.02,58.00,VWS V14.00,2013-12-10 22:34:00,
2013-12-10 15:35:00,31.1,16.0,31.36,WSW,252,2.0,3.0,53,0.01,,,0.02,60.00,VWS V14.00,2013-12-10 22:35:00,
2013-12-10 15:36:00,31.0,15.9,31.36,WSW,252,1.0,3.0,53,0.01,,,0.02,60.00,VWS V14.00,2013-12-10 22:36:00,
2013-12-10 15:37:00,31.0,15.9,31.37,WSW,252,2.0,3.0,53,0.01,,,0.02,58.00,VWS V14.00,2013-12-10 22:37:00,
2013-12-10 15:38:00,30.9,15.8,31.37,WSW,252,2.0,3.0,53,0.01,,,0.02,53.00,VWS V14.00,2013-12-10 22:38:00,
2013-12-10 15:39:00,30.9,15.8,31.37,WSW,252,0.0,3.0,53,0.01,,,0.02,51.00,VWS V14.00,2013-12-10 22:39:00,
2013-12-10 15:40:00,30.8,15.7,31.37,WSW,252,1.0,3.0,53,0.01,,,0.02,53.00,VWS V14.00,2013-12-10 22:40:00,
2013-12-10 15:41:00,30.8,15.7,31.37,WSW,252,1.0,4.0,53,0.01,,,0.02,51.00,VWS V14.00,2013-12-10 22:41:00,
2013-12-10 15:42:00,30.7,15.6,31.37,WSW,252,0.0,4.0,53,0.01,,,0.02,51.00,VWS V14.00,2013-12-10 22:42:00,
2013-12-10 15:43:00,30.7,15.6,31.37,WSW,252,0.0,4.0,53,0.01,,,0.02,54.00,VWS V14.00,2013-12-10 22:43:00,
2013-12-10 15:44:00,30.7,16.0,31.37,WSW,252,0.0,4.0,54,0.01,,,0.02,53.00,VWS V14.00,2013-12-10 22:44:00,
2013-12-10 15:45:00,30.6,15.9,31.37,WSW,252,0.0,4.0,54,0.01,,,0.02,51.00,VWS V14.00,2013-12-10 22:45:00,
2013-12-10 15:46:00,30.6,15.9,31.37,WSW,252,0.0,0.0,54,0.00,,,0.02,49.00,VWS V14.00,2013-12-10 22:46:00,
2013-12-10 15:47:00,30.6,15.9,31.37,WSW,252,0.0,0.0,54,0.00,,,0.02,46.00,VWS V14.00,2013-12-10 22:47:00,
2013-12-10 15:48:00,30.5,16.3,31.37,WSW,252,0.0,0.0,55,0.00,,,0.02,44.00,VWS V14.00,2013-12-10 22:48:00,
2013-12-10 15:49:00,30.5,15.9,31.37,WSW,252,1.0,3.0,54,0.00,,,0.02,39.00,VWS V14.00,2013-12-10 22:49:00,
2013-12-10 15:50:00,30.4,15.8,31.37,WSW,252,0.0,3.0,54,0.00,,,0.02,37.00,VWS V14.00,2013-12-10 22:50:00,
2013-12-10 15:51:00,30.4,15.8,31.37,WSW,252,0.0,3.0,54,0.00,,,0.02,37.00,VWS V14.00,2013-12-10 22:51:00,
2013-12-10 15:52:00,30.4,16.2,31.37,WSW,252,0.0,3.0,55,0.00,,,0.02,39.00,VWS V14.00,2013-12-10 22:52:00,
2013-12-10 15:53:00,30.3,16.1,31.37,WSW,252,0.0,3.0,55,0.00,,,0.02,37.00,VWS V14.00,2013-12-10 22:53:00,
2013-12-10 15:54:00,30.3,16.1,31.37,WSW,252,2.0,3.0,55,0.00,,,0.02,37.00,VWS V14.00,2013-12-10 22:54:00,
2013-12-10 15:55:00,30.3,15.7,31.37,WSW,252,0.0,3.0,54,0.00,,,0.02,35.00,VWS V14.00,2013-12-10 22:55:00,
2013-12-10 15:56:00,30.2,15.6,31.37,WSW,252,0.0,3.0,54,0.00,,,0.02,32.00,VWS V14.00,2013-12-10 22:56:00,
2013-12-10 15:57:00,30.2,16.0,31.37,WSW,252,0.0,3.0,55,0.00,,,0.02,28.00,VWS V14.00,2013-12-10 22:57:00,
2013-12-10 15:58:00,30.1,15.9,31.37,WSW,252,0.0,3.0,55,0.00,,,0.02,26.00,VWS V14.00,2013-12-10 22:58:00,
2013-12-10 15:59:00,30.1,15.5,31.37,WSW,252,0.0,3.0,54,0.00,,,0.02,23.00,VWS V14.00,2013-12-10 22:59:00,
2013-12-10 16:00:00,30.1,15.9,31.37,WSW,252,0.0,3.0,55,0.00,,,0.02,21.00,VWS V14.00,2013-12-10 23:00:00,
2013-12-10 16:01:00,30.1,15.9,31.36,WSW,252,1.0,1.0,55,0.00,,,0.02,18.00,VWS V14.00,2013-12-10 23:01:00,
2013-12-10 16:02:00,30.0,15.8,31.36,WSW,252,1.0,2.0,55,0.00,,,0.02,18.00,VWS V14.00,2013-12-10 23:02:00,
2013-12-10 16:03:00,30.0,15.8,31.37,WSW,252,0.0,2.0,55,0.00,,,0.02,19.00,VWS V14.00,2013-12-10 23:03:00,
2013-12-10 16:04:00,29.9,15.7,31.37,WSW,252,0.0,2.0,55,0.00,,,0.02,19.00,VWS V14.00,2013-12-10 23:04:00,
2013-12-10 16:05:00,29.9,15.7,31.37,WSW,252,0.0,2.0,55,0.00,,,0.02,19.00,VWS V14.00,2013-12-10 23:05:00,
2013-12-10 16:06:00,29.9,16.1,31.37,WSW,252,0.0,2.0,56,0.00,,,0.02,19.00,VWS V14.00,2013-12-10 23:06:00,
2013-12-10 16:07:00,29.8,16.0,31.37,WSW,252,0.0,2.0,56,0.00,,,0.02,18.00,VWS V14.00,2013-12-10 23:07:00,
2013-12-10 16:08:00,29.8,16.0,31.37,WSW,252,0.0,2.0,56,0.00,,,0.02,16.00,VWS V14.00,2013-12-10 23:08:00,
2013-12-10 16:09:00,29.8,16.0,31.37,WSW,252,0.0,2.0,56,0.00,,,0.02,16.00,VWS V14.00,2013-12-10 23:09:00,
2013-12-10 16:10:00,29.7,15.9,31.37,WSW,252,0.0,2.0,56,0.00,,,0.02,16.00,VWS V14.00,2013-12-10 23:10:00,
2013-12-10 16:11:00,29.7,15.9,31.37,WSW,252,0.0,2.0,56,0.00,,,0.02,18.00,VWS V14.00,2013-12-10 23:11:00,
2013-12-10 16:12:00,29.6,16.2,31.37,WSW,252,0.0,2.0,57,0.00,,,0.02,18.00,VWS V14.00,2013-12-10 23:12:00,
2013-12-10 16:13:00,29.6,16.2,31.37,WSW,252,0.0,2.0,57,0.00,,,0.02,16.00,VWS V14.00,2013-12-10 23:13:00,
2013-12-10 16:14:00,29.5,16.2,31.37,WSW,252,0.0,2.0,57,0.00,,,0.02,16.00,VWS V14.00,2013-12-10 23:14:00,
2013-12-10 16:15:00,29.5,16.2,31.37,WSW,252,0.0,2.0,57,0.00,,,0.02,16.00,VWS V14.00,2013-12-10 23:15:00,
2013-12-10 16:16:00,29.4,16.1,31.37,WSW,252,0.0,0.0,57,0.00,,,0.02,14.00,VWS V14.00,2013-12-10 23:16:00,
2013-12-10 16:17:00,29.3,16.0,31.38,WSW,252,0.0,0.0,57,0.00,,,0.02,14.00,VWS V14.00,2013-12-10 23:17:00,
2013-12-10 16:18:00,29.3,16.0,31.38,WSW,252,0.0,0.0,57,0.00,,,0.02,14.00,VWS V14.00,2013-12-10 23:18:00,
2013-12-10 16:19:00,29.3,16.0,31.38,WSW,252,0.0,0.0,57,0.00,,,0.02,12.00,VWS V14.00,2013-12-10 23:19:00,
2013-12-10 16:20:00,29.2,15.9,31.38,WSW,252,0.0,0.0,57,0.00,,,0.02,12.00,VWS V14.00,2013-12-10 23:20:00,
2013-12-10 16:21:00,29.2,15.9,31.38,WSW,252,0.0,0.0,57,0.00,,,0.02,11.00,VWS V14.00,2013-12-10 23:21:00,
2013-12-10 16:22:00,29.1,16.2,31.38,WSW,252,0.0,0.0,58,0.00,,,0.02,11.00,VWS V14.00,2013-12-10 23:22:00,
2013-12-10 16:23:00,29.1,16.2,31.38,WSW,252,0.0,0.0,58,0.00,,,0.02,9.00,VWS V14.00,2013-12-10 23:23:00,
2013-12-10 16:24:00,29.1,16.2,31.38,WSW,252,0.0,0.0,58,0.00,,,0.02,9.00,VWS V14.00,2013-12-10 23:24:00,
2013-12-10 16:25:00,29.0,16.5,31.38,WSW,252,0.0,0.0,59,0.00,,,0.02,7.00,VWS V14.00,2013-12-10 23:25:00,
2013-12-10 16:26:00,29.0,16.5,31.38,WSW,252,0.0,0.0,59,0.00,,,0.02,5.00,VWS V14.00,2013-12-10 23:26:00,
2013-12-10 16:27:00,28.9,16.4,31.38,WSW,252,0.0,0.0,59,0.00,,,0.02,5.00,VWS V14.00,2013-12-10 23:27:00,
2013-12-10 16:28:00,28.9,16.4,31.38,WSW,252,0.0,0.0,59,0.00,,,0.02,5.00,VWS V14.00,2013-12-10 23:28:00,
2013-12-10 16:29:00,28.9,16.8,31.38,WSW,252,0.0,0.0,60,0.00,,,0.02,5.00,VWS V14.00,2013-12-10 23:29:00,
2013-12-10 16:30:00,28.8,16.7,31.38,WSW,252,0.0,0.0,60,0.00,,,0.02,0.00,VWS V14.00,2013-12-10 23:30:00,
2013-12-10 16:31:00,28.8,16.7,31.38,WSW,252,0.0,0.0,60,0.00,,,0.02,0.00,VWS V14.00,2013-12-10 23:31:00,
2013-12-10 16:32:00,28.8,17.1,31.38,WSW,252,0.0,0.0,61,0.00,,,0.02,0.00,VWS V14.00,2013-12-10 23:32:00,
2013-12-10 16:33:00,28.8,17.1,31.38,WSW,252,0.0,0.0,61,0.00,,,0.02,0.00,VWS V14.00,2013-12-10 23:33:00,
2013-12-10 16:34:00,28.7,17.0,31.38,WSW,252,0.0,0.0,61,0.00,,,0.02,0.00,VWS V14.00,2013-12-10 23:34:00,
2013-12-10 16:35:00,28.7,17.0,31.38,WSW,252,0.0,0.0,61,0.00,,,0.02,0.00,VWS V14.00,2013-12-10 23:35:00,
2013-12-10 16:36:00,28.7,17.0,31.38,WSW,252,0.0,0.0,61,0.00,,,0.02,0.00,VWS V14.00,2013-12-10 23:36:00,
2013-12-10 16:37:00,28.7,17.0,31.38,WSW,252,0.0,0.0,61,0.00,,,0.02,0.00,VWS V14.00,2013-12-10 23:37:00,
2013-12-10 16:38:00,28.6,16.9,31.38,WSW,252,0.0,0.0,61,0.00,,,0.02,0.00,VWS V14.00,2013-12-10 23:38:00,
2013-12-10 16:39:00,28.6,17.2,31.38,WSW,252,0.0,0.0,62,0.00,,,0.02,0.00,VWS V14.00,2013-12-10 23:39:00,
2013-12-10 16:40:00,28.5,17.1,31.38,WSW,252,0.0,0.0,62,0.00,,,0.02,0.00,VWS V14.00,2013-12-10 23:40:00,
2013-12-10 16:41:00,28.5,17.1,31.39,WSW,252,0.0,0.0,62,0.00,,,0.02,0.00,VWS V14.00,2013-12-10 23:41:00,
2013-12-10 16:42:00,28.5,17.1,31.39,WSW,252,0.0,0.0,62,0.00,,,0.02,0.00,VWS V14.00,2013-12-10 23:42:00,
2013-12-10 16:43:00,28.5,17.1,31.39,WSW,252,0.0,0.0,62,0.00,,,0.02,0.00,VWS V14.00,2013-12-10 23:43:00,
2013-12-10 16:44:00,28.5,17.1,31.39,WSW,252,0.0,0.0,62,0.00,,,0.02,0.00,VWS V14.00,2013-12-10 23:44:00,
2013-12-10 16:45:00,28.5,16.8,31.39,WSW,252,0.0,0.0,61,0.00,,,0.02,0.00,VWS V14.00,2013-12-10 23:45:00,
2013-12-10 16:46:00,28.4,17.1,31.39,WSW,252,0.0,0.0,62,0.00,,,0.02,0.00,VWS V14.00,2013-12-10 23:46:00,
2013-12-10 16:47:00,28.4,17.1,31.39,WSW,252,0.0,0.0,62,0.00,,,0.02,0.00,VWS V14.00,2013-12-10 23:47:00,
2013-12-10 16:48:00,28.4,17.1,31.39,WSW,252,0.0,0.0,62,0.00,,,0.02,0.00,VWS V14.00,2013-12-10 23:48:00,
2013-12-10 16:49:00,28.3,17.0,31.39,WSW,252,0.0,0.0,62,0.00,,,0.02,0.00,VWS V14.00,2013-12-10 23:49:00,
2013-12-10 16:50:00,28.3,17.0,31.39,WSW,252,0.0,0.0,62,0.00,,,0.02,0.00,VWS V14.00,2013-12-10 23:50:00,
2013-12-10 16:51:00,28.3,17.0,31.39,WSW,252,0.0,0.0,62,0.00,,,0.02,0.00,VWS V14.00,2013-12-10 23:51:00,
2013-12-10 16:52:00,28.3,17.0,31.39,WSW,252,0.0,0.0,62,0.00,,,0.02,0.00,VWS V14.00,2013-12-10 23:52:00,
2013-12-10 16:53:00,28.2,16.9,31.39,WSW,252,0.0,0.0,62,0.00,,,0.02,0.00,VWS V14.00,2013-12-10 23:53:00,
2013-12-10 16:54:00,28.2,16.9,31.39,WSW,252,0.0,0.0,62,0.00,,,0.02,0.00,VWS V14.00,2013-12-10 23:54:00,
2013-12-10 16:55:00,28.2,16.9,31.39,WSW,252,0.0,0.0,62,0.00,,,0.02,0.00,VWS V14.00,2013-12-10 23:55:00,
2013-12-10 16:56:00,28.1,16.8,31.39,WSW,252,0.0,0.0,62,0.00,,,0.02,0.00,VWS V14.00,2013-12-10 23:56:00,
2013-12-10 16:57:00,28.1,16.8,31.39,WSW,252,0.0,0.0,62,0.00,,,0.02,0.00,VWS V14.00,2013-12-10 23:57:00,
2013-12-10 16:58:00,28.1,16.8,31.39,WSW,252,0.0,0.0,62,0.00,,,0.02,0.00,VWS V14.00,2013-12-10 23:58:00,
2013-12-10 16:59:00,28.1,16.8,31.39,WSW,252,0.0,0.0,62,0.00,,,0.02,0.00,VWS V14.00,2013-12-10 23:59:00,
2013-12-10 17:00:00,28.0,16.7,31.39,WSW,252,0.0,0.0,62,0.00,,,0.02,0.00,VWS V14.00,2013-12-11 00:00:00,
2013-12-10 17:01:00,28.0,16.7,31.38,WSW,252,0.0,0.0,62,0.00,,,0.02,0.00,VWS V14.00,2013-12-11 00:01:00,
2013-12-10 17:02:00,28.0,16.7,31.38,WSW,252,0.0,0.0,62,0.00,,,0.02,0.00,VWS V14.00,2013-12-11 00:02:00,
2013-12-10 17:03:00,28.0,16.7,31.38,WSW,252,0.0,0.0,62,0.00,,,0.02,0.00,VWS V14.00,2013-12-11 00:03:00,
2013-12-10 17:04:00,28.0,16.7,31.38,WSW,252,0.0,0.0,62,0.00,,,0.02,0.00,VWS V14.00,2013-12-11 00:04:00,
2013-12-10 17:05:00,27.9,16.6,31.38,WSW,252,0.0,0.0,62,0.00,,,0.02,0.00,VWS V14.00,2013-12-11 00:05:00,
2013-12-10 17:06:00,27.9,16.6,31.38,WSW,252,0.0,0.0,62,0.00,,,0.02,0.00,VWS V14.00,2013-12-11 00:06:00,
2013-12-10 17:07:00,27.9,16.6,31.38,WSW,252,0.0,0.0,62,0.00,,,0.02,0.00,VWS V14.00,2013-12-11 00:07:00,
2013-12-10 17:08:00,27.9,17.0,31.38,WSW,252,0.0,0.0,63,0.00,,,0.02,0.00,VWS V14.00,2013-12-11 00:08:00,
2013-12-10 17:09:00,27.9,16.6,31.38,WSW,252,0.0,0.0,62,0.00,,,0.02,0.00,VWS V14.00,2013-12-11 00:09:00,
2013-12-10 17:10:00,27.8,16.5,31.38,WSW,252,0.0,0.0,62,0.00,,,0.02,0.00,VWS V14.00,2013-12-11 00:10:00,
2013-12-10 17:11:00,27.8,16.5,31.38,WSW,252,0.0,0.0,62,0.00,,,0.02,0.00,VWS V14.00,2013-12-11 00:11:00,
2013-12-10 17:12:00,27.8,16.9,31.39,WSW,252,0.0,0.0,63,0.00,,,0.02,0.00,VWS V14.00,2013-12-11 00:12:00,
2013-12-10 17:13:00,27.8,16.9,31.38,WSW,252,0.0,0.0,63,0.00,,,0.02,0.00,VWS V14.00,2013-12-11 00:13:00,
2013-12-10 17:14:00,27.7,16.8,31.39,WSW,252,0.0,0.0,63,0.00,,,0.02,0.00,VWS V14.00,2013-12-11 00:14:00,
2013-12-10 17:15:00,27.7,16.8,31.39,WSW,252,0.0,0.0,63,0.00,,,0.02,0.00,VWS V14.00,2013-12-11 00:15:00,
2013-12-10 17:16:00,27.7,16.8,31.39,WSW,252,0.0,0.0,63,0.00,,,0.02,0.00,VWS V14.00,2013-12-11 00:16:00,
2013-12-10 17:17:00,27.6,16.7,31.38,WSW,252,0.0,0.0,63,0.00,,,0.02,0.00,VWS V14.00,2013-12-11 00:17:00,
2013-12-10 17:18:00,27.6,16.7,31.39,WSW,252,0.0,0.0,63,0.00,,,0.02,0.00,VWS V14.00,2013-12-11 00:18:00,
2013-12-10 17:19:00,27.6,16.7,31.39,WSW,252,0.0,0.0,63,0.00,,,0.02,0.00,VWS V14.00,2013-12-11 00:19:00,
2013-12-10 17:20:00,27.5,16.6,31.39,WSW,252,0.0,0.0,63,0.00,,,0.02,0.00,VWS V14.00,2013-12-11 00:20:00,
2013-12-10 17:21:00,27.5,16.6,31.39,WSW,252,0.0,0.0,63,0.00,,,0.02,0.00,VWS V14.00,2013-12-11 00:21:00,
2013-12-10 17:22:00,27.5,16.6,31.39,WSW,252,0.0,0.0,63,0.00,,,0.02,0.00,VWS V14.00,2013-12-11 00:22:00,
2013-12-10 17:23:00,27.5,16.9,31.39,WSW,252,0.0,0.0,64,0.00,,,0.02,0.00,VWS V14.00,2013-12-11 00:23:00,
2013-12-10 17:24:00,27.5,16.9,31.39,WSW,252,0.0,0.0,64,0.00,,,0.02,0.00,VWS V14.00,2013-12-11 00:24:00,
2013-12-10 17:25:00,27.4,16.8,31.39,WSW,252,0.0,0.0,64,0.00,,,0.02,0.00,VWS V14.00,2013-12-11 00:25:00,
2013-12-10 17:26:00,27.4,17.2,31.40,WSW,252,0.0,0.0,65,0.00,,,0.02,0.00,VWS V14.00,2013-12-11 00:26:00,
2013-12-10 17:27:00,27.4,17.2,31.40,WSW,252,0.0,0.0,65,0.00,,,0.02,0.00,VWS V14.00,2013-12-11 00:27:00,
2013-12-10 17:28:00,27.4,17.2,31.40,WSW,252,0.0,0.0,65,0.00,,,0.02,0.00,VWS V14.00,2013-12-11 00:28:00,
2013-12-10 17:29:00,27.3,16.8,31.40,WSW,252,0.0,0.0,64,0.00,,,0.02,0.00,VWS V14.00,2013-12-11 00:29:00,
2013-12-10 17:30:00,27.3,17.1,31.40,WSW,252,0.0,0.0,65,0.00,,,0.02,0.00,VWS V14.00,2013-12-11 00:30:00,
2013-12-10 17:31:00,27.3,17.1,31.40,WSW,252,0.0,0.0,65,0.00,,,0.02,0.00,VWS V14.00,2013-12-11 00:31:00,
2013-12-10 17:32:00,27.3,17.1,31.40,WSW,252,0.0,0.0,65,0.00,,,0.02,0.00,VWS V14.00,2013-12-11 00:32:00,
2013-12-10 17:33:00,27.2,17.0,31.40,WSW,252,0.0,0.0,65,0.00,,,0.02,0.00,VWS V14.00,2013-12-11 00:33:00,
2013-12-10 17:34:00,27.2,17.4,31.40,WSW,252,0.0,0.0,66,0.00,,,0.02,0.00,VWS V14.00,2013-12-11 00:34:00,
2013-12-10 17:35:00,27.2,17.0,31.40,WSW,252,0.0,0.0,65,0.00,,,0.02,0.00,VWS V14.00,2013-12-11 00:35:00,
2013-12-10 17:36:00,27.2,17.4,31.40,WSW,252,0.0,0.0,66,0.00,,,0.02,0.00,VWS V14.00,2013-12-11 00:36:00,
2013-12-10 17:37:00,27.1,17.3,31.40,WSW,252,0.0,0.0,66,0.00,,,0.02,0.00,VWS V14.00,2013-12-11 00:37:00,
2013-12-10 17:38:00,27.1,17.3,31.40,WSW,252,0.0,0.0,66,0.00,,,0.02,0.00,VWS V14.00,2013-12-11 00:38:00,
2013-12-10 17:39:00,27.1,17.3,31.40,WSW,252,0.0,1.0,66,0.00,,,0.02,0.00,VWS V14.00,2013-12-11 00:39:00,
2013-12-10 17:40:00,27.0,16.8,31.40,WSW,252,2.0,2.0,65,0.00,,,0.02,0.00,VWS V14.00,2013-12-11 00:40:00,
2013-12-10 17:41:00,27.0,16.8,31.40,WSW,252,1.0,2.0,65,0.00,,,0.02,0.00,VWS V14.00,2013-12-11 00:41:00,
2013-12-10 17:42:00,27.0,16.8,31.40,WSW,252,1.0,2.0,65,0.00,,,0.02,0.00,VWS V14.00,2013-12-11 00:42:00,
2013-12-10 17:43:00,27.0,17.2,31.40,WSW,252,0.0,2.0,66,0.00,,,0.02,0.00,VWS V14.00,2013-12-11 00:43:00,
2013-12-10 17:44:00,27.0,17.5,31.40,WSW,252,0.0,2.0,67,0.00,,,0.02,0.00,VWS V14.00,2013-12-11 00:44:00,
2013-12-10 17:45:00,26.9,17.4,31.40,WSW,252,0.0,2.0,67,0.00,,,0.02,0.00,VWS V14.00,2013-12-11 00:45:00,
2013-12-10 17:46:00,26.9,17.4,31.40,WSW,252,0.0,0.0,67,0.00,,,0.02,0.00,VWS V14.00,2013-12-11 00:46:00,
2013-12-10 17:47:00,26.9,17.4,31.40,WSW,252,0.0,0.0,67,0.00,,,0.02,0.00,VWS V14.00,2013-12-11 00:47:00,
2013-12-10 17:48:00,26.9,17.4,31.40,WSW,252,0.0,0.0,67,0.00,,,0.02,0.00,VWS V14.00,2013-12-11 00:48:00,
2013-12-10 17:49:00,26.9,17.4,31.40,WSW,252,0.0,0.0,67,0.00,,,0.02,0.00,VWS V14.00,2013-12-11 00:49:00,
2013-12-10 17:50:00,26.9,17.8,31.40,WSW,252,0.0,0.0,68,0.00,,,0.02,0.00,VWS V14.00,2013-12-11 00:50:00,
2013-12-10 17:51:00,26.9,17.8,31.40,WSW,252,0.0,0.0,68,0.00,,,0.02,0.00,VWS V14.00,2013-12-11 00:51:00,
2013-12-10 17:52:00,26.8,17.7,31.40,WSW,252,0.0,0.0,68,0.00,,,0.02,0.00,VWS V14.00,2013-12-11 00:52:00,
2013-12-10 17:53:00,26.8,17.7,31.40,WSW,252,0.0,0.0,68,0.00,,,0.02,0.00,VWS V14.00,2013-12-11 00:53:00,
2013-12-10 17:54:00,26.7,17.6,31.40,WSW,252,0.0,0.0,68,0.00,,,0.02,0.00,VWS V14.00,2013-12-11 00:54:00,
2013-12-10 17:55:00,26.7,17.6,31.40,WSW,252,2.0,2.0,68,0.00,,,0.02,0.00,VWS V14.00,2013-12-11 00:55:00,
2013-12-10 17:56:00,26.7,17.2,31.40,WSW,252,2.0,3.0,67,0.00,,,0.02,0.00,VWS V14.00,2013-12-11 00:56:00,
2013-12-10 17:57:00,26.6,16.8,31.40,WSW,252,2.0,3.0,66,0.00,,,0.02,0.00,VWS V14.00,2013-12-11 00:57:00,
2013-12-10 17:58:00,26.6,16.8,31.40,WSW,252,1.0,3.0,66,0.00,,,0.02,0.00,VWS V14.00,2013-12-11 00:58:00,
2013-12-10 17:59:00,26.6,16.8,31.40,WSW,252,1.0,3.0,66,0.00,,,0.02,0.00,VWS V14.00,2013-12-11 00:59:00,
2013-12-10 18:00:00,26.6,16.8,31.40,WSW,252,0.0,3.0,66,0.00,,,0.02,0.00,VWS V14.00,2013-12-11 01:00:00,
2013-12-10 18:01:00,26.6,16.8,31.40,WSW,252,0.0,2.0,66,0.00,,,0.02,0.00,VWS V14.00,2013-12-11 01:01:00,
2013-12-10 18:02:00,26.6,17.1,31.40,WSW,252,2.0,2.0,67,0.00,,,0.02,0.00,VWS V14.00,2013-12-11 01:02:00,
2013-12-10 18:03:00,26.6,17.1,31.40,WSW,252,2.0,2.0,67,0.00,,,0.02,0.00,VWS V14.00,2013-12-11 01:03:00,
2013-12-10 18:04:00,26.6,16.8,31.40,WSW,252,0.0,2.0,66,0.00,,,0.02,0.00,VWS V14.00,2013-12-11 01:04:00,
2013-12-10 18:05:00,26.6,16.8,31.40,WSW,252,0.0,2.0,66,0.00,,,0.02,0.00,VWS V14.00,2013-12-11 01:05:00,
2013-12-10 18:06:00,26.6,16.8,31.40,WSW,252,0.0,2.0,66,0.00,,,0.02,0.00,VWS V14.00,2013-12-11 01:06:00,
2013-12-10 18:07:00,26.6,17.1,31.40,WSW,252,0.0,2.0,67,0.00,,,0.02,0.00,VWS V14.00,2013-12-11 01:07:00,
2013-12-10 18:08:00,26.6,17.1,31.40,WSW,252,0.0,2.0,67,0.00,,,0.02,0.00,VWS V14.00,2013-12-11 01:08:00,
2013-12-10 18:09:00,26.6,17.1,31.40,WSW,252,0.0,2.0,67,0.00,,,0.02,0.00,VWS V14.00,2013-12-11 01:09:00,
2013-12-10 18:10:00,26.6,17.1,31.40,WSW,252,0.0,2.0,67,0.00,,,0.02,0.00,VWS V14.00,2013-12-11 01:10:00,
2013-12-10 18:11:00,26.6,16.8,31.40,WSW,252,0.0,2.0,66,0.00,,,0.02,0.00,VWS V14.00,2013-12-11 01:11:00,
2013-12-10 18:12:00,26.5,16.7,31.40,WSW,252,0.0,2.0,66,0.00,,,0.02,0.00,VWS V14.00,2013-12-11 01:12:00,
2013-12-10 18:13:00,26.5,17.0,31.41,WSW,252,0.0,2.0,67,0.00,,,0.02,0.00,VWS V14.00,2013-12-11 01:13:00,
2013-12-10 18:14:00,26.5,17.0,31.41,WSW,252,0.0,2.0,67,0.00,,,0.02,0.00,VWS V14.00,2013-12-11 01:14:00,
2013-12-10 18:15:00,26.5,17.0,31.41,WSW,252,0.0,2.0,67,0.00,,,0.02,0.00,VWS V14.00,2013-12-11 01:15:00,
2013-12-10 18:16:00,26.5,17.0,31.41,WSW,252,0.0,0.0,67,0.00,,,0.02,0.00,VWS V14.00,2013-12-11 01:16:00,
2013-12-10 18:17:00,26.5,17.0,31.41,WSW,252,0.0,0.0,67,0.00,,,0.02,0.00,VWS V14.00,2013-12-11 01:17:00,
2013-12-10 18:18:00,26.4,16.9,31.41,WSW,252,0.0,0.0,67,0.00,,,0.02,0.00,VWS V14.00,2013-12-11 01:18:00,
2013-12-10 18:19:00,26.4,16.9,31.41,WSW,252,2.0,3.0,67,0.00,,,0.02,0.00,VWS V14.00,2013-12-11 01:19:00,
2013-12-10 18:20:00,26.4,16.9,31.41,WSW,252,2.0,3.0,67,0.00,,,0.02,0.00,VWS V14.00,2013-12-11 01:20:00,
2013-12-10 18:21:00,26.3,16.9,31.41,WSW,252,2.0,3.0,67,0.00,,,0.02,0.00,VWS V14.00,2013-12-11 01:21:00,
2013-12-10 18:22:00,26.3,16.9,31.41,WSW,252,1.0,3.0,67,0.00,,,0.02,0.00,VWS V14.00,2013-12-11 01:22:00,
2013-12-10 18:23:00,26.2,16.8,31.41,WSW,252,1.0,3.0,67,0.00,,,0.02,0.00,VWS V14.00,2013-12-11 01:23:00,
2013-12-10 18:24:00,26.2,16.8,31.41,WSW,252,0.0,3.0,67,0.00,,,0.02,0.00,VWS V14.00,2013-12-11 01:24:00,
2013-12-10 18:25:00,26.2,16.8,31.41,WSW,252,0.0,3.0,67,0.00,,,0.02,0.00,VWS V14.00,2013-12-11 01:25:00,
2013-12-10 18:26:00,26.1,16.7,31.41,WSW,252,0.0,3.0,67,0.00,,,0.02,0.00,VWS V14.00,2013-12-11 01:26:00,
2013-12-10 18:27:00,26.1,16.3,31.40,WSW,252,0.0,3.0,66,0.00,,,0.02,0.00,VWS V14.00,2013-12-11 01:27:00,
2013-12-10 18:28:00,26.1,16.7,31.40,WSW,252,0.0,3.0,67,0.00,,,0.02,0.00,VWS V14.00,2013-12-11 01:28:00,
2013-12-10 18:29:00,26.1,16.3,31.40,WSW,252,0.0,3.0,66,0.00,,,0.02,0.00,VWS V14.00,2013-12-11 01:29:00,
2013-12-10 18:30:00,26.1,16.3,31.40,WSW,252,0.0,3.0,66,0.00,,,0.02,0.00,VWS V14.00,2013-12-11 01:30:00,
2013-12-10 18:31:00,26.1,16.3,31.40,WSW,252,2.0,2.0,66,0.00,,,0.02,0.00,VWS V14.00,2013-12-11 01:31:00,
2013-12-10 18:32:00,26.1,16.0,31.40,WSW,252,0.0,2.0,65,0.00,,,0.02,0.00,VWS V14.00,2013-12-11 01:32:00,
2013-12-10 18:33:00,26.1,16.3,31.40,WSW,252,0.0,2.0,66,0.00,,,0.02,0.00,VWS V14.00,2013-12-11 01:33:00,
2013-12-10 18:34:00,26.1,16.3,31.41,WSW,252,0.0,2.0,66,0.00,,,0.02,0.00,VWS V14.00,2013-12-11 01:34:00,
2013-12-10 18:35:00,26.1,16.3,31.41,WSW,252,0.0,2.0,66,0.00,,,0.02,0.00,VWS V14.00,2013-12-11 01:35:00,
2013-12-10 18:36:00,26.1,16.3,31.41,WSW,252,0.0,2.0,66,0.00,,,0.02,0.00,VWS V14.00,2013-12-11 01:36:00,
2013-12-10 18:37:00,26.1,16.3,31.41,WSW,252,0.0,2.0,66,0.00,,,0.02,0.00,VWS V14.00,2013-12-11 01:37:00,
2013-12-10 18:38:00,26.0,16.2,31.41,WSW,252,0.0,2.0,66,0.00,,,0.02,0.00,VWS V14.00,2013-12-11 01:38:00,
2013-12-10 18:39:00,26.0,16.2,31.41,WSW,252,0.0,2.0,66,0.00,,,0.02,0.00,VWS V14.00,2013-12-11 01:39:00,
2013-12-10 18:40:00,26.0,16.2,31.41,WSW,252,0.0,2.0,66,0.00,,,0.02,0.00,VWS V14.00,2013-12-11 01:40:00,
2013-12-10 18:41:00,26.0,16.2,31.41,WSW,252,0.0,2.0,66,0.00,,,0.02,0.00,VWS V14.00,2013-12-11 01:41:00,
2013-12-10 18:42:00,26.0,16.2,31.41,WSW,252,0.0,2.0,66,0.00,,,0.02,0.00,VWS V14.00,2013-12-11 01:42:00,
2013-12-10 18:43:00,26.0,16.6,31.41,WSW,252,0.0,2.0,67,0.00,,,0.02,0.00,VWS V14.00,2013-12-11 01:43:00,
2013-12-10 18:44:00,26.0,16.6,31.41,WSW,252,0.0,2.0,67,0.00,,,0.02,0.00,VWS V14.00,2013-12-11 01:44:00,
2013-12-10 18:45:00,26.0,16.6,31.41,WSW,252,0.0,2.0,67,0.00,,,0.02,0.00,VWS V14.00,2013-12-11 01:45:00,
2013-12-10 18:46:00,26.0,16.6,31.41,WSW,252,0.0,0.0,67,0.00,,,0.02,0.00,VWS V14.00,2013-12-11 01:46:00,
2013-12-10 18:47:00,25.9,16.5,31.41,WSW,252,0.0,0.0,67,0.00,,,0.02,0.00,VWS V14.00,2013-12-11 01:47:00,
2013-12-10 18:48:00,25.9,16.5,31.41,WSW,252,0.0,0.0,67,0.00,,,0.02,0.00,VWS V14.00,2013-12-11 01:48:00,
2013-12-10 18:49:00,25.9,16.5,31.41,WSW,252,0.0,0.0,67,0.00,,,0.02,0.00,VWS V14.00,2013-12-11 01:49:00,
2013-12-10 18:50:00,25.8,16.4,31.41,WSW,252,0.0,0.0,67,0.00,,,0.02,0.00,VWS V14.00,2013-12-11 01:50:00,
2013-12-10 18:51:00,25.8,16.4,31.41,WSW,252,0.0,0.0,67,0.00,,,0.02,0.00,VWS V14.00,2013-12-11 01:51:00,
2013-12-10 18:52:00,25.8,16.4,31.41,WSW,252,0.0,0.0,67,0.00,,,0.02,0.00,VWS V14.00,2013-12-11 01:52:00,
2013-12-10 18:53:00,25.7,16.3,31.41,WSW,252,0.0,0.0,67,0.00,,,0.02,0.00,VWS V14.00,2013-12-11 01:53:00,
2013-12-10 18:54:00,25.7,16.3,31.41,WSW,252,0.0,0.0,67,0.00,,,0.02,0.00,VWS V14.00,2013-12-11 01:54:00,
2013-12-10 18:55:00,25.7,16.3,31.41,WSW,252,0.0,0.0,67,0.00,,,0.02,0.00,VWS V14.00,2013-12-11 01:55:00,
2013-12-10 18:56:00,25.7,16.3,31.41,WSW,252,0.0,0.0,67,0.00,,,0.02,0.00,VWS V14.00,2013-12-11 01:56:00,
2013-12-10 18:57:00,25.6,16.2,31.41,WSW,252,0.0,0.0,67,0.00,,,0.02,0.00,VWS V14.00,2013-12-11 01:57:00,
2013-12-10 18:58:00,25.6,16.2,31.41,WSW,252,0.0,0.0,67,0.00,,,0.02,0.00,VWS V14.00,2013-12-11 01:58:00,
2013-12-10 18:59:00,25.6,16.2,31.41,WSW,252,0.0,0.0,67,0.00,,,0.02,0.00,VWS V14.00,2013-12-11 01:59:00,
2013-12-10 19:00:00,25.6,16.2,31.41,WSW,252,0.0,0.0,67,0.00,,,0.02,0.00,VWS V14.00,2013-12-11 02:00:00,
2013-12-10 19:01:00,25.6,16.2,31.40,WSW,252,0.0,0.0,67,0.00,,,0.02,0.00,VWS V14.00,2013-12-11 02:01:00,
2013-12-10 19:02:00,25.5,16.1,31.40,WSW,252,0.0,0.0,67,0.00,,,0.02,0.00,VWS V14.00,2013-12-11 02:02:00,
2013-12-10 19:03:00,25.5,16.1,31.40,WSW,252,0.0,0.0,67,0.00,,,0.02,0.00,VWS V14.00,2013-12-11 02:03:00,
2013-12-10 19:04:00,25.4,16.0,31.40,WSW,252,0.0,0.0,67,0.00,,,0.02,0.00,VWS V14.00,2013-12-11 02:04:00,
2013-12-10 19:05:00,25.4,16.0,31.40,WSW,252,0.0,0.0,67,0.00,,,0.02,0.00,VWS V14.00,2013-12-11 02:05:00,
2013-12-10 19:06:00,25.4,16.0,31.40,WSW,252,0.0,0.0,67,0.00,,,0.02,0.00,VWS V14.00,2013-12-11 02:06:00,
2013-12-10 19:07:00,25.3,15.9,31.40,WSW,252,0.0,0.0,67,0.00,,,0.02,0.00,VWS V14.00,2013-12-11 02:07:00,
2013-12-10 19:08:00,25.3,15.9,31.40,WSW,252,0.0,0.0,67,0.00,,,0.02,0.00,VWS V14.00,2013-12-11 02:08:00,
2013-12-10 19:09:00,25.3,15.9,31.40,WSW,252,0.0,0.0,67,0.00,,,0.02,0.00,VWS V14.00,2013-12-11 02:09:00,
2013-12-10 19:10:00,25.2,15.8,31.40,WSW,252,0.0,0.0,67,0.00,,,0.02,0.00,VWS V14.00,2013-12-11 02:10:00,
2013-12-10 19:11:00,25.2,15.8,31.40,WSW,252,0.0,0.0,67,0.00,,,0.02,0.00,VWS V14.00,2013-12-11 02:11:00,
2013-12-10 19:12:00,25.2,15.8,31.40,WSW,252,0.0,0.0,67,0.00,,,0.02,0.00,VWS V14.00,2013-12-11 02:12:00,
2013-12-10 19:13:00,25.2,15.8,31.40,WSW,252,0.0,0.0,67,0.00,,,0.02,0.00,VWS V14.00,2013-12-11 02:13:00,
2013-12-10 19:14:00,25.1,15.7,31.40,WSW,252,0.0,0.0,67,0.00,,,0.02,0.00,VWS V14.00,2013-12-11 02:14:00,
2013-12-10 19:15:00,25.1,15.7,31.40,WSW,252,0.0,0.0,67,0.00,,,0.02,0.00,VWS V14.00,2013-12-11 02:15:00,
2013-12-10 19:16:00,25.1,16.0,31.40,WSW,252,0.0,0.0,68,0.00,,,0.02,0.00,VWS V14.00,2013-12-11 02:16:00,
2013-12-10 19:17:00,25.1,16.0,31.40,WSW,252,0.0,0.0,68,0.00,,,0.02,0.00,VWS V14.00,2013-12-11 02:17:00,
2013-12-10 19:18:00,25.1,15.7,31.40,WSW,252,0.0,0.0,67,0.00,,,0.02,0.00,VWS V14.00,2013-12-11 02:18:00,
2013-12-10 19:19:00,25.1,15.7,31.40,WSW,252,0.0,0.0,67,0.00,,,0.02,0.00,VWS V14.00,2013-12-11 02:19:00,
2013-12-10 19:20:00,25.1,15.7,31.40,WSW,252,0.0,0.0,67,0.00,,,0.02,0.00,VWS V14.00,2013-12-11 02:20:00,
2013-12-10 19:21:00,25.1,16.0,31.40,WSW,252,0.0,0.0,68,0.00,,,0.02,0.00,VWS V14.00,2013-12-11 02:21:00,
2013-12-10 19:22:00,25.1,15.7,31.40,WSW,252,0.0,0.0,67,0.00,,,0.02,0.00,VWS V14.00,2013-12-11 02:22:00,
2013-12-10 19:23:00,25.1,15.7,31.40,WSW,252,0.0,0.0,67,0.00,,,0.02,0.00,VWS V14.00,2013-12-11 02:23:00,
2013-12-10 19:24:00,25.1,15.7,31.40,WSW,252,2.0,2.0,67,0.00,,,0.02,0.00,VWS V14.00,2013-12-11 02:24:00,
2013-12-10 19:25:00,25.1,16.0,31.40,NW,325,4.0,5.0,68,0.00,,,0.02,0.00,VWS V14.00,2013-12-11 02:25:00,
2013-12-10 19:26:00,25.1,16.4,31.41,NW,326,3.0,5.0,69,0.00,,,0.02,0.00,VWS V14.00,2013-12-11 02:26:00,
2013-12-10 19:27:00,25.0,16.6,31.41,NW,326,3.0,5.0,70,0.00,,,0.02,0.00,VWS V14.00,2013-12-11 02:27:00,
2013-12-10 19:28:00,24.9,16.5,31.40,NNW,328,3.0,5.0,70,0.00,,,0.02,0.00,VWS V14.00,2013-12-11 02:28:00,
2013-12-10 19:29:00,24.9,16.5,31.41,NNW,328,1.0,5.0,70,0.00,,,0.02,0.00,VWS V14.00,2013-12-11 02:29:00,
2013-12-10 19:30:00,24.8,16.8,31.41,NNW,328,1.0,5.0,71,0.00,,,0.02,0.00,VWS V14.00,2013-12-11 02:30:00,
2013-12-10 19:31:00,24.7,16.6,31.40,NNW,327,0.0,1.0,71,0.00,,,0.02,0.00,VWS V14.00,2013-12-11 02:31:00,
2013-12-10 19:32:00,24.7,16.3,31.40,NNW,327,0.0,1.0,70,0.00,,,0.02,0.00,VWS V14.00,2013-12-11 02:32:00,
2013-12-10 19:33:00,24.6,16.2,31.40,NNW,328,0.0,1.0,70,0.00,,,0.02,0.00,VWS V14.00,2013-12-11 02:33:00,
2013-12-10 19:34:00,24.6,16.2,31.40,NNW,327,0.0,1.0,70,0.00,,,0.02,0.00,VWS V14.00,2013-12-11 02:34:00,
2013-12-10 19:35:00,24.5,16.1,31.40,NNW,327,1.0,2.0,70,0.00,,,0.02,0.00,VWS V14.00,2013-12-11 02:35:00,
2013-12-10 19:36:00,24.5,16.1,31.41,NNW,328,2.0,2.0,70,0.00,,,0.02,0.00,VWS V14.00,2013-12-11 02:36:00,
2013-12-10 19:37:00,24.4,16.4,31.41,NNW,328,1.0,2.0,71,0.00,,,0.02,0.00,VWS V14.00,2013-12-11 02:37:00,
2013-12-10 19:38:00,24.4,16.4,31.42,NNW,327,1.0,2.0,71,0.00,,,0.02,0.00,VWS V14.00,2013-12-11 02:38:00,
2013-12-10 19:39:00,24.3,16.3,31.42,NNW,327,0.0,2.0,71,0.00,,,0.02,0.00,VWS V14.00,2013-12-11 02:39:00,
2013-12-10 19:40:00,24.3,16.6,31.42,NNW,328,0.0,2.0,72,0.00,,,0.02,0.00,VWS V14.00,2013-12-11 02:40:00,
2013-12-10 19:41:00,24.2,16.5,31.41,NNW,327,0.0,2.0,72,0.00,,,0.02,0.00,VWS V14.00,2013-12-11 02:41:00,
2013-12-10 19:42:00,24.2,16.5,31.42,NNW,328,0.0,2.0,72,0.00,,,0.02,0.00,VWS V14.00,2013-12-11 02:42:00,
2013-12-10 19:43:00,24.2,16.8,31.42,NNW,328,0.0,2.0,73,0.00,,,0.02,0.00,VWS V14.00,2013-12-11 02:43:00,
2013-12-10 19:44:00,24.1,16.7,31.41,NNW,328,0.0,2.0,73,0.00,,,0.02,0.00,VWS V14.00,2013-12-11 02:44:00,
2013-12-10 19:45:00,24.1,16.7,31.41,NNW,328,0.0,2.0,73,0.00,,,0.02,0.00,VWS V14.00,2013-12-11 02:45:00,
2013-12-10 19:46:00,24.0,16.9,31.41,NNW,328,0.0,0.0,74,0.00,,,0.02,0.00,VWS V14.00,2013-12-11 02:46:00,
2013-12-10 19:47:00,24.0,16.9,31.41,NNW,327,2.0,2.0,74,0.00,,,0.02,0.00,VWS V14.00,2013-12-11 02:47:00,
2013-12-10 19:48:00,24.0,16.9,31.41,NNW,327,0.0,2.0,74,0.00,,,0.02,0.00,VWS V14.00,2013-12-11 02:48:00,
2013-12-10 19:49:00,23.9,16.8,31.41,NNW,328,0.0,2.0,74,0.00,,,0.02,0.00,VWS V14.00,2013-12-11 02:49:00,
2013-12-10 19:50:00,23.9,17.1,31.41,NNW,328,0.0,2.0,75,0.00,,,0.02,0.00,VWS V14.00,2013-12-11 02:50:00,
2013-12-10 19:51:00,23.9,17.1,31.41,NNW,328,0.0,2.0,75,0.00,,,0.02,0.00,VWS V14.00,2013-12-11 02:51:00,
2013-12-10 19:52:00,23.8,17.0,31.41,NNW,327,0.0,2.0,75,0.00,,,0.02,0.00,VWS V14.00,2013-12-11 02:52:00,
2013-12-10 19:53:00,23.8,17.0,31.41,NNW,327,0.0,2.0,75,0.00,,,0.02,0.00,VWS V14.00,2013-12-11 02:53:00,
2013-12-10 19:54:00,23.8,17.0,31.41,NNW,328,0.0,2.0,75,0.00,,,0.02,0.00,VWS V14.00,2013-12-11 02:54:00,
2013-12-10 19:55:00,23.8,17.0,31.41,NNW,328,0.0,2.0,75,0.00,,,0.02,0.00,VWS V14.00,2013-12-11 02:55:00,
2013-12-10 19:56:00,23.8,17.0,31.41,NNW,328,0.0,2.0,75,0.00,,,0.02,0.00,VWS V14.00,2013-12-11 02:56:00,
2013-12-10 19:57:00,23.7,17.0,31.41,NNW,328,0.0,2.0,75,0.00,,,0.02,0.00,VWS V14.00,2013-12-11 02:57:00,
2013-12-10 19:58:00,23.7,17.0,31.41,NNW,328,0.0,2.0,75,0.00,,,0.02,0.00,VWS V14.00,2013-12-11 02:58:00,
2013-12-10 19:59:00,23.7,17.0,31.41,NNW,327,0.0,2.0,75,0.00,,,0.02,0.00,VWS V14.00,2013-12-11 02:59:00,
2013-12-10 20:00:00,23.7,17.0,31.41,NNW,327,0.0,2.0,75,0.00,,,0.02,0.00,VWS V14.00,2013-12-11 03:00:00,
2013-12-10 20:01:00,23.7,17.0,31.41,NNW,328,0.0,0.0,75,0.00,,,0.02,0.00,VWS V14.00,2013-12-11 03:01:00,
2013-12-10 20:02:00,23.6,16.9,31.39,NNW,328,0.0,0.0,75,0.00,,,0.02,0.00,VWS V14.00,2013-12-11 03:02:00,
2013-12-10 20:03:00,23.6,16.9,31.39,NNW,328,0.0,0.0,75,0.00,,,0.02,0.00,VWS V14.00,2013-12-11 03:03:00,
2013-12-10 20:04:00,23.6,16.9,31.39,NNW,327,0.0,0.0,75,0.00,,,0.02,0.00,VWS V14.00,2013-12-11 03:04:00,
2013-12-10 20:05:00,23.6,16.9,31.39,NNW,327,0.0,0.0,75,0.00,,,0.02,0.00,VWS V14.00,2013-12-11 03:05:00,
2013-12-10 20:06:00,23.6,16.9,31.39,NNW,327,0.0,0.0,75,0.00,,,0.02,0.00,VWS V14.00,2013-12-11 03:06:00,
2013-12-10 20:07:00,23.6,16.9,31.39,NNW,327,0.0,0.0,75,0.00,,,0.02,0.00,VWS V14.00,2013-12-11 03:07:00,
2013-12-10 20:08:00,23.6,16.9,31.39,NNW,328,0.0,0.0,75,0.00,,,0.02,0.00,VWS V14.00,2013-12-11 03:08:00,
2013-12-10 20:09:00,23.5,16.8,31.39,NNW,328,0.0,0.0,75,0.00,,,0.02,0.00,VWS V14.00,2013-12-11 03:09:00,
2013-12-10 20:10:00,23.5,16.8,31.39,NNW,328,0.0,0.0,75,0.00,,,0.02,0.00,VWS V14.00,2013-12-11 03:10:00,
2013-12-10 20:11:00,23.5,16.8,31.39,NNW,328,0.0,0.0,75,0.00,,,0.02,0.00,VWS V14.00,2013-12-11 03:11:00,
2013-12-10 20:12:00,23.5,16.8,31.39,NNW,328,0.0,0.0,75,0.00,,,0.02,0.00,VWS V14.00,2013-12-11 03:12:00,
2013-12-10 20:13:00,23.5,16.8,31.39,NNW,328,0.0,0.0,75,0.00,,,0.02,0.00,VWS V14.00,2013-12-11 03:13:00,
2013-12-10 20:14:00,23.5,16.8,31.39,NNW,328,0.0,0.0,75,0.00,,,0.02,0.00,VWS V14.00,2013-12-11 03:14:00,
2013-12-10 20:15:00,23.5,16.8,31.39,NNW,328,0.0,0.0,75,0.00,,,0.02,0.00,VWS V14.00,2013-12-11 03:15:00,
2013-12-10 20:16:00,23.5,16.8,31.39,NNW,327,0.0,0.0,75,0.00,,,0.02,0.00,VWS V14.00,2013-12-11 03:16:00,
2013-12-10 20:17:00,23.5,16.8,31.39,NNW,328,0.0,0.0,75,0.00,,,0.02,0.00,VWS V14.00,2013-12-11 03:17:00,
2013-12-10 20:18:00,23.5,16.8,31.39,NNW,327,0.0,0.0,75,0.00,,,0.02,0.00,VWS V14.00,2013-12-11 03:18:00,
2013-12-10 20:19:00,23.4,16.7,31.39,NNW,328,0.0,0.0,75,0.00,,,0.02,0.00,VWS V14.00,2013-12-11 03:19:00,
2013-12-10 20:20:00,23.4,16.7,31.39,NNW,327,0.0,0.0,75,0.00,,,0.02,0.00,VWS V14.00,2013-12-11 03:20:00,
2013-12-10 20:21:00,23.4,16.7,31.39,NNW,327,0.0,0.0,75,0.00,,,0.02,0.00,VWS V14.00,2013-12-11 03:21:00,
2013-12-10 20:22:00,23.4,16.7,31.39,NNW,327,0.0,0.0,75,0.00,,,0.02,0.00,VWS V14.00,2013-12-11 03:22:00,
2013-12-10 20:23:00,23.4,16.7,31.39,NNW,328,0.0,0.0,75,0.00,,,0.02,0.00,VWS V14.00,2013-12-11 03:23:00,
2013-12-10 20:24:00,23.4,16.7,31.39,NNW,328,0.0,0.0,75,0.00,,,0.02,0.00,VWS V14.00,2013-12-11 03:24:00,
2013-12-10 20:25:00,23.4,16.7,31.39,NNW,328,0.0,0.0,75,0.00,,,0.02,0.00,VWS V14.00,2013-12-11 03:25:00,
2013-12-10 20:26:00,23.4,16.7,31.39,NNW,328,0.0,0.0,75,0.00,,,0.02,0.00,VWS V14.00,2013-12-11 03:26:00,
2013-12-10 20:27:00,23.3,16.6,31.39,NNW,327,0.0,0.0,75,0.00,,,0.02,0.00,VWS V14.00,2013-12-11 03:27:00,
2013-12-10 20:28:00,23.3,16.6,31.39,NNW,328,0.0,0.0,75,0.00,,,0.02,0.00,VWS V14.00,2013-12-11 03:28:00,
2013-12-10 20:29:00,23.3,16.6,31.39,NNW,327,0.0,0.0,75,0.00,,,0.02,0.00,VWS V14.00,2013-12-11 03:29:00,
2013-12-10 20:30:00,23.3,16.6,31.39,NNW,328,0.0,0.0,75,0.00,,,0.02,0.00,VWS V14.00,2013-12-11 03:30:00,
2013-12-10 20:31:00,23.3,16.6,31.39,NNW,328,0.0,0.0,75,0.00,,,0.02,0.00,VWS V14.00,2013-12-11 03:31:00,
2013-12-10 20:32:00,23.2,16.5,31.39,NNW,328,0.0,0.0,75,0.00,,,0.02,0.00,VWS V14.00,2013-12-11 03:32:00,
2013-12-10 20:33:00,23.2,16.5,31.39,NNW,327,0.0,0.0,75,0.00,,,0.02,0.00,VWS V14.00,2013-12-11 03:33:00,
2013-12-10 20:34:00,23.1,16.4,31.39,NNW,327,0.0,0.0,75,0.00,,,0.02,0.00,VWS V14.00,2013-12-11 03:34:00,
2013-12-10 20:35:00,23.1,16.4,31.40,NNW,328,0.0,0.0,75,0.00,,,0.02,0.00,VWS V14.00,2013-12-11 03:35:00,
2013-12-10 20:36:00,23.0,16.3,31.39,NNW,328,0.0,0.0,75,0.00,,,0.02,0.00,VWS V14.00,2013-12-11 03:36:00,
2013-12-10 20:37:00,23.0,16.3,31.39,NNW,328,0.0,0.0,75,0.00,,,0.02,0.00,VWS V14.00,2013-12-11 03:37:00,
2013-12-10 20:38:00,23.0,16.3,31.40,NNW,328,0.0,0.0,75,0.00,,,0.02,0.00,VWS V14.00,2013-12-11 03:38:00,
2013-12-10 20:39:00,22.9,16.2,31.39,NNW,327,0.0,0.0,75,0.00,,,0.02,0.00,VWS V14.00,2013-12-11 03:39:00,
2013-12-10 20:40:00,22.9,16.2,31.39,NNW,328,0.0,0.0,75,0.00,,,0.02,0.00,VWS V14.00,2013-12-11 03:40:00,
2013-12-10 20:41:00,22.8,16.1,31.39,NNW,328,0.0,0.0,75,0.00,,,0.02,0.00,VWS V14.00,2013-12-11 03:41:00,
2013-12-10 20:42:00,22.8,16.4,31.39,NNW,327,0.0,0.0,76,0.00,,,0.02,0.00,VWS V14.00,2013-12-11 03:42:00,
2013-12-10 20:43:00,22.8,16.4,31.39,NNW,328,0.0,0.0,76,0.00,,,0.02,0.00,VWS V14.00,2013-12-11 03:43:00,
2013-12-10 20:44:00,22.7,16.3,31.39,NNW,328,0.0,0.0,76,0.00,,,0.02,0.00,VWS V14.00,2013-12-11 03:44:00,
2013-12-10 20:45:00,22.7,16.3,31.39,NNW,328,0.0,0.0,76,0.00,,,0.02,0.00,VWS V14.00,2013-12-11 03:45:00,
2013-12-10 20:46:00,22.7,16.3,31.39,NNW,327,0.0,0.0,76,0.00,,,0.02,0.00,VWS V14.00,2013-12-11 03:46:00,
2013-12-10 20:47:00,22.7,16.3,31.40,NNW,328,0.0,0.0,76,0.00,,,0.02,0.00,VWS V14.00,2013-12-11 03:47:00,
2013-12-10 20:48:00,22.7,16.3,31.40,NNW,328,0.0,0.0,76,0.00,,,0.02,0.00,VWS V14.00,2013-12-11 03:48:00,
2013-12-10 20:49:00,22.7,16.3,31.40,NNW,328,0.0,0.0,76,0.00,,,0.02,0.00,VWS V14.00,2013-12-11 03:49:00,
2013-12-10 20:50:00,22.6,16.2,31.40,NNW,327,0.0,0.0,76,0.00,,,0.02,0.00,VWS V14.00,2013-12-11 03:50:00,
2013-12-10 20:51:00,22.6,16.2,31.40,NNW,328,0.0,0.0,76,0.00,,,0.02,0.00,VWS V14.00,2013-12-11 03:51:00,
2013-12-10 20:52:00,22.6,16.2,31.40,NNW,328,0.0,0.0,76,0.00,,,0.02,0.00,VWS V14.00,2013-12-11 03:52:00,
2013-12-10 20:53:00,22.5,16.1,31.40,NNW,328,0.0,0.0,76,0.00,,,0.02,0.00,VWS V14.00,2013-12-11 03:53:00,
2013-12-10 20:54:00,22.5,16.4,31.40,NNW,327,0.0,0.0,77,0.00,,,0.02,0.00,VWS V14.00,2013-12-11 03:54:00,
2013-12-10 20:55:00,22.5,16.4,31.39,NNW,327,0.0,0.0,77,0.00,,,0.02,0.00,VWS V14.00,2013-12-11 03:55:00,
2013-12-10 20:56:00,22.4,16.3,31.40,NNW,327,0.0,0.0,77,0.00,,,0.02,0.00,VWS V14.00,2013-12-11 03:56:00,
2013-12-10 20:57:00,22.4,16.0,31.41,NNW,328,0.0,0.0,76,0.00,,,0.02,0.00,VWS V14.00,2013-12-11 03:57:00,
2013-12-10 20:58:00,22.4,16.3,31.41,NNW,328,0.0,0.0,77,0.00,,,0.02,0.00,VWS V14.00,2013-12-11 03:58:00,
2013-12-10 20:59:00,22.3,16.2,31.41,NNW,328,0.0,0.0,77,0.00,,,0.02,0.00,VWS V14.00,2013-12-11 03:59:00,
2013-12-10 21:00:00,22.3,16.2,31.41,NNW,327,0.0,0.0,77,0.00,,,0.02,0.00,VWS V14.00,2013-12-11 04:00:00,
2013-12-10 21:01:00,22.3,16.2,31.40,NNW,327,0.0,0.0,77,0.00,,,0.02,0.00,VWS V14.00,2013-12-11 04:01:00,
2013-12-10 21:02:00,22.3,16.2,31.39,NNW,328,0.0,0.0,77,0.00,,,0.02,0.00,VWS V14.00,2013-12-11 04:02:00,
2013-12-10 21:03:00,22.3,16.2,31.39,NNW,327,0.0,0.0,77,0.00,,,0.02,0.00,VWS V14.00,2013-12-11 04:03:00,
2013-12-10 21:04:00,22.2,16.1,31.39,NNW,327,0.0,0.0,77,0.00,,,0.02,0.00,VWS V14.00,2013-12-11 04:04:00,
2013-12-10 21:05:00,22.2,16.1,31.40,NNW,328,0.0,0.0,77,0.00,,,0.02,0.00,VWS V14.00,2013-12-11 04:05:00,
2013-12-10 21:06:00,22.2,16.1,31.40,NNW,328,0.0,0.0,77,0.00,,,0.02,0.00,VWS V14.00,2013-12-11 04:06:00,
2013-12-10 21:07:00,22.2,16.1,31.40,NNW,327,0.0,0.0,77,0.00,,,0.02,0.00,VWS V14.00,2013-12-11 04:07:00,
2013-12-10 21:08:00,22.2,16.1,31.40,NNW,327,0.0,0.0,77,0.00,,,0.02,0.00,VWS V14.00,2013-12-11 04:08:00,
2013-12-10 21:09:00,22.2,16.1,31.40,NNW,327,0.0,0.0,77,0.00,,,0.02,0.00,VWS V14.00,2013-12-11 04:09:00,
2013-12-10 21:10:00,22.2,16.1,31.40,NNW,327,0.0,0.0,77,0.00,,,0.02,0.00,VWS V14.00,2013-12-11 04:10:00,
2013-12-10 21:11:00,22.2,16.1,31.40,NNW,328,0.0,0.0,77,0.00,,,0.02,0.00,VWS V14.00,2013-12-11 04:11:00,
2013-12-10 21:12:00,22.2,16.1,31.40,NNW,328,0.0,0.0,77,0.00,,,0.02,0.00,VWS V14.00,2013-12-11 04:12:00,
2013-12-10 21:13:00,22.2,16.1,31.40,NNW,328,0.0,0.0,77,0.00,,,0.02,0.00,VWS V14.00,2013-12-11 04:13:00,
2013-12-10 21:14:00,22.1,16.0,31.40,NNW,328,0.0,0.0,77,0.00,,,0.02,0.00,VWS V14.00,2013-12-11 04:14:00,
2013-12-10 21:15:00,22.2,16.1,31.40,NNW,327,0.0,0.0,77,0.00,,,0.02,0.00,VWS V14.00,2013-12-11 04:15:00,
2013-12-10 21:16:00,22.1,16.0,31.40,NNW,327,0.0,0.0,77,0.00,,,0.02,0.00,VWS V14.00,2013-12-11 04:16:00,
2013-12-10 21:17:00,22.1,16.0,31.40,NNW,328,0.0,0.0,77,0.00,,,0.02,0.00,VWS V14.00,2013-12-11 04:17:00,
2013-12-10 21:18:00,22.1,16.0,31.40,NNW,327,0.0,0.0,77,0.00,,,0.02,0.00,VWS V14.00,2013-12-11 04:18:00,
2013-12-10 21:19:00,22.1,16.0,31.40,NNW,328,0.0,0.0,77,0.00,,,0.02,0.00,VWS V14.00,2013-12-11 04:19:00,
2013-12-10 21:20:00,22.1,16.3,31.40,NNW,328,0.0,0.0,78,0.00,,,0.02,0.00,VWS V14.00,2013-12-11 04:20:00,
2013-12-10 21:21:00,22.2,16.4,31.40,NNW,327,0.0,0.0,78,0.00,,,0.02,0.00,VWS V14.00,2013-12-11 04:21:00,
2013-12-10 21:22:00,22.2,16.4,31.40,NNW,327,0.0,0.0,78,0.00,,,0.02,0.00,VWS V14.00,2013-12-11 04:22:00,
2013-12-10 21:23:00,22.2,16.4,31.40,NNW,328,0.0,0.0,78,0.00,,,0.02,0.00,VWS V14.00,2013-12-11 04:23:00,
2013-12-10 21:24:00,22.2,16.4,31.40,NNW,328,0.0,0.0,78,0.00,,,0.02,0.00,VWS V14.00,2013-12-11 04:24:00,
2013-12-10 21:25:00,22.2,16.4,31.39,NNW,328,0.0,0.0,78,0.00,,,0.02,0.00,VWS V14.00,2013-12-11 04:25:00,
2013-12-10 21:26:00,22.2,16.4,31.40,NNW,327,0.0,0.0,78,0.00,,,0.02,0.00,VWS V14.00,2013-12-11 04:26:00,
2013-12-10 21:27:00,22.3,16.5,31.40,NNW,328,0.0,0.0,78,0.00,,,0.02,0.00,VWS V14.00,2013-12-11 04:27:00,
2013-12-10 21:28:00,22.3,16.5,31.40,NNW,327,0.0,0.0,78,0.00,,,0.02,0.00,VWS V14.00,2013-12-11 04:28:00,
2013-12-10 21:29:00,22.3,16.5,31.40,NNW,328,0.0,0.0,78,0.00,,,0.02,0.00,VWS V14.00,2013-12-11 04:29:00,
2013-12-10 21:30:00,22.3,16.5,31.40,NNW,328,0.0,0.0,78,0.00,,,0.02,0.00,VWS V14.00,2013-12-11 04:30:00,
2013-12-10 21:31:00,22.3,16.5,31.39,NNW,328,0.0,0.0,78,0.00,,,0.02,0.00,VWS V14.00,2013-12-11 04:31:00,
2013-12-10 21:32:00,22.3,16.2,31.39,NNW,327,0.0,0.0,77,0.00,,,0.02,0.00,VWS V14.00,2013-12-11 04:32:00,
2013-12-10 21:33:00,22.3,16.2,31.39,NNW,328,0.0,0.0,77,0.00,,,0.02,0.00,VWS V14.00,2013-12-11 04:33:00,
2013-12-10 21:34:00,22.3,16.5,31.39,NNW,328,0.0,0.0,78,0.00,,,0.02,0.00,VWS V14.00,2013-12-11 04:34:00,
2013-12-10 21:35:00,22.3,16.2,31.39,NNW,328,0.0,0.0,77,0.00,,,0.02,0.00,VWS V14.00,2013-12-11 04:35:00,
2013-12-10 21:36:00,22.3,16.5,31.39,NNW,328,0.0,0.0,78,0.00,,,0.02,0.00,VWS V14.00,2013-12-11 04:36:00,
2013-12-10 21:37:00,22.3,16.5,31.39,NNW,328,0.0,0.0,78,0.00,,,0.02,0.00,VWS V14.00,2013-12-11 04:37:00,
2013-12-10 21:38:00,22.3,16.5,31.39,NNW,328,0.0,0.0,78,0.00,,,0.02,0.00,VWS V14.00,2013-12-11 04:38:00,
2013-12-10 21:39:00,22.4,16.6,31.39,NNW,327,0.0,0.0,78,0.00,,,0.02,0.00,VWS V14.00,2013-12-11 04:39:00,
2013-12-10 21:40:00,22.4,16.6,31.39,NNW,328,0.0,0.0,78,0.00,,,0.02,0.00,VWS V14.00,2013-12-11 04:40:00,
2013-12-10 21:41:00,22.4,16.6,31.39,NNW,328,0.0,0.0,78,0.00,,,0.02,0.00,VWS V14.00,2013-12-11 04:41:00,
2013-12-10 21:42:00,22.4,16.6,31.39,NNW,328,0.0,0.0,78,0.00,,,0.02,0.00,VWS V14.00,2013-12-11 04:42:00,
2013-12-10 21:43:00,22.4,16.6,31.39,NNW,328,0.0,0.0,78,0.00,,,0.02,0.00,VWS V14.00,2013-12-11 04:43:00,
2013-12-10 21:44:00,22.5,16.7,31.39,NNW,327,0.0,0.0,78,0.00,,,0.02,0.00,VWS V14.00,2013-12-11 04:44:00,
2013-12-10 21:45:00,22.5,16.7,31.38,NNW,327,0.0,0.0,78,0.00,,,0.02,0.00,VWS V14.00,2013-12-11 04:45:00,
2013-12-10 21:46:00,22.5,16.4,31.38,NNW,328,0.0,0.0,77,0.00,,,0.02,0.00,VWS V14.00,2013-12-11 04:46:00,
2013-12-10 21:47:00,22.5,16.4,31.38,NNW,328,0.0,0.0,77,0.00,,,0.02,0.00,VWS V14.00,2013-12-11 04:47:00,
2013-12-10 21:48:00,22.5,16.4,31.38,NNW,328,0.0,0.0,77,0.00,,,0.02,0.00,VWS V14.00,2013-12-11 04:48:00,
2013-12-10 21:49:00,22.5,16.4,31.38,NNW,328,0.0,0.0,77,0.00,,,0.02,0.00,VWS V14.00,2013-12-11 04:49:00,
2013-12-10 21:50:00,22.5,16.4,31.38,NNW,327,0.0,0.0,77,0.00,,,0.02,0.00,VWS V14.00,2013-12-11 04:50:00,
2013-12-10 21:51:00,22.5,16.4,31.38,NNW,328,0.0,0.0,77,0.00,,,0.02,0.00,VWS V14.00,2013-12-11 04:51:00,
2013-12-10 21:52:00,22.5,16.4,31.38,NNW,328,0.0,0.0,77,0.00,,,0.02,0.00,VWS V14.00,2013-12-11 04:52:00,
2013-12-10 21:53:00,22.5,16.4,31.38,NNW,328,0.0,0.0,77,0.00,,,0.02,0.00,VWS V14.00,2013-12-11 04:53:00,
2013-12-10 21:54:00,22.5,16.4,31.38,NNW,328,0.0,0.0,77,0.00,,,0.02,0.00,VWS V14.00,2013-12-11 04:54:00,
2013-12-10 21:55:00,22.5,16.4,31.38,NNW,327,0.0,0.0,77,0.00,,,0.02,0.00,VWS V14.00,2013-12-11 04:55:00,
2013-12-10 21:56:00,22.5,16.4,31.38,NNW,328,0.0,0.0,77,0.00,,,0.02,0.00,VWS V14.00,2013-12-11 04:56:00,
2013-12-10 21:57:00,22.5,16.1,31.38,NNW,328,0.0,0.0,76,0.00,,,0.02,0.00,VWS V14.00,2013-12-11 04:57:00,
2013-12-10 21:58:00,22.5,16.1,31.38,NNW,328,0.0,0.0,76,0.00,,,0.02,0.00,VWS V14.00,2013-12-11 04:58:00,
2013-12-10 21:59:00,22.5,16.1,31.38,NNW,328,0.0,0.0,76,0.00,,,0.02,0.00,VWS V14.00,2013-12-11 04:59:00,
2013-12-10 22:00:00,22.5,16.1,31.38,NNW,328,0.0,0.0,76,0.00,,,0.02,0.00,VWS V14.00,2013-12-11 05:00:00,
2013-12-10 22:01:00,22.5,16.1,31.37,NNW,327,0.0,0.0,76,0.00,,,0.02,0.00,VWS V14.00,2013-12-11 05:01:00,
2013-12-10 22:02:00,22.5,16.1,31.37,NNW,328,0.0,0.0,76,0.00,,,0.02,0.00,VWS V14.00,2013-12-11 05:02:00,
2013-12-10 22:03:00,22.5,16.1,31.37,NNW,328,0.0,0.0,76,0.00,,,0.02,0.00,VWS V14.00,2013-12-11 05:03:00,
2013-12-10 22:04:00,22.4,16.0,31.37,NNW,327,0.0,0.0,76,0.00,,,0.02,0.00,VWS V14.00,2013-12-11 05:04:00,
2013-12-10 22:05:00,22.4,16.0,31.38,NNW,327,0.0,0.0,76,0.00,,,0.02,0.00,VWS V14.00,2013-12-11 05:05:00,
2013-12-10 22:06:00,22.4,16.0,31.38,NNW,328,0.0,0.0,76,0.00,,,0.02,0.00,VWS V14.00,2013-12-11 05:06:00,
2013-12-10 22:07:00,22.4,16.0,31.38,NNW,328,0.0,0.0,76,0.00,,,0.02,0.00,VWS V14.00,2013-12-11 05:07:00,
2013-12-10 22:08:00,22.4,16.0,31.38,NNW,328,0.0,0.0,76,0.00,,,0.02,0.00,VWS V14.00,2013-12-11 05:08:00,
2013-12-10 22:09:00,22.4,16.0,31.38,NNW,328,0.0,0.0,76,0.00,,,0.02,0.00,VWS V14.00,2013-12-11 05:09:00,
2013-12-10 22:10:00,22.3,15.9,31.38,NNW,327,0.0,0.0,76,0.00,,,0.02,0.00,VWS V14.00,2013-12-11 05:10:00,
2013-12-10 22:11:00,22.3,15.9,31.39,NNW,328,2.0,2.0,76,0.00,,,0.02,0.00,VWS V14.00,2013-12-11 05:11:00,
2013-12-10 22:12:00,22.2,15.5,31.39,NNW,327,2.0,3.0,75,0.00,,,0.02,0.00,VWS V14.00,2013-12-11 05:12:00,
2013-12-10 22:13:00,22.2,15.5,31.39,NNW,328,1.0,3.0,75,0.00,,,0.02,0.00,VWS V14.00,2013-12-11 05:13:00,
2013-12-10 22:14:00,22.2,15.5,31.39,NNW,328,1.0,3.0,75,0.00,,,0.02,0.00,VWS V14.00,2013-12-11 05:14:00,
2013-12-10 22:15:00,22.1,15.7,31.39,NNW,328,1.0,3.0,76,0.00,,,0.02,0.00,VWS V14.00,2013-12-11 05:15:00,
2013-12-10 22:16:00,22.1,15.7,31.39,NNW,328,1.0,2.0,76,0.00,,,0.02,0.00,VWS V14.00,2013-12-11 05:16:00,
2013-12-10 22:17:00,22.1,15.7,31.39,NNW,328,1.0,2.0,76,0.00,,,0.02,0.00,VWS V14.00,2013-12-11 05:17:00,
2013-12-10 22:18:00,22.1,15.7,31.39,NNW,328,3.0,3.0,76,0.00,,,0.02,0.00,VWS V14.00,2013-12-11 05:18:00,
2013-12-10 22:19:00,22.2,16.1,31.39,NNW,328,2.0,3.0,77,0.00,,,0.02,0.00,VWS V14.00,2013-12-11 05:19:00,
2013-12-10 22:20:00,22.2,16.1,31.39,NNW,327,0.0,3.0,77,0.00,,,0.02,0.00,VWS V14.00,2013-12-11 05:20:00,
2013-12-10 22:21:00,22.2,16.1,31.39,NNW,328,0.0,3.0,77,0.00,,,0.02,0.00,VWS V14.00,2013-12-11 05:21:00,
2013-12-10 22:22:00,22.2,16.1,31.39,NNW,328,0.0,3.0,77,0.00,,,0.02,0.00,VWS V14.00,2013-12-11 05:22:00,
2013-12-10 22:23:00,22.3,16.2,31.39,NNW,328,0.0,3.0,77,0.00,,,0.02,0.00,VWS V14.00,2013-12-11 05:23:00,
2013-12-10 22:24:00,22.3,16.2,31.39,NNW,328,0.0,3.0,77,0.00,,,0.02,0.00,VWS V14.00,2013-12-11 05:24:00,
2013-12-10 22:25:00,22.4,16.3,31.39,NNW,328,0.0,3.0,77,0.00,,,0.02,0.00,VWS V14.00,2013-12-11 05:25:00,
2013-12-10 22:26:00,22.4,16.3,31.39,NNW,327,0.0,3.0,77,0.00,,,0.02,0.00,VWS V14.00,2013-12-11 05:26:00,
2013-12-10 22:27:00,22.5,16.4,31.40,NNW,328,0.0,3.0,77,0.00,,,0.02,0.00,VWS V14.00,2013-12-11 05:27:00,
2013-12-10 22:28:00,22.5,16.4,31.39,NNW,327,0.0,3.0,77,0.00,,,0.02,0.00,VWS V14.00,2013-12-11 05:28:00,
2013-12-10 22:29:00,22.5,16.4,31.39,NNW,328,0.0,3.0,77,0.00,,,0.02,0.00,VWS V14.00,2013-12-11 05:29:00,
2013-12-10 22:30:00,22.5,16.4,31.39,NNW,327,0.0,3.0,77,0.00,,,0.02,0.00,VWS V14.00,2013-12-11 05:30:00,
2013-12-10 22:31:00,22.5,16.4,31.39,NNW,327,0.0,0.0,77,0.00,,,0.02,0.00,VWS V14.00,2013-12-11 05:31:00,
2013-12-10 22:32:00,22.6,16.5,31.39,NNW,327,0.0,0.0,77,0.00,,,0.02,0.00,VWS V14.00,2013-12-11 05:32:00,
2013-12-10 22:33:00,22.6,16.5,31.39,NNW,328,0.0,0.0,77,0.00,,,0.02,0.00,VWS V14.00,2013-12-11 05:33:00,
2013-12-10 22:34:00,22.6,16.5,31.39,NNW,328,0.0,0.0,77,0.00,,,0.02,0.00,VWS V14.00,2013-12-11 05:34:00,
2013-12-10 22:35:00,22.7,16.6,31.39,NNW,328,0.0,0.0,77,0.00,,,0.02,0.00,VWS V14.00,2013-12-11 05:35:00,
2013-12-10 22:36:00,22.7,16.6,31.39,NNW,327,0.0,0.0,77,0.00,,,0.02,0.00,VWS V14.00,2013-12-11 05:36:00,
2013-12-10 22:37:00,22.7,16.6,31.39,NNW,328,0.0,0.0,77,0.00,,,0.02,0.00,VWS V14.00,2013-12-11 05:37:00,
2013-12-10 22:38:00,22.8,16.7,31.39,NNW,327,0.0,0.0,77,0.00,,,0.02,0.00,VWS V14.00,2013-12-11 05:38:00,
2013-12-10 22:39:00,22.8,16.7,31.39,NNW,327,0.0,0.0,77,0.00,,,0.02,0.00,VWS V14.00,2013-12-11 05:39:00,
2013-12-10 22:40:00,22.9,16.8,31.39,NNW,328,0.0,0.0,77,0.00,,,0.02,0.00,VWS V14.00,2013-12-11 05:40:00,
2013-12-10 22:41:00,22.9,16.8,31.39,NNW,328,0.0,0.0,77,0.00,,,0.02,0.00,VWS V14.00,2013-12-11 05:41:00,
2013-12-10 22:42:00,22.9,16.8,31.39,NNW,328,0.0,0.0,77,0.00,,,0.02,0.00,VWS V14.00,2013-12-11 05:42:00,
2013-12-10 22:43:00,23.0,16.9,31.39,NNW,328,0.0,0.0,77,0.00,,,0.02,0.00,VWS V14.00,2013-12-11 05:43:00,
2013-12-10 22:44:00,23.0,16.9,31.39,NNW,327,0.0,0.0,77,0.00,,,0.02,0.00,VWS V14.00,2013-12-11 05:44:00,
2013-12-10 22:45:00,23.0,16.9,31.40,NNW,328,0.0,0.0,77,0.00,,,0.02,0.00,VWS V14.00,2013-12-11 05:45:00,
2013-12-10 22:46:00,23.1,17.0,31.40,NNW,327,0.0,0.0,77,0.00,,,0.02,0.00,VWS V14.00,2013-12-11 05:46:00,
2013-12-10 22:47:00,23.1,17.0,31.40,NNW,328,0.0,0.0,77,0.00,,,0.02,0.00,VWS V14.00,2013-12-11 05:47:00,
2013-12-10 22:48:00,23.2,17.1,31.40,NNW,327,0.0,0.0,77,0.00,,,0.02,0.00,VWS V14.00,2013-12-11 05:48:00,
2013-12-10 22:49:00,23.2,17.1,31.40,NNW,328,0.0,0.0,77,0.00,,,0.02,0.00,VWS V14.00,2013-12-11 05:49:00,
2013-12-10 22:50:00,23.2,17.1,31.40,NNW,327,0.0,0.0,77,0.00,,,0.02,0.00,VWS V14.00,2013-12-11 05:50:00,
2013-12-10 22:51:00,23.3,16.9,31.40,NNW,328,0.0,0.0,76,0.00,,,0.02,0.00,VWS V14.00,2013-12-11 05:51:00,
2013-12-10 22:52:00,23.3,16.9,31.40,NNW,328,0.0,0.0,76,0.00,,,0.02,0.00,VWS V14.00,2013-12-11 05:52:00,
2013-12-10 22:53:00,23.3,16.9,31.40,NNW,328,0.0,0.0,76,0.00,,,0.02,0.00,VWS V14.00,2013-12-11 05:53:00,
2013-12-10 22:54:00,23.3,16.9,31.40,NNW,328,0.0,0.0,76,0.00,,,0.02,0.00,VWS V14.00,2013-12-11 05:54:00,
2013-12-10 22:55:00,23.4,17.0,31.40,NNW,327,0.0,0.0,76,0.00,,,0.02,0.00,VWS V14.00,2013-12-11 05:55:00,
2013-12-10 22:56:00,23.4,17.0,31.40,NNW,327,0.0,0.0,76,0.00,,,0.02,0.00,VWS V14.00,2013-12-11 05:56:00,
2013-12-10 22:57:00,23.4,17.0,31.40,NNW,327,0.0,0.0,76,0.00,,,0.02,0.00,VWS V14.00,2013-12-11 05:57:00,
2013-12-10 22:58:00,23.4,17.0,31.40,NNW,328,0.0,0.0,76,0.00,,,0.02,0.00,VWS V14.00,2013-12-11 05:58:00,
2013-12-10 22:59:00,23.4,17.0,31.40,NNW,328,0.0,0.0,76,0.00,,,0.02,0.00,VWS V14.00,2013-12-11 05:59:00,
2013-12-10 23:00:00,23.4,17.0,31.40,NNW,327,0.0,0.0,76,0.00,,,0.02,0.00,VWS V14.00,2013-12-11 06:00:00,
2013-12-10 23:01:00,23.4,17.0,31.39,NNW,328,0.0,0.0,76,0.00,,,0.02,0.00,VWS V14.00,2013-12-11 06:01:00,
2013-12-10 23:02:00,23.4,17.0,31.39,NNW,328,0.0,0.0,76,0.00,,,0.02,0.00,VWS V14.00,2013-12-11 06:02:00,
2013-12-10 23:03:00,23.4,17.0,31.39,NNW,328,0.0,0.0,76,0.00,,,0.02,0.00,VWS V14.00,2013-12-11 06:03:00,
2013-12-10 23:04:00,23.4,17.0,31.39,NNW,328,0.0,0.0,76,0.00,,,0.02,0.00,VWS V14.00,2013-12-11 06:04:00,
2013-12-10 23:05:00,23.4,17.0,31.39,NNW,328,0.0,0.0,76,0.00,,,0.02,0.00,VWS V14.00,2013-12-11 06:05:00,
2013-12-10 23:06:00,23.4,17.0,31.39,NNW,327,0.0,0.0,76,0.00,,,0.02,0.00,VWS V14.00,2013-12-11 06:06:00,
2013-12-10 23:07:00,23.4,17.0,31.39,NNW,328,0.0,0.0,76,0.00,,,0.02,0.00,VWS V14.00,2013-12-11 06:07:00,
2013-12-10 23:08:00,23.4,17.0,31.39,NNW,328,0.0,0.0,76,0.00,,,0.02,0.00,VWS V14.00,2013-12-11 06:08:00,
2013-12-10 23:09:00,23.4,17.0,31.39,NNW,328,0.0,0.0,76,0.00,,,0.02,0.00,VWS V14.00,2013-12-11 06:09:00,
2013-12-10 23:10:00,23.4,17.0,31.39,NNW,328,0.0,0.0,76,0.00,,,0.02,0.00,VWS V14.00,2013-12-11 06:10:00,
2013-12-10 23:11:00,23.4,17.0,31.39,NNW,327,0.0,0.0,76,0.00,,,0.02,0.00,VWS V14.00,2013-12-11 06:11:00,
2013-12-10 23:12:00,23.3,16.9,31.39,NNW,328,0.0,0.0,76,0.00,,,0.02,0.00,VWS V14.00,2013-12-11 06:12:00,
2013-12-10 23:13:00,23.3,16.9,31.39,NNW,327,0.0,0.0,76,0.00,,,0.02,0.00,VWS V14.00,2013-12-11 06:13:00,
2013-12-10 23:14:00,23.3,16.9,31.39,NNW,328,0.0,0.0,76,0.00,,,0.02,0.00,VWS V14.00,2013-12-11 06:14:00,
2013-12-10 23:15:00,23.3,16.9,31.39,NNW,328,0.0,0.0,76,0.00,,,0.02,0.00,VWS V14.00,2013-12-11 06:15:00,
2013-12-10 23:16:00,23.3,16.9,31.39,NNW,327,0.0,0.0,76,0.00,,,0.02,0.00,VWS V14.00,2013-12-11 06:16:00,
2013-12-10 23:17:00,23.3,16.9,31.39,NNW,328,0.0,0.0,76,0.00,,,0.02,0.00,VWS V14.00,2013-12-11 06:17:00,
2013-12-10 23:18:00,23.3,16.9,31.39,NNW,328,2.0,3.0,76,0.00,,,0.02,0.00,VWS V14.00,2013-12-11 06:18:00,
2013-12-10 23:19:00,23.2,16.8,31.39,NNW,327,3.0,3.0,76,0.00,,,0.02,0.00,VWS V14.00,2013-12-11 06:19:00,
2013-12-10 23:20:00,23.2,16.8,31.40,NNW,328,2.0,3.0,76,0.00,,,0.02,0.00,VWS V14.00,2013-12-11 06:20:00,
2013-12-10 23:21:00,23.1,16.7,31.40,NNW,328,1.0,3.0,76,0.00,,,0.02,0.00,VWS V14.00,2013-12-11 06:21:00,
2013-12-10 23:22:00,23.1,16.7,31.40,NNW,328,1.0,3.0,76,0.00,,,0.02,0.00,VWS V14.00,2013-12-11 06:22:00,
2013-12-10 23:23:00,23.0,16.6,31.40,NNW,327,1.0,3.0,76,0.00,,,0.02,0.00,VWS V14.00,2013-12-11 06:23:00,
2013-12-10 23:24:00,22.9,16.5,31.40,NNW,328,0.0,3.0,76,0.00,,,0.02,0.00,VWS V14.00,2013-12-11 06:24:00,
2013-12-10 23:25:00,22.9,16.5,31.40,NNW,327,0.0,3.0,76,0.00,,,0.02,0.00,VWS V14.00,2013-12-11 06:25:00,
2013-12-10 23:26:00,22.8,16.4,31.40,NNW,328,0.0,3.0,76,0.00,,,0.02,0.00,VWS V14.00,2013-12-11 06:26:00,
2013-12-10 23:27:00,22.7,16.3,31.40,NNW,327,0.0,3.0,76,0.00,,,0.02,0.00,VWS V14.00,2013-12-11 06:27:00,
2013-12-10 23:28:00,22.6,16.2,31.40,NNW,328,0.0,3.0,76,0.00,,,0.02,0.00,VWS V14.00,2013-12-11 06:28:00,
2013-12-10 23:29:00,22.6,16.2,31.40,NNW,328,0.0,3.0,76,0.00,,,0.02,0.00,VWS V14.00,2013-12-11 06:29:00,
2013-12-10 23:30:00,22.5,16.4,31.40,NNW,327,0.0,3.0,77,0.00,,,0.02,0.00,VWS V14.00,2013-12-11 06:30:00,
2013-12-10 23:31:00,22.4,16.0,31.40,NNW,328,0.0,0.0,76,0.00,,,0.02,0.00,VWS V14.00,2013-12-11 06:31:00,
2013-12-10 23:32:00,22.4,16.3,31.41,NNW,327,0.0,0.0,77,0.00,,,0.02,0.00,VWS V14.00,2013-12-11 06:32:00,
2013-12-10 23:33:00,22.3,16.2,31.41,NNW,328,0.0,0.0,77,0.00,,,0.02,0.00,VWS V14.00,2013-12-11 06:33:00,
2013-12-10 23:34:00,22.3,16.2,31.41,NNW,328,0.0,0.0,77,0.00,,,0.02,0.00,VWS V14.00,2013-12-11 06:34:00,
2013-12-10 23:35:00,22.2,16.1,31.41,NNW,328,0.0,0.0,77,0.00,,,0.02,0.00,VWS V14.00,2013-12-11 06:35:00,
2013-12-10 23:36:00,22.2,16.1,31.41,NNW,327,0.0,0.0,77,0.00,,,0.02,0.00,VWS V14.00,2013-12-11 06:36:00,
2013-12-10 23:37:00,22.1,16.0,31.41,NNW,328,0.0,0.0,77,0.00,,,0.02,0.00,VWS V14.00,2013-12-11 06:37:00,
2013-12-10 23:38:00,22.1,16.3,31.41,NNW,328,0.0,0.0,78,0.00,,,0.02,0.00,VWS V14.00,2013-12-11 06:38:00,
2013-12-10 23:39:00,22.0,16.2,31.41,NNW,328,0.0,0.0,78,0.00,,,0.02,0.00,VWS V14.00,2013-12-11 06:39:00,
2013-12-10 23:40:00,22.0,16.2,31.41,NNW,328,0.0,0.0,78,0.00,,,0.02,0.00,VWS V14.00,2013-12-11 06:40:00,
2013-12-10 23:41:00,21.9,16.4,31.41,NNW,327,0.0,0.0,79,0.00,,,0.02,0.00,VWS V14.00,2013-12-11 06:41:00,
2013-12-10 23:42:00,21.8,16.3,31.41,NNW,328,0.0,0.0,79,0.00,,,0.02,0.00,VWS V14.00,2013-12-11 06:42:00,
2013-12-10 23:43:00,21.8,16.3,31.41,NNW,328,0.0,0.0,79,0.00,,,0.02,0.00,VWS V14.00,2013-12-11 06:43:00,
2013-12-10 23:44:00,21.7,16.2,31.41,NNW,328,0.0,0.0,79,0.00,,,0.02,0.00,VWS V14.00,2013-12-11 06:44:00,
2013-12-10 23:45:00,21.7,16.2,31.41,NNW,327,0.0,0.0,79,0.00,,,0.02,0.00,VWS V14.00,2013-12-11 06:45:00,
2013-12-10 23:46:00,21.7,16.2,31.40,NNW,328,0.0,0.0,79,0.00,,,0.02,0.00,VWS V14.00,2013-12-11 06:46:00,
2013-12-10 23:47:00,21.6,16.4,31.40,NNW,327,0.0,0.0,80,0.00,,,0.02,0.00,VWS V14.00,2013-12-11 06:47:00,
2013-12-10 23:48:00,21.6,16.4,31.40,NNW,327,0.0,0.0,80,0.00,,,0.02,0.00,VWS V14.00,2013-12-11 06:48:00,
2013-12-10 23:49:00,21.6,16.4,31.41,NNW,328,0.0,0.0,80,0.00,,,0.02,0.00,VWS V14.00,2013-12-11 06:49:00,
2013-12-10 23:50:00,21.6,16.4,31.40,NNW,328,0.0,0.0,80,0.00,,,0.02,0.00,VWS V14.00,2013-12-11 06:50:00,
2013-12-10 23:51:00,21.6,16.4,31.40,NNW,328,0.0,0.0,80,0.00,,,0.02,0.00,VWS V14.00,2013-12-11 06:51:00,
2013-12-10 23:52:00,21.6,16.4,31.41,NNW,327,0.0,0.0,80,0.00,,,0.02,0.00,VWS V14.00,2013-12-11 06:52:00,
2013-12-10 23:53:00,21.6,16.4,31.40,NNW,327,0.0,0.0,80,0.00,,,0.02,0.00,VWS V14.00,2013-12-11 06:53:00,
2013-12-10 23:54:00,21.6,16.4,31.40,NNW,327,0.0,0.0,80,0.00,,,0.02,0.00,VWS V14.00,2013-12-11 06:54:00,
2013-12-10 23:55:00,21.6,16.7,31.40,NNW,328,0.0,0.0,81,0.00,,,0.02,0.00,VWS V14.00,2013-12-11 06:55:00,
2013-12-10 23:56:00,21.6,16.7,31.40,NNW,328,0.0,0.0,81,0.00,,,0.02,0.00,VWS V14.00,2013-12-11 06:56:00,
2013-12-10 23:57:00,21.6,16.7,31.40,NNW,328,0.0,0.0,81,0.00,,,0.02,0.00,VWS V14.00,2013-12-11 06:57:00,
2013-12-10 23:58:00,21.6,16.7,31.40,NNW,328,0.0,0.0,81,0.00,,,0.02,0.00,VWS V14.00,2013-12-11 06:58:00,
2013-12-10 23:59:00,21.6,16.7,31.40,NNW,328,0.0,0.0,81,0.00,,,0.02,0.00,VWS V14.00,2013-12-11 06:59:00,